[[{"header":{"parameterUnit":"m.s-1","parameterCategory":1,"la1":30.6,"la2":29.2853,"lo1":-89.7004,"lo2":-87.6739,"dy":0.0162,"dx":0.0183,"nx":112,"ny":82,"refTime":"2026-04-10T12:00:00:Z","depth":0,"parameterNumber":2,"parameterNumberName":"U-component_of_WINDS"},"data":[0.0,0.0,0.0,0.0,0.0,0.0,0.0,0.0,0.0,0.0,0.0,0.0,0.0,0.0,0.0,0.0,0.0,0.0,0.0,0.0,0.0,0.0,0.0,0.0,0.0,0.0,0.0,0.0,0.0,0.0,0.0,0.0,0.0,0.0,0.0,0.0,0.0,0.0,0.0,0.0,0.0,0.0,0.0,0.0,0.0,0.0,0.0,0.0,0.0,0.0,0.0,0.0,0.0,0.0,0.0,0.0,0.0,0.0,0.0,0.0,0.0,0.0,0.0,0.0,0.0,0.0,0.0,0.0,0.0,0.0,0.0,0.0,0.0,0.0,0.0,0.0,0.0,0.0,0.0,0.0,0.0,0.0,0.0,0.0,0.0,0.0,0.0,0.0,0.0,0.0,-4.132,-4.2232,-4.4384,-4.5789,-4.5815,-4.5093,-4.3285,-3.9971,0.0,0.0,0.0,0.0,0.0,0.0,0.0,0.0,0.0,0.0,0.0,0.0,0.0,0.0,0.0,0.0,0.0,0.0,0.0,0.0,0.0,0.0,0.0,0.0,0.0,0.0,0.0,0.0,0.0,0.0,0.0,0.0,0.0,0.0,0.0,0.0,0.0,0.0,0.0,0.0,0.0,0.0,0.0,0.0,0.0,0.0,0.0,0.0,0.0,0.0,0.0,0.0,0.0,0.0,0.0,0.0,0.0,0.0,0.0,0.0,0.0,0.0,0.0,0.0,0.0,0.0,0.0,0.0,0.0,0.0,0.0,0.0,0.0,0.0,0.0,0.0,0.0,0.0,0.0,0.0,0.0,0.0,0.0,0.0,0.0,0.0,0.0,0.0,0.0,0.0,0.0,0.0,0.0,0.0,0.0,0.0,0.0,0.0,0.0,0.0,0.0,0.0,0.0,0.0,-4.0815,-4.4249,-4.5227,-4.568,-4.5809,-4.5021,-4.3373,-4.0682,0.0,0.0,0.0,0.0,0.0,0.0,0.0,0.0,0.0,0.0,0.0,0.0,0.0,0.0,0.0,0.0,0.0,0.0,0.0,0.0,0.0,0.0,0.0,0.0,0.0,0.0,0.0,0.0,0.0,0.0,0.0,0.0,0.0,0.0,0.0,0.0,0.0,0.0,0.0,0.0,0.0,0.0,0.0,0.0,0.0,0.0,0.0,0.0,0.0,0.0,0.0,0.0,0.0,0.0,0.0,0.0,0.0,0.0,0.0,0.0,0.0,0.0,0.0,0.0,0.0,0.0,0.0,0.0,0.0,0.0,0.0,0.0,0.0,0.0,0.0,0.0,0.0,0.0,0.0,0.0,0.0,0.0,0.0,0.0,0.0,0.0,0.0,0.0,0.0,0.0,0.0,0.0,0.0,0.0,0.0,0.0,0.0,0.0,0.0,0.0,0.0,0.0,0.0,-4.014,-4.133,-4.4509,-4.5148,-4.5362,-4.5435,-4.4776,-4.3303,-4.0738,-3.7863,0.0,0.0,0.0,0.0,0.0,0.0,0.0,0.0,0.0,0.0,0.0,0.0,0.0,0.0,0.0,0.0,0.0,0.0,0.0,0.0,0.0,0.0,0.0,0.0,0.0,0.0,0.0,0.0,0.0,0.0,0.0,0.0,0.0,0.0,0.0,0.0,0.0,0.0,0.0,0.0,0.0,0.0,0.0,0.0,0.0,0.0,0.0,0.0,0.0,0.0,0.0,0.0,0.0,0.0,0.0,0.0,0.0,0.0,0.0,0.0,0.0,0.0,0.0,0.0,0.0,0.0,0.0,0.0,0.0,0.0,0.0,0.0,0.0,0.0,0.0,0.0,0.0,0.0,0.0,0.0,0.0,0.0,0.0,0.0,0.0,0.0,0.0,0.0,0.0,0.0,0.0,0.0,0.0,0.0,0.0,0.0,0.0,0.0,0.0,0.0,0.0,0.0,-4.1428,-4.2448,-4.4267,-4.4788,-4.4977,-4.4977,-4.4316,-4.2885,-4.0543,-3.7633,0.0,0.0,0.0,0.0,0.0,0.0,0.0,0.0,0.0,0.0,0.0,0.0,0.0,0.0,0.0,0.0,0.0,0.0,0.0,0.0,0.0,0.0,0.0,0.0,0.0,0.0,0.0,0.0,0.0,0.0,0.0,0.0,0.0,0.0,0.0,0.0,0.0,0.0,0.0,0.0,0.0,0.0,0.0,0.0,0.0,0.0,0.0,0.0,0.0,0.0,0.0,0.0,0.0,0.0,0.0,0.0,0.0,0.0,0.0,0.0,0.0,0.0,0.0,0.0,0.0,0.0,0.0,0.0,0.0,0.0,0.0,0.0,0.0,0.0,0.0,0.0,0.0,0.0,0.0,0.0,0.0,0.0,0.0,0.0,0.0,0.0,0.0,0.0,0.0,0.0,0.0,0.0,0.0,0.0,0.0,0.0,0.0,0.0,0.0,0.0,0.0,0.0,-4.2104,-4.4253,-4.4073,-4.4387,-4.465,-4.465,-4.3399,-4.1884,-4.0138,-3.7488,0.0,0.0,0.0,0.0,0.0,0.0,0.0,0.0,0.0,0.0,0.0,0.0,0.0,0.0,0.0,0.0,0.0,0.0,0.0,0.0,0.0,0.0,0.0,0.0,0.0,0.0,0.0,0.0,0.0,0.0,0.0,0.0,0.0,0.0,0.0,0.0,0.0,0.0,0.0,0.0,0.0,0.0,0.0,0.0,0.0,0.0,0.0,0.0,0.0,0.0,0.0,0.0,0.0,0.0,0.0,0.0,0.0,0.0,0.0,0.0,0.0,0.0,0.0,0.0,0.0,0.0,0.0,0.0,0.0,0.0,0.0,0.0,0.0,0.0,0.0,0.0,0.0,0.0,0.0,0.0,0.0,0.0,0.0,0.0,0.0,0.0,0.0,0.0,0.0,0.0,0.0,0.0,0.0,0.0,0.0,0.0,0.0,0.0,0.0,0.0,0.0,0.0,-4.0895,-4.2758,-4.3582,-4.402,-4.4219,-4.4219,-4.3467,-4.206,-3.9878,0.0,0.0,0.0,0.0,0.0,0.0,0.0,0.0,0.0,0.0,0.0,0.0,0.0,0.0,0.0,0.0,0.0,0.0,0.0,0.0,0.0,0.0,0.0,0.0,0.0,0.0,0.0,0.0,0.0,0.0,0.0,0.0,0.0,0.0,0.0,0.0,0.0,0.0,0.0,0.0,0.0,0.0,0.0,0.0,0.0,0.0,0.0,0.0,0.0,0.0,0.0,0.0,0.0,0.0,0.0,0.0,0.0,0.0,0.0,0.0,0.0,0.0,0.0,0.0,0.0,0.0,0.0,0.0,0.0,0.0,0.0,0.0,0.0,0.0,0.0,0.0,0.0,0.0,0.0,0.0,0.0,0.0,0.0,0.0,0.0,0.0,0.0,0.0,0.0,0.0,0.0,0.0,0.0,0.0,0.0,0.0,0.0,0.0,0.0,0.0,0.0,0.0,-3.8198,-3.9921,-4.1487,-4.2832,-4.3157,-4.3362,-4.357,-4.2627,-4.1188,-3.9188,0.0,0.0,0.0,0.0,0.0,0.0,0.0,0.0,0.0,0.0,0.0,0.0,0.0,0.0,0.0,0.0,0.0,0.0,0.0,0.0,0.0,0.0,0.0,0.0,0.0,0.0,0.0,0.0,0.0,0.0,0.0,0.0,0.0,0.0,0.0,0.0,0.0,0.0,0.0,0.0,0.0,0.0,0.0,0.0,0.0,0.0,0.0,0.0,0.0,0.0,0.0,0.0,0.0,0.0,0.0,0.0,0.0,0.0,0.0,0.0,0.0,0.0,0.0,0.0,0.0,0.0,0.0,0.0,0.0,0.0,0.0,0.0,0.0,0.0,0.0,0.0,0.0,0.0,0.0,0.0,0.0,0.0,0.0,0.0,0.0,0.0,0.0,0.0,0.0,0.0,0.0,0.0,0.0,0.0,0.0,0.0,0.0,0.0,0.0,0.0,0.0,0.0,-3.7539,-3.9504,-4.0967,-4.1704,-4.181,-4.2041,-4.2635,-4.065,-3.894,0.0,0.0,0.0,0.0,0.0,0.0,0.0,0.0,0.0,0.0,0.0,0.0,0.0,0.0,0.0,0.0,0.0,0.0,0.0,0.0,0.0,0.0,0.0,0.0,0.0,0.0,0.0,0.0,0.0,0.0,0.0,0.0,0.0,0.0,0.0,0.0,0.0,0.0,0.0,0.0,0.0,0.0,0.0,0.0,0.0,0.0,0.0,0.0,0.0,0.0,0.0,0.0,0.0,0.0,0.0,0.0,0.0,0.0,0.0,0.0,0.0,0.0,0.0,0.0,0.0,0.0,0.0,0.0,0.0,0.0,0.0,0.0,0.0,0.0,0.0,0.0,0.0,0.0,0.0,0.0,0.0,0.0,0.0,0.0,0.0,0.0,0.0,0.0,0.0,0.0,0.0,0.0,0.0,0.0,0.0,0.0,0.0,0.0,0.0,0.0,0.0,0.0,0.0,-3.7164,-3.9325,-4.0982,-4.1704,-4.181,-4.1661,-4.1314,-4.0185,-3.8438,-3.5948,0.0,0.0,0.0,0.0,0.0,0.0,0.0,0.0,0.0,0.0,0.0,0.0,0.0,0.0,0.0,0.0,0.0,0.0,0.0,0.0,0.0,0.0,0.0,0.0,0.0,0.0,0.0,0.0,0.0,0.0,0.0,0.0,0.0,0.0,0.0,0.0,0.0,0.0,0.0,0.0,0.0,0.0,0.0,0.0,0.0,0.0,0.0,0.0,0.0,0.0,0.0,0.0,0.0,0.0,0.0,0.0,0.0,0.0,0.0,0.0,0.0,0.0,0.0,0.0,0.0,0.0,0.0,0.0,0.0,0.0,0.0,0.0,0.0,0.0,0.0,0.0,0.0,0.0,0.0,0.0,0.0,0.0,0.0,0.0,0.0,0.0,0.0,0.0,0.0,0.0,0.0,0.0,0.0,0.0,0.0,0.0,0.0,0.0,0.0,0.0,0.0,0.0,-3.6545,-3.8447,-3.9978,-4.1,-4.1105,-4.1044,-4.0797,-3.9779,-3.8033,-3.5456,0.0,0.0,0.0,0.0,0.0,0.0,0.0,0.0,0.0,0.0,0.0,0.0,0.0,0.0,0.0,0.0,0.0,0.0,0.0,0.0,0.0,0.0,0.0,0.0,0.0,0.0,0.0,0.0,0.0,0.0,0.0,0.0,0.0,0.0,0.0,0.0,0.0,0.0,0.0,0.0,0.0,0.0,0.0,0.0,0.0,0.0,0.0,0.0,0.0,0.0,0.0,0.0,0.0,0.0,0.0,0.0,0.0,0.0,0.0,0.0,0.0,0.0,0.0,0.0,0.0,0.0,0.0,0.0,0.0,0.0,0.0,0.0,0.0,0.0,0.0,0.0,0.0,0.0,0.0,0.0,0.0,0.0,0.0,0.0,0.0,0.0,0.0,0.0,0.0,0.0,0.0,0.0,0.0,0.0,0.0,0.0,0.0,0.0,0.0,0.0,0.0,0.0,-3.5704,-3.7183,-3.843,-3.9842,-4.0079,-4.0269,-4.0676,-3.9387,-3.7714,-3.5782,0.0,0.0,0.0,0.0,0.0,0.0,0.0,0.0,0.0,0.0,0.0,0.0,0.0,0.0,0.0,0.0,0.0,0.0,0.0,0.0,0.0,0.0,0.0,0.0,0.0,0.0,0.0,0.0,0.0,0.0,0.0,0.0,0.0,0.0,0.0,0.0,0.0,0.0,0.0,0.0,0.0,0.0,0.0,0.0,0.0,0.0,0.0,0.0,0.0,0.0,0.0,0.0,0.0,0.0,0.0,0.0,0.0,0.0,0.0,0.0,-3.3701,-3.3175,0.0,0.0,0.0,0.0,0.0,0.0,0.0,0.0,0.0,0.0,0.0,0.0,0.0,0.0,0.0,0.0,0.0,0.0,0.0,0.0,0.0,0.0,0.0,0.0,0.0,0.0,0.0,0.0,0.0,0.0,0.0,0.0,0.0,0.0,0.0,0.0,0.0,0.0,0.0,0.0,-3.4555,-3.6638,-3.8261,-3.914,-3.9774,-3.9926,-3.9438,-3.8554,-3.6865,-3.4096,-3.2681,0.0,0.0,0.0,0.0,0.0,0.0,0.0,0.0,0.0,0.0,0.0,0.0,0.0,0.0,0.0,0.0,0.0,0.0,0.0,0.0,0.0,0.0,0.0,0.0,0.0,0.0,0.0,0.0,0.0,0.0,0.0,0.0,0.0,0.0,0.0,0.0,0.0,0.0,0.0,0.0,0.0,0.0,0.0,0.0,0.0,0.0,0.0,0.0,0.0,0.0,0.0,0.0,0.0,0.0,0.0,0.0,0.0,0.0,0.0,-3.3296,-3.2934,0.0,0.0,0.0,0.0,0.0,0.0,0.0,0.0,0.0,0.0,0.0,0.0,0.0,0.0,0.0,0.0,0.0,0.0,0.0,0.0,0.0,0.0,0.0,0.0,0.0,0.0,0.0,0.0,0.0,0.0,0.0,0.0,0.0,0.0,0.0,0.0,0.0,0.0,0.0,0.0,-3.3729,-3.5656,-3.7285,-3.8413,-3.9135,-3.9277,-3.8572,-3.782,-3.6391,-3.4096,-3.2471,0.0,0.0,0.0,0.0,0.0,0.0,0.0,0.0,0.0,0.0,0.0,0.0,0.0,0.0,0.0,0.0,0.0,0.0,0.0,0.0,0.0,0.0,0.0,0.0,0.0,0.0,0.0,0.0,0.0,0.0,0.0,0.0,0.0,0.0,0.0,0.0,0.0,0.0,0.0,0.0,0.0,0.0,0.0,0.0,0.0,0.0,0.0,0.0,0.0,0.0,0.0,0.0,0.0,-3.3639,-3.369,-3.369,-3.369,-3.369,-3.3683,-3.3395,-3.3115,-3.2842,-3.2346,0.0,0.0,0.0,0.0,0.0,0.0,0.0,0.0,0.0,0.0,0.0,0.0,0.0,0.0,0.0,0.0,0.0,0.0,0.0,0.0,0.0,0.0,-3.0549,-2.9855,-3.0147,-3.0422,-2.9985,0.0,0.0,0.0,0.0,0.0,0.0,0.0,0.0,0.0,0.0,0.0,-3.3064,-3.4627,-3.6014,-3.7288,-3.8043,-3.8212,-3.7663,-3.6894,-3.585,-3.4513,-3.2475,-3.1064,0.0,0.0,0.0,0.0,0.0,0.0,0.0,0.0,0.0,0.0,0.0,0.0,0.0,0.0,0.0,0.0,0.0,0.0,0.0,0.0,0.0,0.0,0.0,0.0,0.0,0.0,0.0,0.0,0.0,0.0,0.0,0.0,-3.196,-3.0356,0.0,0.0,0.0,0.0,0.0,0.0,0.0,0.0,0.0,0.0,0.0,0.0,0.0,-3.0652,-3.1953,-3.2859,-3.3946,-3.5182,-3.5705,-3.5977,-3.5977,-3.5977,-3.5977,-3.5927,-3.539,0.0,-3.3055,-3.298,0.0,0.0,0.0,0.0,0.0,0.0,0.0,0.0,0.0,0.0,0.0,0.0,0.0,0.0,0.0,0.0,0.0,0.0,0.0,0.0,0.0,0.0,-3.0892,-2.9997,-3.0047,-3.0219,-3.0156,-3.0097,-2.9779,-2.8952,-2.9033,-2.8984,0.0,0.0,0.0,0.0,0.0,0.0,-3.2348,-3.3884,-3.4902,-3.5096,-3.5776,-3.6217,-3.6077,-3.5412,-3.4613,-3.3783,-3.2264,-3.1021,-3.0257,-2.8718,0.0,0.0,0.0,0.0,0.0,0.0,0.0,0.0,0.0,0.0,0.0,0.0,0.0,0.0,0.0,0.0,0.0,0.0,0.0,0.0,0.0,0.0,0.0,0.0,0.0,0.0,0.0,0.0,0.0,-3.278,-3.2634,-3.0548,-3.1792,-3.1669,0.0,0.0,0.0,0.0,0.0,0.0,0.0,0.0,0.0,-2.9913,-3.0308,-3.1113,-3.2411,-3.3609,-3.4747,-3.5673,-3.594,-3.6062,-3.6062,-3.5218,-3.4816,-3.4843,-3.54,-3.509,-3.4117,-3.3712,-3.3219,-3.2684,0.0,0.0,0.0,0.0,-3.3089,-3.3051,-3.3158,-3.2826,-3.2267,-3.1928,0.0,0.0,0.0,0.0,0.0,0.0,0.0,-3.1256,-3.043,-3.0292,-3.0305,-2.9895,-2.9885,-2.9984,-2.9984,-3.0067,-2.9942,-2.9431,-2.9871,-2.9813,-2.8252,-2.8199,0.0,0.0,0.0,-3.071,-3.1695,-3.2835,-3.368,-3.4112,-3.4749,-3.5021,-3.4668,-3.4301,-3.3833,-3.3087,-3.2003,-3.1439,-3.15,-2.9996,-2.8768,0.0,0.0,0.0,0.0,0.0,0.0,0.0,0.0,0.0,0.0,0.0,0.0,0.0,0.0,0.0,0.0,0.0,0.0,0.0,0.0,0.0,0.0,0.0,0.0,0.0,0.0,0.0,0.0,-3.2717,-3.2816,-3.0772,-3.2256,-3.1938,0.0,0.0,0.0,0.0,0.0,0.0,-2.971,-2.9698,-3.0063,-3.0854,-3.1111,-3.177,-3.3015,-3.4261,-3.5201,-3.5824,-3.5824,-3.5754,-3.5637,-3.4562,-3.4008,-3.4062,-3.5004,-3.5217,-3.4805,-3.4588,-3.4198,-3.3646,-3.3068,-3.3029,-3.3279,-3.3123,-3.2843,-3.2623,-3.2947,-3.2365,-3.1357,-3.1009,-3.054,-3.0065,-2.9732,0.0,0.0,0.0,0.0,-3.0388,-3.0157,-2.996,-2.9804,-2.9804,-2.9804,-2.9804,-2.9804,-2.996,-3.0026,-2.9868,-3.0304,-3.019,-2.8424,-2.8758,0.0,-2.9262,-2.9873,-3.0619,-3.1292,-3.1921,-3.2539,-3.3088,-3.3591,-3.3674,-3.3206,-3.3149,-3.2906,-3.2358,-3.1781,-3.1662,-3.2217,-3.1124,-3.0154,-2.9375,0.0,0.0,0.0,0.0,0.0,0.0,0.0,0.0,0.0,0.0,0.0,0.0,0.0,0.0,0.0,0.0,0.0,0.0,0.0,0.0,0.0,0.0,0.0,0.0,0.0,0.0,0.0,0.0,0.0,-3.1024,-3.1587,0.0,0.0,0.0,0.0,-2.9642,-2.9381,-2.9444,-2.9839,-2.9707,-2.9833,-3.0209,-3.1054,-3.2172,-3.366,-3.4159,-3.4913,-3.5893,-3.5893,-3.5702,-3.5331,-3.5276,-3.5221,-3.5199,-3.4706,-3.4482,-3.4561,-3.5746,-3.5906,-3.5332,-3.4781,-3.4575,-3.4519,-3.4035,-3.3059,-3.1908,-3.1475,-3.0438,-2.9351,-2.9465,-2.9199,-2.8773,-2.8186,-2.9151,0.0,0.0,-3.0017,-3.0917,-3.0075,-2.9818,-2.9804,-2.9804,-2.9804,-2.9804,-2.9804,-2.9818,-2.9897,-3.0157,-2.9942,-2.9536,-2.8856,0.0,-2.9146,-2.9193,-2.9953,-3.0709,-3.1301,-3.1483,-3.1568,-3.1598,-3.1627,-3.1656,-3.1598,-3.1598,-3.1598,-3.1568,-3.1538,-3.1508,-3.1566,-3.1423,-3.0799,-2.9609,-2.8836,0.0,0.0,0.0,0.0,0.0,0.0,0.0,0.0,0.0,0.0,0.0,0.0,0.0,0.0,0.0,0.0,0.0,0.0,0.0,0.0,0.0,0.0,0.0,0.0,0.0,0.0,0.0,0.0,-3.149,-3.284,0.0,-2.8931,-3.0067,-3.0643,-2.9729,-2.9796,-3.0183,-3.0863,-3.0876,-3.1016,-3.1445,-3.1777,-3.2215,-3.2734,-3.3847,-3.4593,-3.4947,-3.4947,-3.469,-3.4239,-3.3309,-3.2703,-3.253,-3.3226,-3.336,-3.3071,-3.4523,-3.442,-3.3324,-3.2812,-3.2936,-3.3303,-3.2253,-3.2089,-3.2252,-3.1251,-3.0369,-2.9615,-2.9081,-2.8789,-2.8703,-2.8939,-2.9414,-2.9955,-3.0388,-3.0683,-3.0751,-3.0385,-3.0055,-2.9804,-2.9804,-2.9804,-2.9804,-2.9804,-2.9804,-2.9845,-2.9923,-2.998,-2.9819,-2.9164,-2.934,-2.9594,-2.9753,-3.0105,-3.066,-3.1375,-3.1474,-3.1511,-3.1511,-3.1511,-3.1511,-3.1511,-3.1511,-3.1511,-3.1511,-3.1511,-3.1511,-3.1511,-3.147,-3.1046,-3.0193,-2.9535,-2.7901,0.0,0.0,0.0,0.0,0.0,0.0,0.0,0.0,0.0,0.0,0.0,0.0,0.0,0.0,0.0,0.0,0.0,0.0,0.0,0.0,0.0,0.0,0.0,0.0,0.0,-3.2759,-3.2771,-3.1923,-3.3092,-3.2767,-2.9639,-3.077,-3.1244,-3.0291,-3.0625,-3.1172,-3.1914,-3.1953,-3.2148,-3.2578,-3.2598,-3.2598,-3.2598,-3.3578,-3.4022,-3.3878,-3.3878,-3.3633,-3.3144,-3.2038,-3.1367,-3.1152,-3.2001,-3.2137,-3.183,-3.2649,-3.2415,-3.1622,-3.2353,-3.2945,-3.3221,-3.2769,-3.2887,-3.3007,-3.1042,-2.9683,-2.8673,-2.8053,-2.7901,-2.8029,-2.8495,-2.9071,-2.9761,-3.058,-3.0726,-3.0608,-3.0608,-3.0206,-2.9804,-2.9804,-2.9804,-2.9804,-2.9804,-2.9804,-2.9804,-2.9804,-3.0186,-3.0246,-2.9264,-2.9843,-3.0267,-2.9919,-3.0154,-3.0537,-3.0858,-3.1189,-3.1309,-3.1102,-3.1336,-3.1511,-3.1511,-3.1511,-3.1511,-3.1511,-3.1301,-3.1152,-3.1152,-3.0972,-3.0672,-3.0193,-2.9382,-2.7829,-2.5591,0.0,0.0,0.0,0.0,0.0,0.0,0.0,0.0,0.0,0.0,0.0,0.0,0.0,0.0,0.0,0.0,0.0,0.0,0.0,0.0,0.0,0.0,0.0,-3.179,-3.2073,-3.2135,-3.2225,-3.2213,-3.1699,-3.041,-3.1445,-3.2031,-3.1582,-3.1973,-3.2402,-3.2793,-3.2832,-3.3008,-3.3418,-3.3418,-3.3418,-3.3418,-3.3418,-3.3223,-3.2812,-3.2812,-3.2598,-3.2168,-3.1738,-3.1523,-3.1504,-3.1074,-3.0898,-3.0859,-3.041,-3.0215,-3.0495,-3.3607,-3.4589,-3.4458,-3.5667,-3.5307,-3.3752,-3.0694,-2.8238,-2.6406,-2.6387,-2.6536,-2.6676,-2.6722,-2.8077,-2.9574,-2.9616,-3.0114,-3.0633,-3.0633,-3.0206,-2.9804,-2.9804,-2.9804,-2.9804,-2.9804,-2.9804,-2.9804,-2.9804,-3.057,-3.0712,-2.9176,-3.0358,-3.1066,-2.9627,-3.0077,0.0,-2.9866,-3.0556,-3.0896,-3.0325,-3.0984,-3.1424,-3.1424,-3.1424,-3.1424,-3.1424,-3.0796,-3.0466,-3.0438,-2.9869,-2.954,-2.954,-2.8252,-2.6936,-2.5597,0.0,0.0,0.0,0.0,0.0,0.0,0.0,0.0,0.0,0.0,0.0,0.0,0.0,0.0,0.0,0.0,0.0,0.0,0.0,0.0,0.0,-3.0601,-3.1621,-3.2057,-3.2146,-3.2256,-3.2615,-3.2903,-3.2812,-3.2148,-3.2676,-3.291,-3.248,-3.3125,-3.3457,-3.3262,-3.3555,-3.3633,-3.3437,-3.3418,-3.3418,-3.3418,-3.3418,-3.3359,-3.3242,-3.3242,-3.3027,-3.2598,-3.2187,-3.1816,-3.1504,-3.1074,-3.0898,-3.0879,-3.0762,-3.0508,-3.0231,-3.0459,-3.1127,-3.1815,-3.09,-3.0276,-2.9797,-2.8661,-2.7645,-2.6797,-2.6484,-2.6192,-2.6152,-2.7081,-2.8351,-2.9621,-3.0531,-3.0985,-3.1185,-3.1185,-3.0482,-2.9804,-2.9804,-2.9804,-2.9804,-2.9804,-2.9804,-2.9804,-2.9804,-3.057,-3.0843,-2.9745,-2.9592,-2.9714,-2.9932,-2.9821,-2.9893,-3.0342,-3.0582,-3.0526,-2.9979,-3.0147,-3.0108,-2.9718,-2.969,-2.969,-2.969,-2.9126,-2.8985,-2.9407,-2.8872,-2.859,-2.859,-2.7792,-2.6762,0.0,0.0,0.0,0.0,0.0,0.0,0.0,0.0,0.0,0.0,0.0,0.0,0.0,0.0,0.0,0.0,0.0,0.0,0.0,0.0,0.0,0.0,-3.1192,-3.2446,-3.2628,-3.2534,-3.2656,-3.3262,-3.3555,-3.3672,-3.3594,-3.3809,-3.3848,-3.3613,-3.4062,-3.4219,-3.3965,-3.4199,-3.4141,-3.3711,-3.3691,-3.3613,-3.3418,-3.3418,-3.3418,-3.3418,-3.3418,-3.3301,-3.3047,-3.2617,-3.2207,-3.1758,-3.1348,-3.1055,-3.0898,-3.0898,-3.0723,-3.0448,0.0,0.0,0.0,0.0,-2.9618,-2.9124,-2.8862,-2.8137,-2.7226,-2.6797,-2.6367,-2.6075,-2.6633,-2.7673,-2.8773,-2.9487,-2.9948,-3.0193,-2.9978,-2.9306,-2.8659,-2.8483,-2.8752,-2.9106,-2.9106,-2.9443,-2.9804,-2.9804,-3.0254,0.0,-2.9895,-2.9821,-2.9905,-3.0043,-2.9796,-2.9668,-2.9847,-3.0183,-3.0246,-2.9686,-2.9941,-2.9893,-2.9352,-2.9357,0.0,0.0,0.0,-2.8146,-2.8167,-2.7867,0.0,0.0,0.0,0.0,0.0,0.0,0.0,0.0,-2.6482,-2.6581,0.0,0.0,0.0,0.0,0.0,0.0,0.0,0.0,0.0,0.0,0.0,0.0,0.0,0.0,0.0,0.0,-3.1797,-3.3027,-3.3496,-3.3242,-3.3301,-3.4062,-3.4141,-3.4297,-3.4668,-3.4707,-3.4707,-3.4707,-3.4746,-3.4766,-3.4707,-3.4746,0.0,0.0,0.0,-3.3867,-3.3418,-3.3418,-3.3418,-3.3418,-3.3418,-3.3418,-3.3398,-3.2988,-3.2559,-3.2148,-3.1699,-3.1269,-3.0898,-3.0898,-3.0859,-3.0839,-3.1242,-3.1096,-3.0852,-3.1592,-3.1133,-3.0068,-3.0068,0.0,0.0,-2.7148,-2.6738,-2.6309,-2.581,-2.6572,-2.76,-2.76,-2.8055,-2.8478,-2.8008,-2.7516,-2.6981,-2.6595,-2.7238,-2.7964,-2.8084,-2.8885,-2.9663,-2.9804,-2.9804,-2.9804,-2.9804,-3.0495,-3.0771,-2.9934,-2.9804,-2.9603,-2.9063,-2.9685,-2.9964,-2.9398,-2.9985,0.0,-2.9656,-2.9547,-2.9307,-2.8853,-2.8188,-2.7526,-2.687,-2.6897,-2.6897,-2.6843,-2.6933,-2.6966,-2.6884,-2.7737,-2.8197,-2.8282,-2.6735,-2.6692,0.0,0.0,0.0,0.0,0.0,0.0,0.0,0.0,0.0,0.0,0.0,0.0,0.0,0.0,0.0,-3.1582,-3.2637,-3.3574,-3.4336,-3.4375,-3.4394,-3.4551,-3.457,-3.4609,-3.4687,-3.4707,-3.4707,-3.4707,-3.5039,-3.5098,-3.4726,-3.5059,-3.4902,-3.4101,-3.4082,-3.3867,-3.3418,-3.3418,-3.3418,-3.3418,-3.3418,0.0,-3.3398,-3.2988,-3.2559,-3.2148,-3.1699,-3.1269,-3.0898,-3.0898,-3.0664,-3.0331,-3.0083,-2.9719,-2.9283,-2.9113,-2.89,-2.8708,-2.8708,-2.8272,-2.7598,-2.7148,-2.6738,-2.6309,-2.581,-2.6572,0.0,-2.76,-2.8055,-2.8478,-2.8008,-2.7516,-2.6981,-2.6595,-2.6648,-2.7035,-2.7924,-2.8267,-2.8688,-2.9624,-2.9804,-2.9804,-2.9804,-2.9934,-3.0011,-2.9818,-2.9804,-2.9754,-2.9628,-2.9757,-2.9644,-2.9086,-2.9159,-2.9014,-2.8451,-2.8027,-2.7719,-2.7652,-2.708,-2.6516,-2.5895,-2.6363,-2.6389,-2.587,-2.6457,-2.6542,-2.6122,-2.6884,-2.762,-2.8311,-2.8678,-2.8963,0.0,0.0,0.0,0.0,0.0,0.0,0.0,0.0,0.0,0.0,0.0,-2.9785,-3.043,0.0,-3.2109,-3.2988,-3.3848,-3.4551,-3.498,-3.5234,-3.5273,-3.5078,-3.5039,-3.5137,-3.5332,-3.5351,-3.5351,-3.5351,-3.5566,-3.5605,-3.5371,-3.5586,-3.541,-3.4746,-3.4512,-3.418,-3.375,-3.3535,-3.3418,-3.3418,-3.3418,-3.3418,-3.3418,-3.3203,-3.2773,-3.2209,-3.1934,-3.1484,-3.0898,-3.0898,-3.0762,-3.0508,-3.0059,-2.9492,-2.8906,-2.8691,-2.8476,-2.8301,-2.8301,-2.8164,-2.791,-2.748,-2.7051,-2.6621,-2.6191,-2.6338,-2.6668,-2.6668,-2.6913,-2.7024,-2.6609,-2.6127,-2.5643,-2.5227,-2.5402,-2.5797,-2.6315,-2.6912,-2.7464,-2.8051,-2.8569,-2.8949,-2.8949,-2.9404,-2.9804,-2.9804,-2.9804,-2.9804,-2.9804,-2.9804,-2.9679,-2.9402,-2.9352,-2.9126,-2.8574,-2.8021,-2.757,-2.7329,-2.7052,-2.665,-2.6097,-2.6348,-2.6348,-2.6072,-2.6416,-2.6462,-2.6212,-2.6966,-2.7565,-2.7999,-2.8905,-2.9579,0.0,0.0,0.0,0.0,0.0,0.0,0.0,-2.9121,-2.9687,-3.0215,-3.0879,-3.1621,-3.2402,-3.3086,-3.373,-3.4238,-3.4922,-3.543,-3.5508,-3.5801,-3.5898,-3.5547,-3.5508,-3.5644,-3.5996,-3.6016,-3.6016,-3.6016,-3.6016,-3.6016,-3.6016,-3.6016,-3.582,-3.541,-3.5019,-3.459,-3.4082,-3.373,-3.3496,-3.3418,-3.3418,-3.3418,-3.3418,-3.3418,-3.2969,-3.2209,-3.1992,-3.1523,-3.0898,-3.0898,-3.0898,-3.0859,-3.0488,-2.9863,-2.9141,-2.8984,-2.8711,-2.8398,-2.832,-2.8301,-2.8223,-2.7865,-2.7422,-2.7051,-2.6543,-2.6152,-2.5791,-2.5713,-2.5693,-2.5625,-2.5176,-2.4746,-2.4316,-2.3887,-2.4122,-2.4532,-2.4745,-2.5504,-2.6235,-2.6483,-2.7197,-2.7804,-2.7804,-2.853,-2.9287,-2.9765,-2.9804,-2.9804,-2.9804,-2.9804,-2.9804,-2.9804,-2.9804,-2.9553,-2.8938,-2.8524,-2.7971,-2.7318,-2.7293,-2.7077,-2.6524,-2.6499,-2.6499,-2.6499,-2.6499,-2.6499,-2.6499,-2.7162,-2.7537,-2.7736,-2.8427,-2.9254,-2.4392,-2.5044,-2.6482,-2.8829,-2.945,-2.9922,0.0,-3.2012,-3.2031,-3.2832,-3.3066,-3.3281,-3.3769,-3.3945,-3.4277,-3.5117,-3.5332,-3.5527,-3.5898,-3.5996,-3.5996,-3.5957,-3.5957,-3.5976,-3.6016,-3.6016,-3.6016,-3.6016,-3.6016,-3.6016,-3.6016,-3.6016,-3.582,-3.541,-3.5351,-3.4922,-3.4082,-3.4023,-3.3809,-3.3418,-3.3418,-3.3418,-3.3418,-3.3418,-3.2969,-3.219,-3.1367,-3.0976,-3.0898,-3.0898,-3.0898,-3.0879,-3.084,-3.0508,-2.9961,-2.9199,-2.8887,-2.8789,-2.8418,-2.8301,-2.8223,-2.7865,-2.7689,-2.7441,-2.6641,-2.6348,-2.623,-2.5791,-2.5693,-2.5625,-2.5176,-2.4746,-2.4316,-2.3887,-2.3546,-2.3541,-2.4575,-2.4914,-2.5294,-2.6318,-2.6607,-2.6689,-2.6689,-2.6771,-2.7545,-2.9507,-2.9804,-2.9804,-2.9804,-2.9804,-2.9804,-2.9804,-2.9804,-2.9553,-2.8938,-2.8838,-2.8398,-2.7344,-2.7293,-2.7077,-2.6524,-2.6499,-2.6499,-2.6499,-2.6499,-2.6499,-2.6499,-2.6602,-2.6994,-2.7703,-2.7802,-2.8336,-2.3626,-2.5001,-2.67,-2.8781,-2.9658,-3.0419,-3.2332,-3.3047,-3.3379,-3.373,-3.4199,-3.4629,-3.4805,-3.5039,-3.5332,-3.5703,-3.5762,-3.582,-3.5996,-3.6016,-3.6016,-3.6016,-3.6016,-3.6016,-3.6016,-3.6016,-3.6016,-3.6016,-3.6016,-3.6016,-3.6016,-3.6016,-3.5442,-3.414,-3.383,-3.293,-3.1243,-3.103,-3.071,-3.0401,-3.1368,-3.1899,-3.1899,-3.2956,-3.2431,-3.0709,-2.9826,-2.892,-2.8128,-2.9039,-2.9471,-2.953,-3.0528,-3.0762,-3.0488,-2.9629,-2.9141,-2.8848,-2.8437,-2.8301,-2.8262,-2.8086,-2.7871,-2.7611,-2.6934,-2.6582,-2.6289,-2.581,-2.5693,-2.5635,-2.5508,-2.5137,-2.4687,-2.4258,-2.3828,-2.357,-2.3774,-2.38,-2.3973,-2.4425,-2.5062,-2.5504,-2.5504,-2.6047,-2.6812,-2.773,-2.841,-2.8806,-2.8806,-2.9404,-2.9804,-2.9804,-2.9804,-2.9704,-2.9453,-2.9428,-2.9101,-2.8298,-2.8247,-2.7846,-2.7002,-2.6977,-2.6826,-2.6499,-2.6499,-2.6499,-2.6499,-2.6499,-2.6679,-2.6994,-2.6994,-2.7196,-2.3076,-2.4672,-2.6319,-2.812,-2.9168,-3.0252,-3.2256,-3.3173,-3.3846,-3.4524,-3.5117,-3.5566,-3.5566,-3.582,-3.6016,-3.6016,-3.6016,-3.6016,-3.6016,-3.6016,-3.6016,-3.6016,-3.5918,-3.5675,-3.5295,-3.5743,-3.6016,-3.6016,-3.6016,-3.5811,-3.5245,-3.5226,-3.4383,-3.2455,-3.2034,-3.103,-2.9237,-2.8905,-2.8559,-2.8229,-2.9474,-3.006,-3.0125,-3.1258,-3.0772,-2.8941,-2.8192,-2.7177,-2.6106,-2.7254,-2.7751,-2.7871,-2.9039,-2.953,-2.9456,-2.8707,-2.8708,-2.9043,-2.8613,-2.8398,-2.8301,-2.8301,-2.8086,-2.7754,-2.7324,-2.6894,-2.6465,-2.6035,-2.5791,-2.5693,-2.5693,-2.541,-2.498,-2.4668,-2.418,-2.3711,-2.3379,-2.3179,-2.3101,-2.3101,-2.3757,-2.4339,-2.4339,-2.502,-2.5568,-2.5568,-2.6502,-2.7296,-2.7602,-2.8648,-2.9209,-2.891,-2.9468,-2.9663,-2.9365,-2.9624,-2.9553,-2.8938,-2.8888,-2.8499,-2.7544,-2.7519,-2.7318,-2.6952,-2.6801,-2.6725,-2.6725,-2.6725,-2.6725,-2.6725,-2.6876,-2.6952,-2.2889,-2.3847,-2.4914,-2.6858,-2.7949,-2.9194,-3.1915,-3.2521,-3.3193,-3.5452,-3.5976,-3.5996,-3.5996,-3.6016,-3.6016,-3.6016,-3.6016,-3.6016,-3.6016,-3.6016,-3.6016,-3.6016,-3.5664,-3.4873,-3.3411,-3.4952,-3.6016,-3.6016,-3.6016,-3.5226,-3.3378,-3.3309,-3.2386,-3.0451,-3.0364,-3.0016,-2.9237,-2.922,-2.8857,-2.8163,-2.8229,-2.8295,-2.8295,-2.7865,-2.7501,-2.7137,-2.6661,-2.6298,-2.5984,-2.6045,-2.6045,-2.6106,-2.6106,-2.6167,-2.6117,-2.5615,-2.7196,-2.9492,-2.9043,-2.8633,-2.8301,-2.8301,-2.8281,-2.8203,-2.7826,-2.7344,-2.6914,-2.6484,-2.6055,-2.5693,-2.5693,-2.541,-2.5106,-2.5106,-2.4394,-2.3789,-2.3769,-2.3437,-2.3101,-2.3101,-2.3144,-2.3125,-2.3125,-2.3188,-2.3212,-2.3212,-2.4168,-2.5294,-2.64,-2.7481,-2.7723,-2.673,-2.8514,-2.9365,-2.8267,-2.9145,-2.9553,-2.8938,-2.8888,-2.8637,-2.8097,-2.8072,-2.8072,-2.8047,-2.7519,-2.7304,-2.7304,-2.7304,-2.7304,-2.7268,-2.7821,-2.8047,-2.2318,-2.3043,-2.4186,-2.6534,-2.7423,-2.8499,-3.1048,-3.1531,-3.1962,-3.3952,-3.3779,-3.3629,-3.4937,-3.5137,-3.5137,-3.5137,-3.5644,-3.5587,-3.4314,-3.4158,-3.3656,-3.2368,-3.2123,-3.1809,-3.1299,-3.3916,-3.523,-3.4208,-3.4158,-3.3882,-3.324,-3.1948,-3.0397,-2.8485,-2.8253,-2.7292,-2.5623,-2.5406,-2.5089,-2.4723,-2.5853,-2.7039,-2.8163,-2.7735,-2.6713,-2.5417,-2.4997,-2.4046,-2.2827,-2.3931,-2.4425,-2.4532,-2.5558,-2.5984,-2.5968,-2.5836,-2.6168,-2.6812,-2.7175,-2.7123,-2.6987,-2.8014,-2.8301,-2.8203,-2.7845,-2.7363,-2.6934,-2.6504,-2.6074,-2.5693,-2.5693,-2.5577,-2.543,-2.5137,-2.4891,-2.4473,-2.3906,-2.3672,-2.3496,-2.314,-2.3101,-2.3101,-2.3101,-2.3101,-2.3101,-2.3101,-2.4082,-2.521,-2.6337,-2.6812,-2.6871,-2.6565,-2.718,-2.7464,-2.7098,-2.7383,-2.7515,-2.7329,-2.7329,-2.7056,-2.6481,-2.6457,-2.6256,-2.593,-2.647,-2.6771,-2.6771,-2.7494,-2.7821,-2.7846,-2.8021,-2.8097,-2.2245,-2.2953,-2.4025,-2.5697,-2.643,-2.7349,-2.9524,-2.987,-3.0211,-3.1962,-3.1633,-3.1322,-3.2464,-3.258,-3.258,-3.2792,-3.3292,-3.3326,-3.2263,-3.2158,-3.1667,-3.0451,-3.0194,-2.9895,-2.9385,-3.1756,-3.3029,-3.2211,-3.2804,-3.2595,-3.1262,-2.9971,-2.8413,-2.6502,-2.6171,-2.5299,-2.3839,-2.3474,-2.3166,-2.2928,-2.406,-2.5181,-2.6306,-2.5957,-2.5095,-2.3638,-2.3372,-2.2482,-2.1172,-2.2278,-2.2716,-2.2827,-2.3854,-2.4271,-2.4271,-2.4271,-2.4009,-2.388,-2.5415,-2.5747,-2.5619,-2.6427,-2.6662,-2.6625,-2.6367,-2.5998,-2.554,-2.5186,-2.4748,-2.4498,-2.4911,-2.4971,-2.5061,-2.5275,-2.5176,-2.493,-2.416,-2.3906,-2.3652,-2.3179,-2.3101,-2.3101,-2.3101,-2.3101,-2.3101,-2.3101,-2.3714,-2.4467,-2.5189,-2.563,-2.5714,-2.5316,-2.6027,-2.6359,-2.5922,-2.6276,-2.6524,-2.6524,-2.6524,-2.6326,-2.5931,-2.5909,-2.5753,-2.54,-2.5913,-2.6171,-2.6171,-2.7303,-2.7791,-2.7853,-2.8413,-2.8699,-2.2766,-2.3581,-2.4329,-2.4623,-2.5117,-2.5881,-2.745,-2.7777,-2.814,-2.9455,-2.9451,-2.9106,-2.8977,-2.871,-2.8726,-2.9275,-2.9373,-2.9586,-3.0069,-3.0168,-3.0097,-3.0026,-2.9661,-2.8892,-2.7475,-2.8688,-2.9666,-2.9993,-3.1808,-3.1333,-2.7722,-2.7433,-2.6502,-2.4636,-2.4342,-2.4048,-2.3768,-2.346,-2.3153,-2.2928,-2.2928,-2.2928,-2.2928,-2.2928,-2.2539,-2.1991,-2.1991,-2.1657,-2.1109,-2.1109,-2.1109,-2.1109,-2.1109,-2.1109,-2.1109,-2.1109,-2.0935,-2.1074,-2.3763,-2.4449,-2.4146,-2.3881,-2.3822,-2.3822,-2.3822,-2.3519,-2.3119,-2.2827,-2.2396,-2.2345,-2.3359,-2.3601,-2.3949,-2.5167,-2.5218,-2.4839,-2.4392,-2.403,-2.3602,-2.3218,-2.312,-2.3101,-2.3101,-2.3101,-2.3101,-2.3101,-2.3101,-2.3101,-2.3101,-2.4039,-2.4296,-2.3212,-2.502,-2.588,-2.4787,-2.5714,-2.6318,-2.6318,-2.6318,-2.6318,-2.6318,-2.6318,-2.6318,-2.6318,-2.5828,-2.5543,-2.5543,-2.6697,-2.7269,-2.7293,-2.8885,-2.9663,-2.3701,-2.4342,-2.4983,-2.5491,-2.5571,-2.5698,-2.6293,-2.5951,-2.5929,-2.7761,-2.7001,-2.6433,-2.7785,-2.8179,-2.8362,-2.8478,-2.9404,-2.9618,-2.8398,-2.8197,-2.7707,-2.6196,-2.5994,-2.5761,-2.5345,-2.6997,-2.7473,-2.6123,-2.7852,-2.8501,-2.7578,-2.6152,-2.5139,-2.4636,-2.4142,-2.3848,-2.3768,-2.3247,-2.2939,-2.2928,-2.2928,-2.2928,-2.2928,-2.2928,-2.2539,-2.1991,-2.1991,-2.1657,-2.1109,-2.1109,-2.1109,-2.1109,-2.1109,-2.1109,-2.1109,-2.1109,-2.1069,-2.1074,-2.1567,-2.2156,-2.2698,-2.3545,-2.3822,-2.3822,-2.3822,-2.3519,-2.3168,-2.3124,-2.2593,-2.2135,-2.2466,-2.2384,-2.2316,-2.2617,-2.2631,-2.2705,-2.3226,-2.3015,-2.2908,-2.3512,-2.3315,-2.3101,-2.3101,-2.3101,-2.3101,-2.3101,-2.3101,-2.3101,-2.3101,-2.3343,-2.343,-2.3144,-2.3647,-2.3844,-2.356,-2.38,-2.3973,-2.3973,-2.3973,-2.3973,-2.3973,-2.3973,-2.3973,-2.3973,-2.464,-2.4976,-2.5018,-2.6158,-2.6689,-2.6689,-2.7151,-2.7787,-2.4275,-2.4917,-2.5545,-2.5956,-2.5825,-2.5651,-2.5424,-2.489,-2.458,-2.5158,-2.4374,-2.3934,-2.4815,-2.5252,-2.5586,-2.5807,-2.68,-2.7161,-2.6314,-2.621,-2.5859,-2.471,-2.4636,-2.4636,-2.4636,-2.5566,-2.5786,-2.471,-2.643,-2.7143,-2.6284,-2.5212,-2.4636,-2.4636,-2.4075,-2.3647,-2.338,-2.3102,-2.2928,-2.2928,-2.2928,-2.2928,-2.2928,-2.2928,-2.2605,-2.2164,-2.2044,-2.1724,-2.1296,-2.1162,-2.1109,-2.1109,-2.1109,-2.1109,-2.1109,-2.1109,-2.1109,-2.1069,-2.0775,-2.0895,-2.1317,-2.1857,-2.1934,-2.1885,-2.1885,-2.1692,-2.1526,-2.1375,-2.1003,-2.0764,-2.1149,-2.1122,-2.1139,-2.1591,-2.1693,-2.1795,-2.2085,-2.1924,-2.2013,-2.2777,-2.2723,-2.2631,-2.3033,-2.3101,-2.3101,-2.3101,-2.3101,-2.3101,-2.3101,-2.3101,-2.3101,-2.3101,-2.3101,-2.3101,-2.3101,-2.3101,-2.3101,-2.3101,-2.3101,-2.3101,-2.3101,-2.3101,-2.3101,-2.3101,-2.3714,-2.4039,-2.4039,-2.521,-2.5755,-2.5755,-2.6276,-2.6812,-2.4716,-2.5371,-2.6037,-2.6037,-2.597,-2.5625,-2.477,-2.4289,-2.3714,-2.2645,-2.2164,-2.1857,-2.1668,-2.1817,-2.2218,-2.2847,-2.3407,-2.4022,-2.4556,-2.4636,-2.4636,-2.4636,-2.4636,-2.4636,-2.4636,-2.4636,-2.4636,-2.4636,-2.6137,-2.6357,-2.471,-2.4636,-2.4596,-2.4529,-2.4035,-2.3474,-2.2941,-2.2928,-2.2928,-2.2928,-2.2928,-2.2928,-2.2928,-2.2928,-2.2699,-2.2405,-2.2151,-2.1857,-2.1601,-2.1269,-2.1149,-2.1109,-2.1109,-2.1109,-2.1109,-2.1109,-2.1109,-2.1069,-2.0815,-2.0535,-2.0241,-1.9907,-1.9599,-1.943,-1.943,-1.943,-1.9319,-1.9052,-1.8958,-1.9066,-1.9715,-1.9847,-2.0046,-2.0925,-2.1135,-2.1105,-2.0848,-2.0883,-2.1112,-2.1526,-2.1582,-2.1761,-2.2555,-2.2637,-2.2643,-2.2643,-2.2775,-2.2862,-2.2862,-2.2994,-2.3101,-2.3101,-2.3101,-2.3101,-2.3101,-2.3101,-2.3101,-2.3101,-2.3101,-2.3101,-2.3101,-2.3101,-2.3101,-2.3101,-2.3101,-2.3101,-2.3101,-2.4082,-2.4575,-2.4575,-2.5588,-2.6152,-2.5585,-2.5916,-2.6037,-2.6037,-2.5598,-2.5064,-2.4422,-2.3661,-2.2966,-2.2512,-2.1991,-2.1681,-2.1628,-2.1991,-2.2458,-2.2806,-2.3567,-2.4249,-2.4596,-2.4636,-2.4636,-2.4636,-2.4636,-2.4636,-2.4636,-2.4636,-2.4636,-2.4636,-2.4918,-2.4991,-2.4636,-2.4636,-2.4422,-2.3941,-2.3821,-2.3474,-2.2941,-2.2928,-2.2928,-2.2928,-2.2928,-2.2928,-2.2928,-2.2928,-2.2699,-2.2418,-2.2365,-2.2044,-2.1614,-2.1561,-2.1336,-2.1109,-2.1109,-2.1109,-2.1109,-2.1109,-2.1109,-2.1096,-2.1056,-2.0842,-2.0508,-1.9973,-1.9599,-1.943,-1.943,-1.943,-1.9417,-1.9305,-1.9118,-1.8894,-1.8823,-1.8551,-1.8386,-1.8321,-1.829,-1.8589,-1.9604,-2.0477,-2.0933,-2.0714,-2.0429,-2.0289,-2.0408,-2.0292,-2.0133,-2.0133,-2.0989,-2.1614,-2.1614,-2.2492,-2.3101,-2.3101,-2.3101,-2.3101,-2.3101,-2.3101,-2.3101,-2.3101,-2.3101,-2.3101,-2.3101,-2.3101,-2.3101,-2.3101,-2.3101,-2.3101,-2.3101,-2.3299,-2.3387,-2.3387,-2.3604,-2.4168,-2.5838,-2.6066,-2.6186,-2.6186,-2.5625,-2.489,-2.4142,-2.3287,-2.2458,-2.1857,-2.151,-2.1323,-2.1323,-2.1804,-2.2245,-2.2378,-2.302,-2.3661,-2.4115,-2.4182,-2.4302,-2.4596,-2.4636,-2.4636,-2.4636,-2.4636,-2.4636,-2.4636,-2.4636,-2.4636,-2.4636,-2.4636,-2.4436,-2.4008,-2.3848,-2.3554,-2.3113,-2.2939,-2.2928,-2.2928,-2.2928,-2.2928,-2.2928,-2.2928,-2.2779,-2.2645,-2.2485,-2.2178,-2.1829,-2.1681,-2.1376,-2.1109,-2.1109,-2.1109,-2.1109,-2.1109,-2.1109,-2.1109,-2.1109,-2.0922,-2.0601,-2.016,-1.9826,-1.9559,-1.9412,-1.943,-1.943,-1.943,-1.9265,-1.9092,-1.8798,-1.8504,-1.8196,-1.7903,-1.7702,-1.7793,-1.8408,-1.889,-1.9334,-1.9602,-1.9548,-1.9571,-2.0053,-1.9915,-1.9714,-1.9714,-2.007,-2.0342,-2.0342,-2.0854,-2.1721,-2.295,-2.3101,-2.3101,-2.3101,-2.3101,-2.3101,-2.3101,-2.3101,-2.3101,-2.3101,-2.3101,-2.3101,-2.3101,-2.3101,-2.3101,-2.3101,-2.3101,-2.3101,-2.3101,-2.3101,-2.3387,-2.5945,-2.6213,-2.6373,-2.6319,-2.5638,-2.4756,-2.3875,-2.2979,-2.2098,-2.1283,-2.1109,-2.1109,-2.1109,-2.1537,-2.1911,-2.1977,-2.2432,-2.3006,-2.3674,-2.3768,-2.3981,-2.4569,-2.4636,-2.4636,-2.4636,-2.4636,-2.4636,-2.4636,-2.4636,-2.4636,-2.4636,-2.4636,-2.4502,-2.4209,-2.3928,-2.3621,-2.3327,-2.302,-2.2928,-2.2928,-2.2928,-2.2928,-2.2928,-2.2928,-2.2928,-2.2914,-2.2619,-2.2352,-2.2058,-2.1829,-2.147,-2.1203,-2.1136,-2.1109,-2.1109,-2.1109,-2.1109,-2.1109,-2.1109,-2.0962,-2.0722,-2.0428,-2.0094,-1.9746,-1.9452,-1.943,-1.943,-1.943,-1.943,-1.9292,-1.8998,-1.8758,-1.849,-1.8075,-1.7809,-1.7582,-1.7582,-1.7582,-1.783,-1.8548,-1.8651,-1.8858,-1.9579,-1.9429,-1.9193,-1.9193,-1.9191,-1.9198,-1.9198,-1.9363,-2.0223,-2.2138,-2.2315,-2.2448,-2.2687,-2.2731,-2.2818,-2.3101,-2.3101,-2.3101,-2.3101,-2.3101,-2.3101,-2.3101,-2.3101,-2.3101,-2.3101,-2.3101,-2.3101,-2.3101,-2.3101,-2.3101,-2.6199,-2.6373,-2.6319,-2.6066,-2.5331,-2.4449,-2.3567,-2.2672,-2.1844,-2.1243,-2.1109,-2.1109,-2.1109,-2.1376,-2.1748,-2.1937,-2.2258,-2.2766,-2.3647,-2.3768,-2.3981,-2.4569,-2.4636,-2.4636,-2.4636,-2.4636,-2.4636,-2.4636,-2.4636,-2.4636,-2.4636,-2.4636,-2.4502,-2.4209,-2.3928,-2.3621,-2.3327,-2.302,-2.2928,-2.2928,-2.2928,-2.2928,-2.2928,-2.2928,-2.2928,-2.2928,-2.2901,-2.2659,-2.2352,-2.2071,-2.1777,-2.1547,-2.1216,-2.1109,-2.1109,-2.1109,-2.1109,-2.1109,-2.1109,-2.1096,-2.1029,-2.0735,-2.0254,-1.9746,-1.9452,-1.943,-1.943,-1.943,-1.943,-1.9292,-1.8998,-1.8905,-1.8744,-1.8129,-1.7809,-1.7582,-1.7582,-1.7582,-1.7621,-1.7699,-1.7536,-1.7398,-1.7459,-1.72,-1.6995,-1.6995,-1.7712,-1.8213,-1.8213,-1.897,-1.9588,-1.9815,-1.9815,-2.0268,-2.1391,-2.148,-2.1943,-2.3038,-2.3101,-2.3101,-2.3101,-2.3101,-2.3101,-2.3101,-2.3101,-2.3101,-2.3101,-2.3101,-2.3101,-2.3101,-2.3101,-2.3101,-2.5919,-2.6253,-2.636,-2.6239,-2.5424,-2.4449,-2.3754,-2.2766,-2.1817,-2.1229,-2.1109,-2.1109,-2.1109,-2.1203,-2.1323,-2.1443,-2.155,-2.1937,-2.2832,-2.2953,-2.3313,-2.4262,-2.4382,-2.4449,-2.4549,-2.4636,-2.4636,-2.4636,-2.4636,-2.4636,-2.4636,-2.4636,-2.4583,-2.4462,-2.4182,-2.3888,-2.3594,-2.33,-2.3046,-2.2928,-2.2928,-2.2928,-2.2928,-2.2928,-2.2928,-2.2928,-2.2928,-2.2699,-2.2405,-2.2298,-2.1977,-2.1601,-2.143,-2.1269,-2.1109,-2.1109,-2.1109,-2.1109,-2.1109,-2.1109,-2.1069,-2.0775,-2.0401,-2.0,-1.972,-1.9506,-1.943,-1.943,-1.943,-1.9345,-1.9225,-1.9052,-1.8771,-1.8129,-1.7902,-1.7809,-1.7622,-1.7582,-1.7582,-1.7582,-1.7488,-1.746,-1.746,-1.7219,-1.7018,-1.7018,-1.7164,-1.7197,-1.705,-1.7342,-1.7516,-1.7264,-1.8626,-1.9679,-2.0161,-2.0206,-2.0449,-2.0899,-2.0944,-2.0944,-2.0944,-2.0944,-2.0944,-2.0944,-2.0944,-2.0944,-2.0944,-2.1676,-2.2031,-2.2031,-2.2775,-2.3101,-2.5558,-2.6039,-2.6266,-2.6266,-2.5384,-2.4356,-2.3768,-2.2712,-2.171,-2.1216,-2.1109,-2.1109,-2.1109,-2.1109,-2.1109,-2.1109,-2.1189,-2.1483,-2.2191,-2.2365,-2.2766,-2.3701,-2.3888,-2.4062,-2.4356,-2.4001,-2.3722,-2.3722,-2.319,-2.2806,-2.2806,-2.2806,-2.3339,-2.4562,-2.4356,-2.4062,-2.3768,-2.3474,-2.3166,-2.2928,-2.2928,-2.2928,-2.2928,-2.2928,-2.2928,-2.2859,-2.2297,-2.2261,-2.2471,-2.1205,-2.0822,-2.0863,-2.0253,-1.9794,-1.9546,-1.9546,-1.9546,-1.9546,-1.9546,-1.9877,-2.0297,-2.0103,-2.0155,-2.0307,-2.0013,-1.9666,-1.943,-1.943,-1.943,-1.943,-1.943,-1.9145,-1.8811,-1.8355,-1.8115,-1.7929,-1.7769,-1.7649,-1.7582,-1.7582,-1.7582,-1.7582,-1.7582,-1.746,-1.7326,-1.7326,-1.7021,-1.6767,-1.6603,-1.6429,-1.6192,-1.5979,-1.7402,-1.858,-1.8948,-1.8948,-1.9131,-1.9497,-1.9497,-1.9497,-1.9497,-1.9497,-1.9497,-1.9497,-1.9497,-1.9497,-1.9497,-2.0342,-2.0747,-2.0792,-2.1632,-2.2227,-2.5197,-2.5732,-2.6037,-2.6037,-2.5077,-2.4048,-2.346,-2.2405,-2.1534,-2.1176,-2.1109,-2.1109,-2.1109,-2.1109,-2.1109,-2.1109,-2.1363,-2.1722,-2.1951,-2.2231,-2.2539,-2.2846,-2.3153,-2.3447,-2.3754,-2.2496,-2.1601,-2.1601,-1.9779,-1.8648,-1.8648,-1.8648,-2.0466,-2.4488,-2.4356,-2.4062,-2.3768,-2.3474,-2.3166,-2.2928,-2.2928,-2.2928,-2.2928,-2.2928,-2.2928,-2.2791,-2.0963,-2.1183,-2.2545,-1.8512,-1.7863,-1.9174,-1.7002,-1.605,-1.5978,-1.5978,-1.5978,-1.5978,-1.5978,-1.7076,-1.8512,-1.85,-1.9487,-2.0615,-2.0321,-1.9826,-1.943,-1.943,-1.943,-1.943,-1.943,-1.9145,-1.8918,-1.8918,-1.8408,-1.7995,-1.7995,-1.7796,-1.7582,-1.7582,-1.7582,-1.7582,-1.7582,-1.7582,-1.7582,-1.7582,-1.738,-1.7192,-1.7192,-1.6683,-1.6321,-1.6321,-1.6005,-1.6339,-1.7591,-1.7731,-1.8226,-1.9405,-1.9497,-1.9497,-1.9497,-1.9497,-1.9497,-1.9497,-1.9497,-1.9497,-1.9497,-1.9497,-1.9542,-1.9542,-1.9542,-2.0161,-2.3808,-2.4235,-2.4462,-2.4462,-2.3875,-2.318,-2.2792,-2.2111,-2.1534,-2.1176,-2.1109,-2.1109,-2.1109,-2.1109,-2.1176,-2.1376,-2.1561,-2.1722,-2.1951,-2.2231,-2.2605,-2.3113,-2.3794,-2.4262,-2.4356,-2.2707,-2.1601,-2.1601,-1.9704,-1.8572,-1.8572,-1.8572,-1.9176,-2.0466,-2.0389,-2.0144,-1.9804,-1.9654,-1.9409,-1.8997,-1.8997,-1.8997,-1.8997,-1.8997,-1.8997,-1.8997,-1.8369,-1.9217,-2.0756,-1.8143,-1.8052,-1.932,-1.7244,-1.6281,-1.5994,-1.5909,-1.5913,-1.5913,-1.5913,-1.6237,-1.6689,-1.6689,-1.6924,-1.7126,-1.6881,-1.8179,-1.9626,-1.9426,-1.943,-1.943,-1.943,-1.9292,-1.9172,-1.8971,-1.8624,-1.829,-1.8035,-1.7809,-1.7582,-1.7582,-1.7582,-1.7582,-1.7582,-1.7582,-1.7582,-1.7582,-1.7554,-1.742,-1.7233,-1.7045,-1.6844,-1.6593,-1.6486,-1.6405,-1.6427,-1.6386,-1.6574,-1.6936,-1.6969,-1.6969,-1.6969,-1.6969,-1.6969,-1.6969,-1.6969,-1.6969,-1.6969,-1.7855,-1.8688,-1.9497,-1.9497,-1.9724,-2.2926,-2.338,-2.3607,-2.3607,-2.3153,-2.2619,-2.2325,-2.1804,-2.1336,-2.1149,-2.1109,-2.1109,-2.1109,-2.1109,-2.1162,-2.1363,-2.1577,-2.1697,-2.1657,-2.2098,-2.2321,-2.2033,-2.3321,-2.3745,-2.2276,-2.1158,-2.0155,-1.9327,-1.7436,-1.6294,-1.6294,-1.6294,-1.6294,-1.6294,-1.7815,-1.836,-1.7905,-1.7895,-1.7683,-1.7178,-1.7178,-1.7178,-1.7178,-1.7178,-1.7178,-1.7178,-1.6474,-1.7248,0.0,-1.6202,-1.6069,-1.7365,-1.5379,-1.4373,-1.4112,-1.3976,-1.397,-1.397,-1.397,-1.4362,-1.4939,-1.4939,-1.5193,-1.5486,-1.5317,-1.6508,-1.779,-1.762,-1.7572,-1.7572,-1.7572,-1.7572,-1.7535,-1.7307,-1.7521,-1.7677,-1.7499,-1.7603,-1.7756,-1.7756,-1.7662,-1.7582,-1.7582,-1.7582,-1.7582,-1.7582,-1.7582,-1.7515,-1.7393,-1.7273,-1.7125,-1.6901,-1.6767,-1.6553,-1.6192,-1.6059,-1.5952,-1.5784,-1.5784,-1.5784,-1.5784,-1.5784,-1.5784,-1.5784,-1.5784,-1.5784,-1.5784,-1.6622,-1.7358,-1.8118,-1.8118,-1.8349,0.0,-2.2953,-2.3166,-2.3166,-2.2739,-2.2258,-2.1991,-2.1496,0.0,-2.1109,-2.1109,-2.1109,-2.1109,-2.0982,-2.0982,-2.1136,-2.1552,-2.1581,-2.1025,-2.1556,-2.1467,-2.004,-2.1965,-2.2017,-1.8461,-1.8301,-1.7588,-1.5616,-1.3645,-1.2501,-1.2501,-1.2501,-1.2501,-1.2501,-1.6227,-1.7986,-1.7467,-1.7457,-1.725,-1.6836,-1.6836,-1.6836,-1.6836,-1.6836,-1.6836,-1.6685,-1.4929,-1.5283,-1.6695,-1.3103,-1.2656,-1.4005,-1.1975,-1.1084,-1.0873,-1.0778,-1.0717,-1.0717,-1.0717,-1.1762,-1.3128,-1.3128,-1.4032,-1.5106,-1.5025,-1.479,-1.4619,-1.4609,-1.4599,-1.4599,-1.4599,-1.4599,-1.4599,-1.4599,-1.5481,-1.6344,-1.6344,-1.7049,-1.7738,-1.7859,-1.7662,-1.7503,-1.7622,-1.7595,-1.7582,-1.7582,-1.7582,-1.7582,-1.7582,-1.7393,-1.7233,-1.7233,-1.6941,-1.6767,-1.674,-1.6473,-1.6192,-1.5864,-1.5838,-1.5838,-1.5838,-1.5838,-1.5838,-1.5838,-1.5872,-1.5798,-1.5784,-1.5784,-1.5784,-1.5784,-1.5784,-1.6433,-2.1443,0.0,-2.163,-2.163,-2.1523,-2.1403,0.0,-2.1203,-2.1109,-2.1109,-2.1109,-2.1109,-2.1109,-2.0005,-1.9621,-2.121,-2.0679,-1.991,-1.9504,-1.8857,-1.9012,-2.0645,-2.0258,-1.949,-1.8567,-1.7104,-1.5989,-1.554,-1.3645,-1.2501,-1.2501,-1.2501,-1.2501,-1.2501,-1.3414,-1.3786,-1.346,-1.3453,-1.3286,-1.2888,-1.2888,-1.2888,-1.2888,-1.2888,-1.2888,-1.2888,-1.2466,-1.3309,-1.4858,-1.2538,-1.2723,-1.4119,-1.2018,-1.1138,-1.1084,-1.0819,-1.0717,-1.0717,-1.0717,-1.0982,-1.1306,-1.1306,-1.1454,-1.1702,-1.1656,-1.3091,-1.4751,-1.465,-1.4599,-1.4599,-1.4599,-1.4599,-1.4599,-1.4599,-1.4662,-1.4719,-1.4719,-1.4717,-1.5087,-1.6339,-1.6344,-1.6501,-1.7714,-1.7742,-1.7582,-1.7582,-1.7582,-1.7582,-1.7582,-1.7515,-1.7527,-1.7527,-1.7422,-1.7288,-1.7112,-1.678,-1.658,-1.65,-1.65,-1.65,-1.65,-1.65,-1.65,-1.65,-1.6286,-1.6059,-1.5784,-1.5784,-1.5784,-1.5784,-1.5784,-1.5974,-2.1109,-2.1203,-2.1309,-2.1309,-2.1309,-2.1309,-2.1309,-2.1203,-2.1109,-2.1109,-2.1109,-2.0856,-2.0068,-1.9152,-1.8623,-1.8959,-1.8464,-1.8039,-1.8171,-1.7663,-1.7612,-1.8326,-1.8506,-1.7891,-1.5998,-1.5616,-1.5081,-1.4176,-1.3112,-1.2501,-1.2501,-1.2501,-1.2501,-1.2501,-1.2501,-1.2359,-1.2067,-1.2135,-1.1911,-1.1619,-1.1619,-1.1619,-1.1619,-1.1619,-1.1619,-1.1619,-1.1619,-1.2187,-1.3024,-1.2043,-1.218,-1.3001,-1.1776,-1.1226,-1.1138,-1.0907,-1.0778,-1.0717,-1.0717,-1.0717,-1.0717,-1.0717,-1.0663,-1.0582,-1.0514,-1.1581,-1.2807,-1.2542,-1.2466,-1.2397,-1.2397,-1.2397,-1.2397,-1.2397,-1.2848,-1.329,-1.329,-1.3597,-1.4188,-1.5056,-1.4974,-1.5033,-1.5876,-1.5924,-1.5783,-1.5731,-1.5707,-1.5725,-1.5648,-1.5636,-1.5636,-1.5636,-1.6234,-1.6542,-1.639,-1.6833,-1.6994,-1.6727,-1.67,-1.67,-1.67,-1.67,-1.67,-1.67,-1.6553,-1.6326,-1.6032,-1.6032,-1.5965,-1.5784,-1.5784,-1.5784,-2.1162,-2.1197,-2.1266,-2.151,-2.1381,-2.12,-2.1161,-2.0695,-2.0322,-2.0322,-2.0322,-1.9877,-1.8372,-1.7893,-1.7346,-1.6145,-1.6038,-1.636,-1.7238,-1.6959,-1.6268,-1.5261,-1.6651,-1.6303,-1.2804,-1.4022,-1.4322,-1.2656,-1.2501,-1.2501,-1.2501,-1.2501,-1.2501,-1.2501,-1.2481,-1.2338,-1.2067,-1.2135,-1.1911,-1.1619,-1.1619,-1.1619,-1.1619,-1.1619,-1.1619,-1.1619,-1.1619,-1.1619,-1.1619,-1.1619,-1.1619,-1.1606,-1.145,-1.1301,-1.1214,-1.1002,-1.0853,-1.0717,-1.0717,-1.0717,-1.0717,-1.0717,-1.0717,-1.0697,-1.0568,-1.0514,-1.0439,-1.0188,-0.993,-0.9849,-0.9829,-0.9822,-0.9822,-0.9822,-1.0838,-1.1856,-1.1856,-1.2735,-1.3606,-1.3839,-1.3606,-1.3517,-1.3744,-1.3715,-1.3635,-1.3568,-1.3537,-1.3477,-1.3396,-1.3366,-1.3355,-1.3325,-1.4396,-1.5083,-1.5091,-1.6234,-1.6729,-1.6202,-1.6581,-1.6847,-1.6847,-1.6847,-1.682,-1.678,-1.6767,-1.6633,-1.6339,-1.6339,-1.6206,-1.5917,-1.5917,-1.5917,-2.148,-2.0562,-1.9862,-2.0913,-2.031,-1.9297,-1.9004,-1.7818,-1.6689,-1.6689,-1.6689,-1.6625,-1.6366,-1.5223,-1.4739,-1.6104,-1.5321,-1.5355,-1.7629,-1.5024,-1.3536,-1.5227,-1.4237,-1.319,-1.2579,-1.2811,-1.2804,-1.2501,-1.2501,-1.2501,-1.2501,-1.2501,-1.2501,-1.2501,-1.2386,-1.2237,-1.206,-1.2135,-1.1911,-1.1619,-1.1619,-1.1619,-1.1619,-1.1619,-1.1619,-1.1619,-1.1619,-1.1619,-1.1619,-1.1619,-1.1619,-1.1606,-1.145,-1.1301,-1.1214,-1.1002,-1.0853,-1.0717,-1.0717,-1.0717,-1.0717,-1.0717,-1.0717,-1.0717,-1.069,-1.0595,-1.048,-1.0439,-1.0229,-0.9923,-0.9856,-0.9822,-0.9822,-0.9822,-0.9997,-1.0179,-1.0179,-1.034,-1.0861,-1.2226,-1.2259,-1.253,-1.3915,-1.3871,-1.3685,-1.3645,-1.3645,-1.3635,-1.3652,-1.3652,-1.3582,-1.3457,-1.3658,-1.3751,-1.3609,-1.3804,-1.3933,-1.3805,-1.611,-1.7448,-1.7448,-1.7448,-1.738,-1.7139,-1.7139,-1.6941,-1.6647,-1.6647,-1.662,-1.6567,-1.6567,-1.6567,-1.8459,-1.808,-1.7851,-1.8422,-1.8172,-1.7792,-1.7606,-1.6796,-1.603,-1.603,-1.5939,-1.5589,-1.4688,-1.4019,-1.3712,-1.3788,-1.3278,-1.334,-1.4704,-1.3364,-1.2636,-1.3769,-1.3035,-1.2501,-1.2501,-1.2501,-1.2501,-1.2501,-1.2501,-1.2501,-1.2501,-1.2501,-1.2501,-1.2501,-1.2366,-1.2216,-1.206,-1.1979,-1.183,-1.1619,-1.1619,-1.1619,-1.1619,-1.1619,-1.1619,-1.1619,-1.1619,-1.1619,-1.1619,-1.1619,-1.1619,-1.1613,-1.1545,-1.1369,-1.1138,-1.0907,-1.0778,-1.0717,-1.0717,-1.0717,-1.0717,-1.0717,-1.0717,-1.0717,-1.0717,-1.067,-1.0595,-1.0514,-1.0337,-1.0141,-0.9923,-0.9883,-0.9862,-0.9842,-0.9822,-0.9822,-0.9822,-0.9822,-1.0004,-1.0778,-1.0778,-1.0965,-1.1725,-1.171,-1.1569,-1.1479,-1.1462,-1.1487,-1.1388,-1.1372,-1.1339,-1.1265,-1.1986,-1.2393,-1.2348,-1.2966,-1.3396,-1.3275,-1.5263,-1.6393,-1.6393,-1.7199,-1.7515,-1.7434,-1.7434,-1.7286,-1.6941,-1.6941,-1.686,-1.67,-1.67,-1.67,-1.5984,-1.5853,-1.5776,-1.5846,-1.5982,-1.6108,-1.6185,-1.5564,-1.4955,-1.5057,-1.4909,-1.444,-1.312,-1.3142,-1.3006,-1.189,-1.187,-1.2026,-1.2149,-1.2264,-1.2379,-1.2488,-1.2501,-1.2501,-1.2501,-1.2501,-1.2501,-1.2501,-1.2501,-1.2501,-1.2501,-1.2501,-1.2501,-1.2501,-1.2332,-1.2182,-1.206,-1.1877,-1.1728,-1.1619,-1.1619,-1.1619,-1.1619,-1.1619,-1.1619,-1.1619,-1.1619,-1.1619,-1.1619,-1.1619,-1.1619,-1.1619,-1.1619,-1.143,-1.1131,-1.0873,-1.0751,-1.0717,-1.0717,-1.0717,-1.0717,-1.0717,-1.0717,-1.0717,-1.0717,-1.0717,-1.0697,-1.0575,-1.0466,-1.0337,-1.0154,-1.0038,-1.0004,-0.991,-0.9876,-0.9863,-0.9829,-0.9822,-0.9822,-0.9822,-0.9822,-0.9822,-0.9822,-0.9822,-0.9781,-0.9673,-0.9659,-0.9618,-0.9496,-0.9483,-0.9469,-0.9435,-1.0411,-1.1017,-1.1035,-1.1977,-1.2478,-1.232,-1.3943,-1.4931,-1.4931,-1.6009,-1.6605,-1.6605,-1.6605,-1.6504,-1.6289,-1.6289,-1.6343,-1.6393,-1.6393,-1.6596,-1.6298,-1.5044,-1.378,-1.4104,-1.4094,-1.4044,-1.4297,-1.2951,-1.1635,-1.186,-1.1797,-1.1692,-1.1552,-1.1722,-1.1983,-1.2074,-1.2271,-1.2461,-1.2467,-1.2481,-1.2488,-1.2501,-1.2501,-1.2501,-1.2501,-1.2501,-1.2501,-1.2501,-1.2501,-1.2501,-1.2501,-1.2501,-1.2501,-1.2501,-1.2223,-1.2149,-1.2135,-1.1775,-1.1633,-1.1619,-1.1619,-1.1619,-1.1619,-1.1619,-1.1619,-1.1619,-1.1619,-1.1619,-1.1619,-1.1619,-1.1619,-1.1619,-1.1619,-1.143,-1.1145,-1.0989,-1.0839,-1.0717,-1.0717,-1.0717,-1.0717,-1.0717,-1.0717,-1.0717,-1.0717,-1.0717,-1.0717,-1.0704,-1.0697,-1.0622,-1.0337,-1.0263,-1.0222,-1.0004,-0.997,-0.993,-0.9849,-0.9822,-0.9822,-0.9822,-0.9822,-0.9822,-0.9822,-0.9822,-0.9815,-0.9808,-0.9802,-0.9802,-0.9788,-0.9788,-0.9741,-0.9605,-0.9651,-0.9707,-0.9562,-0.9657,-0.9638,-0.9483,-1.1964,-1.3426,-1.3426,-1.3534,-1.3588,-1.3588,-1.3588,-1.3578,-1.3567,-1.3567,-1.4255,-1.547,-1.547,-1.6225,-1.2823,-1.2394,-1.1939,-1.2274,-1.2365,-1.2388,-1.2543,-1.2023,-1.1504,-1.1708,-1.1633,-1.1558,-1.1647,-1.1755,-1.1911,-1.2162,-1.2372,-1.2501,-1.2501,-1.2501,-1.2501,-1.2501,-1.2501,-1.2501,-1.2501,-1.2501,-1.2501,-1.2501,-1.2501,-1.2501,-1.2501,-1.2501,-1.2501,-1.2501,-1.2311,-1.2155,-1.206,-1.1857,-1.1708,-1.1619,-1.1619,-1.1619,-1.1619,-1.1619,-1.1619,-1.1619,-1.1619,-1.1619,-1.1619,-1.1619,-1.1619,-1.1613,-1.1511,-1.1409,-1.1287,-1.1138,-1.0989,-1.0793,-1.0793,-1.0799,-1.0717,-1.0717,-1.0717,-1.0717,-1.0717,-1.0717,-1.0717,-1.0717,-1.0717,-1.067,-1.0466,-1.0412,-1.0378,-1.0229,-1.012,-0.997,-0.9916,-0.989,-0.9822,-0.9822,-0.9822,-0.9822,-0.9822,-0.9822,-0.9822,-0.9822,-0.9822,-0.9822,-0.9822,-0.9822,-0.9802,-0.9747,-0.9741,-0.968,-0.9537,-0.9523,-0.9456,-0.9364,-1.1044,-1.2037,-1.1919,-1.2832,-1.3318,-1.3318,-1.3318,-1.3318,-1.3318,-1.3318,-1.3588,-1.4073,-1.4073,-1.4395,-1.0717,-1.0799,-1.0853,-1.1131,-1.1287,-1.143,-1.1586,-1.1694,-1.1816,-1.2006,-1.1932,-1.1843,-1.1898,-1.1945,-1.2047,-1.2257,-1.2413,-1.2501,-1.2501,-1.2501,-1.2501,-1.2501,-1.2501,-1.2501,-1.2501,-1.2501,-1.2501,-1.2501,-1.2501,-1.2501,-1.2501,-1.2501,-1.2501,-1.2501,-1.2366,-1.2237,-1.2135,-1.1979,-1.183,-1.1687,-1.1687,-1.166,-1.1619,-1.1619,-1.1619,-1.1619,-1.1619,-1.1619,-1.1619,-1.1619,-1.1619,-1.1606,-1.1504,-1.1436,-1.1382,-1.1274,-1.1145,-1.1016,-1.1016,-1.0914,-1.0792,-1.0792,-1.0758,-1.0717,-1.0717,-1.0717,-1.0717,-1.0717,-1.0717,-1.0697,-1.0595,-1.0561,-1.0527,-1.0385,-1.0263,-1.0175,-1.0071,-1.0039,-0.9964,-0.9964,-0.9924,-0.989,-0.989,-0.9849,-0.9822,-0.9822,-0.9822,-0.9822,-0.9822,-0.9822,-0.9822,-0.9822,-0.9822,-0.9781,-0.9686,-0.968,-0.9612,-0.9462,-1.0263,-1.0658,-1.0493,-1.1461,-1.1982,-1.1919,-1.1919,-1.1919,-1.1919,-1.1919,-1.2136,-1.2615,-1.2615,-1.2832,-1.0717,-1.0724,-1.0724,-1.0724,-1.1063,-1.1436,-1.1592,-1.185,-1.2149,-1.244,-1.2386,-1.2244,-1.2169,-1.2189,-1.2291,-1.2291,-1.2413,-1.2501,-1.2501,-1.2501,-1.2501,-1.2501,-1.2501,-1.2501,-1.2501,-1.2501,-1.2501,-1.2501,-1.2501,-1.2501,-1.2501,-1.2501,-1.2501,-1.2501,-1.2366,-1.2291,-1.2291,-1.2142,-1.1986,-1.183,-1.183,-1.1755,-1.1619,-1.1619,-1.1619,-1.1619,-1.1619,-1.1619,-1.1619,-1.1619,-1.1619,-1.1619,-1.1619,-1.1525,-1.1396,-1.1396,-1.1294,-1.1234,-1.1234,-1.107,-1.088,-1.088,-1.0779,-1.0724,-1.0717,-1.0717,-1.0717,-1.0717,-1.0717,-1.0717,-1.0717,-1.0717,-1.0683,-1.0527,-1.0493,-1.0453,-1.031,-1.0283,-1.0283,-1.0283,-1.0154,-0.999,-0.999,-0.9862,-0.9822,-0.9822,-0.9822,-0.9822,-0.9822,-0.9822,-0.9822,-0.9822,-0.9822,-0.9822,-0.9822,-0.9822,-0.9761,-0.9618,-0.9612,-0.9476,-0.9221,-0.9214,-0.9089,-0.8892,-0.8885,-0.8885,-0.8885,-0.8885,-0.9644,-1.1055,-1.1055,-1.1864,-1.0717,-1.0873,-1.1056,-1.1165,-1.1531,-1.1904,-1.2054,-1.2162,-1.2277,-1.2461,-1.2386,-1.2277,-1.223,-1.2257,-1.2291,-1.2291,-1.2413,-1.2501,-1.2501,-1.2501,-1.2501,-1.2501,-1.2501,-1.2501,-1.2501,-1.2501,-1.2501,-1.2501,-1.2501,-1.2501,-1.2501,-1.2501,-1.2501,-1.2501,-1.2461,-1.2393,-1.2291,-1.2244,-1.2149,-1.1993,-1.1884,-1.1755,-1.1619,-1.1619,-1.1619,-1.1619,-1.1619,-1.1619,-1.1619,-1.1619,-1.1619,-1.1619,-1.1619,-1.1592,-1.1552,-1.1552,-1.1457,-1.1321,-1.1321,-1.1226,-1.1084,-1.0982,-1.0853,-1.0793,-1.0751,-1.0717,-1.0717,-1.0717,-1.0717,-1.0717,-1.0717,-1.0717,-1.0711,-1.0663,-1.0568,-1.048,-1.0439,-1.0351,-1.0283,-1.0283,-1.0243,-1.0209,-1.0209,-1.0086,-0.9916,-0.9916,-0.989,-0.9822,-0.9822,-0.9822,-0.9822,-0.9822,-0.9822,-0.9822,-0.9822,-0.9822,-0.9802,-0.9761,-0.9754,-0.9625,-0.9327,-0.9313,-0.9245,-0.9089,-0.9089,-0.9042,-0.8885,-0.8885,-0.9099,-0.9533,-0.9533,-0.9809,-1.0812,-1.1029,-1.1274,-1.1369,-1.1728,-1.2115,-1.2325,-1.2372,-1.24,-1.2481,-1.2433,-1.2372,-1.2372,-1.2372,-1.2372,-1.2372,-1.2447,-1.2501,-1.2501,-1.2501,-1.2501,-1.2501,-1.2501,-1.2501,-1.2501,-1.2501,-1.2501,-1.2501,-1.2501,-1.2501,-1.2501,-1.2501,-1.2501,-1.2501,-1.2501,-1.2461,-1.2372,-1.2372,-1.2298,-1.2149,-1.1993,-1.1843,-1.1701,-1.1647,-1.1619,-1.1619,-1.1619,-1.1619,-1.1619,-1.1619,-1.1619,-1.1619,-1.1619,-1.1619,-1.1619,-1.1619,-1.1558,-1.1484,-1.1484,-1.1382,-1.1226,-1.1084,-1.0995,-1.0853,-1.0765,-1.0717,-1.0717,-1.0717,-1.0717,-1.0717,-1.0717,-1.0717,-1.0717,-1.0717,-1.0649,-1.0582,-1.0582,-1.0514,-1.0453,-1.0453,-1.0405,-1.0365,-1.0365,-1.0243,-1.0141,-1.0141,-1.0012,-0.989,-0.9829,-0.9822,-0.9822,-0.9822,-0.9822,-0.9822,-0.9822,-0.9822,-0.9822,-0.9822,-0.9822,-0.9741,-0.9564,-0.9503,-0.9401,-0.9303,-0.9241,-0.9166,-0.9022,-0.8912,-0.8885,-0.8885,-0.8885,-0.8967,-1.0894,-1.1185,-1.1416,-1.1443,-1.1782,-1.2176,-1.244,-1.2501,-1.2501,-1.2501,-1.2501,-1.2501,-1.2501,-1.2501,-1.2501,-1.2501,-1.2501,-1.2501,-1.2501,-1.2501,-1.2501,-1.2501,-1.2501,-1.2501,-1.2501,-1.2501,-1.2501,-1.2501,-1.2501,-1.2501,-1.2501,-1.2501,-1.2501,-1.2501,-1.2501,-1.2501,-1.2501,-1.2501,-1.2433,-1.2311,-1.2142,-1.1986,-1.1843,-1.1687,-1.1619,-1.1619,-1.1619,-1.1619,-1.1619,-1.1619,-1.1619,-1.1619,-1.1619,-1.1619,-1.1619,-1.1619,-1.1619,-1.1619,-1.1619,-1.1531,-1.1382,-1.1219,-1.1077,-1.0867,-1.0772,-1.0717,-1.0717,-1.0717,-1.0717,-1.0717,-1.0717,-1.0717,-1.0717,-1.0717,-1.0717,-1.0717,-1.0717,-1.0717,-1.0717,-1.0717,-1.0609,-1.0514,-1.0514,-1.0392,-1.0297,-1.0283,-1.0161,-0.9957,-0.9883,-0.9863,-0.9856,-0.9842,-0.9842,-0.9836,-0.9822,-0.9822,-0.9822,-0.9822,-0.9822,-0.9822,-0.9822,-0.97,-0.9557,-0.9408,-0.9323,-0.9248,-0.9228,-0.9042,-0.8925,-0.8925,-0.8925,-0.9049,-1.1084,-1.1335,-1.1626,-1.1857,-1.2162,-1.2427,-1.2488,-1.2501,-1.2501,-1.2501,-1.2501,-1.2501,-1.2501,-1.2501,-1.2501,-1.2501,-1.2501,-1.2501,-1.2501,-1.2501,-1.2501,-1.2501,-1.2501,-1.2501,-1.2501,-1.2501,-1.2501,-1.2501,-1.2501,-1.2501,-1.2501,-1.2501,-1.2501,-1.2501,-1.2501,-1.2501,-1.2501,-1.2501,-1.2488,-1.2454,-1.2189,-1.2047,-1.2006,-1.1742,-1.1619,-1.1619,-1.1619,-1.1619,-1.1619,-1.1619,-1.1619,-1.1619,-1.1619,-1.1619,-1.1619,-1.1619,-1.1619,-1.1619,-1.1619,-1.1599,-1.1525,-1.1253,-1.1138,-1.107,-1.0799,-1.0717,-1.0717,-1.0717,-1.0717,-1.0717,-1.0717,-1.0717,-1.0717,-1.0717,-1.0717,-1.0717,-1.0717,-1.0717,-1.0717,-1.0717,-1.0697,-1.067,-1.067,-1.0548,-1.0412,-1.0297,-1.0249,-1.0215,-1.0188,-1.0181,-1.0134,-0.995,-0.9936,-0.9889,-0.9829,-0.9822,-0.9822,-0.9822,-0.9822,-0.9822,-0.9822,-0.9788,-0.9707,-0.9564,-0.953,-0.9449,-0.9334,-0.93,-0.9286,-0.9286,-0.9286,-0.9306,-1.1036,-1.1382,-1.1809,-1.2182,-1.2386,-1.2501,-1.2501,-1.2501,-1.2501,-1.2501,-1.2501,-1.2501,-1.2501,-1.2501,-1.2501,-1.2501,-1.2501,-1.2501,-1.2501,-1.2501,-1.2501,-1.2501,-1.2501,-1.2501,-1.2501,-1.2501,-1.2501,-1.2501,-1.2501,-1.2501,-1.2501,-1.2501,-1.2501,-1.2501,-1.2501,-1.2501,-1.2501,-1.2501,-1.2467,-1.24,-1.2169,-1.1986,-1.1843,-1.1687,-1.1619,-1.1619,-1.1619,-1.1619,-1.1619,-1.1619,-1.1619,-1.1619,-1.1619,-1.1619,-1.1619,-1.1619,-1.1619,-1.1619,-1.1619,-1.1619,-1.1579,-1.1348,-1.1219,-1.1124,-1.0894,-1.0778,-1.0717,-1.0717,-1.0717,-1.0717,-1.0717,-1.0717,-1.0717,-1.0717,-1.0717,-1.0717,-1.0717,-1.0717,-1.0717,-1.0717,-1.0717,-1.0717,-1.0717,-1.0656,-1.0555,-1.0405,-1.0378,-1.0358,-1.029,-1.0283,-1.0249,-1.0168,-1.0031,-0.9957,-0.9876,-0.9863,-0.9822,-0.9822,-0.9822,-0.9822,-0.9822,-0.9822,-0.9788,-0.9713,-0.9646,-0.9571,-0.949,-0.9415,-0.9381,-0.9381,-0.9381,-0.9422,-1.0489,-1.1074,-1.1938,-1.2386,-1.2501,-1.2501,-1.2501,-1.2501,-1.2501,-1.2501,-1.2501,-1.2501,-1.2501,-1.2501,-1.2501,-1.2501,-1.2501,-1.2501,-1.2501,-1.2501,-1.2501,-1.2501,-1.2501,-1.2501,-1.2501,-1.2501,-1.2501,-1.2501,-1.2501,-1.2501,-1.2501,-1.2501,-1.2501,-1.2501,-1.2501,-1.2501,-1.2501,-1.2474,-1.2406,-1.2291,-1.2108,-1.1884,-1.1619,-1.1619,-1.1619,-1.1619,-1.1619,-1.1619,-1.1619,-1.1619,-1.1619,-1.1619,-1.1619,-1.1619,-1.1619,-1.1619,-1.1619,-1.1619,-1.1619,-1.1619,-1.1592,-1.1443,-1.1307,-1.1172,-1.0613,-1.0624,-1.0725,-1.0358,-1.0485,-1.0751,-1.0724,-1.0717,-1.0717,-1.0717,-1.0717,-1.0717,-1.0717,-1.0717,-1.0717,-1.0717,-1.0717,-1.0717,-1.0717,-1.0717,-1.0677,-1.0548,-1.0527,-1.0487,-1.0371,-1.0358,-1.0344,-1.0317,-1.0202,-1.0051,-1.0031,-0.9889,-0.9863,-0.9863,-0.9836,-0.9822,-0.9822,-0.9822,-0.9822,-0.9822,-0.9707,-0.9646,-0.9646,-0.9517,-0.9456,-0.9456,-0.9456,-0.9523,-0.8967,-1.022,-1.1938,-1.2386,-1.2501,-1.2501,-1.2501,-1.2501,-1.2501,-1.2501,-1.2501,-1.2501,-1.2501,-1.2501,-1.2501,-1.2501,-1.2501,-1.2501,-1.2501,-1.2501,-1.2501,-1.2501,-1.2501,-1.2501,-1.2501,-1.2501,-1.2501,-1.2501,-1.2501,-1.2501,-1.2501,-1.2501,-1.2501,-1.2501,-1.2501,-1.2501,-1.2501,-1.2379,-1.2311,-1.2284,-1.1999,-1.1775,-1.1619,-1.1619,-1.1619,-1.1619,-1.1619,-1.1619,-1.1619,-1.1619,-1.1619,-1.1619,-1.1619,-1.1619,-1.1619,-1.1619,-1.1619,-1.1619,-1.1619,-1.1619,-1.1592,-1.1443,-1.1375,-1.1047,-0.9221,-0.9796,-1.0727,-0.8889,-0.9549,-1.082,-1.0758,-1.0717,-1.0717,-1.0717,-1.0717,-1.0717,-1.0717,-1.0717,-1.0717,-1.0717,-1.0717,-1.0717,-1.0717,-1.0717,-1.0711,-1.069,-1.069,-1.0683,-1.0663,-1.0663,-1.0609,-1.048,-1.0446,-1.0385,-1.0263,-1.0107,-0.9957,-0.9957,-0.9897,-0.9822,-0.9822,-0.9822,-0.9822,-0.9822,-0.9802,-0.9795,-0.9795,-0.9774,-0.9761,-0.9761,-0.9761,-0.9774,-0.8423,-1.0113,-1.1837,-1.2372,-1.2501,-1.2501,-1.2501,-1.2501,-1.2501,-1.2501,-1.2501,-1.2501,-1.2501,-1.2501,-1.2501,-1.2501,-1.2501,-1.2501,-1.2501,-1.2501,-1.2501,-1.2501,-1.2501,-1.2501,-1.2501,-1.2501,-1.2501,-1.2501,-1.2501,-1.2501,-1.2501,-1.2501,-1.2501,-1.2501,-1.2501,-1.2501,-1.2501,-1.2359,-1.2203,-1.2033,-1.1816,-1.1681,-1.1619,-1.1619,-1.1619,-1.1619,-1.1619,-1.1619,-1.1619,-1.1619,-1.0959,-0.9939,-0.9939,-0.9285,-0.8348,-0.8348,-0.8348,-0.8348,-0.8348,-0.8348,-0.8338,-0.8289,-0.823,-0.796,-0.7068,-0.7366,-0.7728,-0.6785,-0.719,-0.78,-0.7752,-0.7742,-0.7742,-0.7742,-0.7699,-0.7728,-0.7728,-0.9297,-1.0717,-1.0717,-0.9908,-0.951,-1.0518,-1.0717,-1.0717,-1.0717,-1.0717,-1.0717,-1.0717,-1.0717,-1.0697,-1.0629,-1.0541,-1.0071,-0.8975,-0.8718,-0.8196,-0.718,-0.7079,-0.7454,-0.8385,-0.8445,-0.8897,-0.9761,-0.9822,-0.9822,-0.9822,-0.9822,-0.9822,-0.9822,-0.9822,-0.9822,-0.7474,-0.9369,-1.0882,-1.1521,-1.2026,-1.24,-1.244,-1.2474,-1.2501,-1.2501,-1.2501,-1.2501,-1.2501,-1.2501,-1.2501,-1.2501,-1.2501,-1.2501,-1.2501,-1.2501,-1.2501,-1.2501,-1.2501,-1.2501,-1.2501,-1.2501,-1.2501,-1.2501,-1.2501,-1.2501,-1.2501,-1.2501,-1.2501,-1.2501,-1.2501,-1.2481,-1.2447,-1.2264,-1.204,-1.1775,-1.1674,-1.1619,-1.1619,-1.1619,-1.1619,-1.1619,-1.1619,-1.1619,-1.1619,-1.1619,-1.0743,-0.9357,-0.892,-0.7833,-0.646,-0.5953,-0.5808,-0.5808,-0.5808,-0.5808,-0.5808,-0.5808,-0.5699,-0.558,-0.5081,-0.5186,-0.5424,-0.4847,-0.5051,-0.5464,-0.5378,-0.5371,-0.5371,-0.5371,-0.575,-0.5974,-0.5522,-0.7828,-0.9981,-0.9981,-0.9305,-0.9105,-1.0452,-1.0717,-1.0717,-1.0717,-1.0717,-1.0717,-1.0717,-1.0717,-1.0518,-1.0047,-0.9952,-0.9163,-0.7323,-0.7029,-0.6387,-0.5033,-0.4899,-0.5489,-0.6688,-0.718,-0.7993,-0.9197,-0.9632,-0.9863,-0.9822,-0.9822,-0.9822,-0.9822,-0.9822,-0.9822,-0.5212,-0.7124,-0.8585,-0.9204,-1.0761,-1.2121,-1.2271,-1.2406,-1.2501,-1.2501,-1.2501,-1.2501,-1.2501,-1.2501,-1.2501,-1.2501,-1.2501,-1.2501,-1.2501,-1.2501,-1.2501,-1.2501,-1.2501,-1.2501,-1.2501,-1.2501,-1.2501,-1.2501,-1.2501,-1.2501,-1.2501,-1.2501,-1.2501,-1.2501,-1.2501,-1.2433,-1.2305,-1.2006,-1.1782,-1.1633,-1.1619,-1.1619,-1.1619,-1.1619,-1.1619,-1.1619,-1.1619,-1.1619,-1.1619,-1.1619,-1.1548,-1.1253,-0.943,-0.8631,-0.8343,-0.646,-0.5808,-0.5808,-0.5808,-0.5808,-0.5808,-0.5808,-0.5808,-0.5443,-0.3629,-0.4351,-0.5348,-0.3361,-0.4201,-0.553,-0.5461,-0.5371,-0.5371,-0.5371,-0.6831,-0.7612,-0.5803,-0.6836,-0.8163,-0.8163,-0.9437,-1.0585,-1.0651,-1.0717,-1.0717,-1.0717,-1.0717,-1.0717,-1.0717,-1.0717,-1.0047,-0.8302,-0.8158,-0.7422,-0.5689,-0.5353,-0.5178,-0.5112,-0.4978,-0.4935,-0.4999,-0.666,-0.7569,-0.7521,-0.9156,-0.9903,-0.9822,-0.9822,-0.9822,-0.9822,-0.9822,-0.9822,-0.3702,-0.5238,-0.6703,-0.7226,-0.7888,-0.8364,-0.8469,-0.9492,-1.0526,-1.0529,-1.156,-1.2501,-1.2501,-1.2501,-1.2501,-1.2501,-1.2501,-1.2501,-1.2501,-1.2501,-1.2501,-1.2501,-1.2501,-1.2501,-1.2501,-1.2501,-1.2501,-1.2501,-1.2501,-1.2501,-1.2501,-1.2501,-1.2501,-1.2501,-1.2501,-1.2386,-1.2149,-1.1938,-1.1762,-1.1619,-1.1619,-1.1619,-1.1619,-1.1619,-1.1619,-1.1619,-1.1619,-1.1619,-1.1619,-1.1619,-1.0887,-0.9646,-0.8992,-0.7905,-0.6604,-0.4649,-0.4721,-0.5591,-0.4358,-0.4721,-0.5591,-0.4358,-0.3923,-0.356,-0.1602,-0.153,-0.1891,-0.116,-0.1447,-0.2022,-0.1941,-0.1938,-0.222,-0.3475,-0.5302,-0.6469,-0.5801,-0.7082,-0.8665,-0.9831,-0.9555,-0.9502,-1.0665,-1.0785,-1.0717,-1.0717,-1.0717,-1.0246,-0.9105,-0.8972,-0.8302,-0.6498,-0.6364,-0.5629,-0.3823,-0.3606,-0.3064,-0.1934,-0.1776,-0.2218,-0.3323,-0.4002,-0.5315,-0.7511,-0.8073,-0.8847,-0.9822,-0.9822,-0.9822,-0.9822,-0.9822,-0.9822,-0.198,-0.3312,-0.4703,-0.5043,-0.5675,-0.6177,-0.6213,-0.7352,-0.835,-0.8334,-0.9998,-1.1482,-1.1482,-1.203,-1.2501,-1.2501,-1.2501,-1.2501,-1.2501,-1.2501,-1.2501,-1.2501,-1.2501,-1.2501,-1.2501,-1.2501,-1.2501,-1.2501,-1.2501,-1.2501,-1.2501,-1.2501,-1.2501,-1.2501,-1.2406,-1.2264,-1.206,-1.1864,-1.1735,-1.1687,-1.1687,-1.1721,-1.1769,-1.1714,-1.1687,-1.1687,-1.164,-1.1619,-1.1619,-1.1619,-1.0815,-0.9574,-0.892,-0.7905,-0.6532,-0.4576,-0.4721,-0.5591,-0.4286,-0.4286,-0.4649,-0.3342,-0.2472,-0.1675,-0.0365,0.0,0.0,0.0,0.0,-0.0146,-0.0802,-0.1457,-0.247,-0.4382,-0.5801,-0.6931,-0.7579,-0.8144,-0.8863,-1.0046,-0.9767,-0.9638,-1.0811,-1.0894,-1.0799,-1.0799,-1.0751,-1.0047,-0.823,-0.803,-0.7093,-0.476,-0.4492,-0.3756,-0.1948,-0.235,-0.1948,-0.0135,-0.06,-0.1391,-0.2516,-0.2557,-0.3901,-0.6721,-0.7297,-0.8032,-0.9032,-0.9564,-0.9822,-0.9822,-0.9822,-0.9822,0.0,0.0,0.0,-0.2785,-0.4262,-0.5629,-0.5779,-0.6012,-0.6211,-0.6294,-0.7963,-0.9366,-0.9371,-1.1095,-1.2501,-1.2424,-1.2424,-1.2501,-1.2501,-1.2501,-1.2501,-1.2501,-1.2501,-1.2501,-1.2501,-1.2501,-1.2501,-1.2501,-1.2501,-1.2501,-1.2501,-1.2501,-1.2501,-1.2501,-1.2223,-1.2142,-1.2142,-1.1775,-1.1701,-1.1837,-1.1837,-1.1918,-1.2054,-1.1904,-1.1837,-1.1823,-1.1687,-1.1619,-1.1619,-1.1619,-1.1619,-1.1397,-0.9502,-0.8776,-0.8559,-0.6604,-0.5953,-0.5953,-0.5881,-0.4649,-0.3054,-0.2979,-0.1675,-0.0073,0.0,0.0,0.0,0.0,0.0,-0.0438,-0.2328,-0.4286,-0.617,-0.8049,-0.8559,-0.9136,-1.1031,-0.9818,-0.8457,-0.8596,-0.9983,-1.1241,-1.1241,-1.105,-1.0887,-1.0819,-1.0759,-0.9987,-0.8107,-0.7969,-0.6627,-0.3023,-0.2685,-0.2016,-0.0202,-0.168,-0.1947,-0.0269,-0.1747,-0.2685,-0.2685,-0.2685,-0.3466,-0.5057,-0.6888,-0.7751,-0.7704,-0.9106,-0.9829,-0.9829,-0.9822,-0.9822,0.0,0.0,0.0,0.0,0.0,0.0,-0.1678,-0.2839,-0.441,-0.5964,-0.7991,-0.9406,-0.9423,-1.1095,-1.203,-1.0469,-1.1482,-1.2501,-1.2501,-1.2501,-1.2501,-1.2501,-1.2501,-1.2501,-1.2501,-1.2501,-1.2501,-1.2501,-1.2501,-1.2501,-1.2501,-1.2501,-1.2501,-1.2501,-1.2325,-1.223,-1.223,-1.204,-1.1959,-1.1999,-1.1999,-1.202,-1.2135,-1.202,-1.1938,-1.183,-1.1789,-1.1714,-1.1619,-1.1619,-1.1619,-1.1548,-1.1031,-1.0815,-1.0593,-0.8631,-0.8781,-0.9795,-0.8415,-0.7544,-0.6889,-0.5446,-0.3708,-0.1819,-0.0438,0.0,0.0,0.0,0.0,-0.0146,-0.0656,-0.2256,-0.3851,-0.4356,-0.5591,-0.6749,-0.7259,-0.6929,-0.7397,-1.0197,-1.105,-1.1328,-1.1328,-1.1206,-1.0616,-0.9228,-1.0085,-0.9211,-0.4759,-0.6441,-0.6116,-0.1295,-0.1892,-0.2484,-0.2016,-0.2417,-0.3021,-0.3823,-0.3155,-0.2685,-0.2685,-0.2685,-0.3548,-0.5265,-0.6924,-0.8443,-0.9709,-0.9989,-1.0093,-0.9923,-0.9869,-0.9822,0.0,0.0,0.0,0.0,0.0,0.0,0.0,-0.0905,-0.2131,-0.3439,-0.5353,-0.6755,-0.6766,-0.8479,-0.9552,-0.8274,-0.9138,-1.0546,-1.2263,-1.2501,-1.2501,-1.2501,-1.2501,-1.2501,-1.2501,-1.2501,-1.2501,-1.2501,-1.2501,-1.2501,-1.2501,-1.2501,-1.2501,-1.2501,-1.1504,-1.1441,-1.2291,-1.1302,-1.1258,-1.2155,-1.2155,-1.2189,-1.2244,-1.2182,-1.2108,-1.2013,-1.1884,-1.1782,-1.1701,-1.1647,-1.1619,-1.1619,-1.1619,-1.1619,-1.1476,-1.0305,-1.0083,-1.0233,-0.9064,-0.7616,-0.6094,-0.4939,-0.3272,-0.1456,-0.0365,0.0,0.0,0.0,-0.0583,-0.1239,-0.1239,-0.2619,-0.4141,-0.4141,-0.4939,-0.5808,-0.5808,-0.5808,-0.646,-0.8709,-0.9088,-0.904,-0.904,-0.8938,-0.8508,-0.7314,-0.8692,-0.8369,-0.4396,-0.5711,-0.5536,-0.159,-0.1436,-0.1897,-0.2641,-0.3367,-0.3957,-0.4225,-0.4024,-0.3488,-0.2752,-0.1947,-0.2417,-0.4225,-0.5185,-0.6551,-0.8399,-0.9665,-1.0236,-1.0141,-1.0053,-1.0012,0.0,0.0,0.0,0.0,0.0,0.0,0.0,0.0,-0.0071,-0.0297,-0.1799,-0.3095,-0.3093,-0.4844,-0.6205,-0.5964,-0.6142,-0.7636,-1.1637,-1.1953,-1.1953,-1.2424,-1.2269,-1.2263,-1.2501,-1.2501,-1.2501,-1.2501,-1.2501,-1.2501,-1.2501,-1.2501,-1.2501,-1.2501,-1.0355,-1.0145,-1.193,-0.9742,-0.9661,-1.1619,-1.1619,-1.1836,-1.2185,-1.206,-1.2076,-1.2277,-1.1986,-1.1843,-1.1823,-1.1681,-1.1619,-1.1619,-1.1619,-1.1619,-1.1548,-1.1345,-1.0179,-0.8646,-0.843,-0.5963,-0.2914,-0.2909,-0.1602,0.0,0.0,0.0,0.0,0.0,-0.1239,-0.2545,-0.2545,-0.3851,-0.5156,-0.5156,-0.5156,-0.5156,-0.5156,-0.5156,-0.5156,-0.5156,-0.5518,-0.5808,-0.5808,-0.5682,-0.5564,-0.535,-0.684,-0.7274,-0.5258,-0.5315,-0.482,-0.2805,-0.1178,-0.0961,-0.2536,-0.4192,-0.4492,-0.3088,-0.4292,-0.4359,-0.2752,-0.1142,-0.1076,-0.2685,-0.2887,-0.3823,-0.5429,-0.8286,-0.9723,-0.9723,-0.9704,-0.9697,0.0,0.0,0.0,0.0,0.0,0.0,0.0,0.0,-0.0471,-0.2153,-0.2818,-0.3077,-0.3084,-0.4853,-0.573,-0.3981,-0.5173,-0.7185,-0.9661,-0.8594,-0.875,-1.2108,-1.1011,-1.0624,-1.2347,-1.2501,-1.2501,-1.2501,-1.2501,-1.2501,-1.2501,-1.2501,-1.2501,-1.2501,-1.044,-0.9573,-0.9965,-0.7847,-0.6995,-0.7476,-0.7476,-0.8343,-0.9998,-0.9976,-1.0845,-1.2277,-1.2094,-1.1945,-1.1823,-1.1681,-1.1619,-1.1619,-1.1619,-1.1619,-1.1417,-0.9837,-0.9061,-0.847,-0.6929,-0.4867,-0.2874,-0.2917,-0.1602,0.0,0.0,0.0,0.0,0.0,-0.0292,-0.0583,-0.0583,-0.0875,-0.1166,-0.1166,-0.1166,-0.1166,-0.1166,-0.1166,-0.1166,-0.1166,-0.3635,-0.5808,-0.5808,-0.5798,-0.5207,-0.3692,-0.4935,-0.4914,-0.1516,-0.361,-0.4208,-0.0924,-0.1533,-0.2332,-0.2673,-0.3046,-0.3689,-0.4827,-0.3823,-0.3088,-0.2685,-0.235,-0.235,-0.2685,-0.4158,-0.5028,-0.5429,-0.5861,-0.6141,-0.6137,-0.6001,-0.5966,0.0,0.0,0.0,0.0,0.0,0.0,0.0,0.0,-0.0264,-0.1363,-0.1577,-0.1525,-0.1577,-0.2436,-0.2788,-0.1728,-0.2442,-0.3855,-0.5929,-0.7184,-0.8594,-1.0701,-0.9998,-1.023,-1.2269,-1.156,-1.1405,-1.2424,-1.2501,-1.2501,-1.2501,-1.2501,-1.203,-1.1017,-0.8905,-0.7894,-0.7894,-0.5786,-0.524,-0.6332,-0.6332,-0.6878,-0.7894,-0.7894,-0.8954,-1.0839,-1.0702,-1.1177,-1.1938,-1.187,-1.1796,-1.1728,-1.1728,-1.1062,-1.005,-0.9139,-0.7538,-0.5677,-0.4708,-0.3055,-0.1484,-0.1473,-0.0806,0.0,0.0,0.0,0.0,0.0,0.0,0.0,0.0,0.0,0.0,0.0,0.0,0.0,0.0,0.0,0.0,0.0,-0.1603,-0.291,-0.291,-0.291,-0.2547,-0.1602,-0.3038,-0.3607,-0.1673,-0.3018,-0.3428,-0.1657,-0.1417,-0.175,-0.2588,-0.2678,-0.3119,-0.4,-0.3234,-0.2283,-0.1411,-0.1344,-0.1344,-0.1344,-0.2216,-0.2685,-0.2685,-0.26,-0.3519,-0.5238,-0.5201,-0.5119,0.0,0.0,0.0,0.0,0.0,0.0,0.0,0.0,0.0,0.0,0.0,0.0,0.0,0.0,0.0,0.0,0.0,-0.0593,-0.2277,-0.581,-0.8342,-0.8789,-0.8425,-0.8983,-1.1089,-0.98,-0.964,-1.1714,-1.1901,-1.1741,-1.1327,-1.1721,-1.0934,-0.8905,-0.68,-0.5708,-0.5708,-0.3599,-0.3366,-0.5086,-0.5086,-0.5318,-0.5708,-0.5708,-0.68,-0.8823,-0.8636,-0.9461,-1.0964,-1.1314,-1.1386,-1.1209,-1.1209,-1.024,-0.8696,-0.7981,-0.5676,-0.288,-0.2502,-0.1282,0.0,0.0,0.0,0.0,0.0,0.0,0.0,0.0,0.0,0.0,0.0,0.0,0.0,0.0,0.0,0.0,0.0,0.0,0.0,0.0,0.0,0.0,0.0,0.0,0.0,0.0,-0.1311,-0.2328,-0.2328,-0.2328,-0.2328,-0.2328,-0.0936,-0.0572,-0.2071,-0.2165,-0.2203,-0.2203,-0.218,-0.1556,-0.0068,0.0,0.0,0.0,0.0,0.0,0.0,0.0,-0.1478,-0.4359,-0.4359,-0.4359,0.0,0.0,0.0,0.0,0.0,0.0,0.0,0.0,0.0,0.0,0.0,0.0,0.0,0.0,0.0,0.0,0.0,-0.007,-0.0352,-0.238,-0.4527,-0.6437,-0.4973,-0.4693,-0.68,-0.6823,-0.7481,-0.9594,-0.972,-0.8935,-0.7104,-0.875,-0.8828,-0.6722,-0.4615,-0.3443,-0.3443,-0.1411,-0.0471,-0.0706,-0.0706,-0.1646,-0.3443,-0.3443,-0.4615,-0.664,-0.648,-0.6517,-0.6812,-0.8554,-0.9259,-0.9249,-0.9249,-0.9099,-0.8436,-0.4886,-0.3301,-0.2688,-0.0923,-0.0154,0.0,0.0,0.0,0.0,0.0,0.0,0.0,0.0,0.0,0.0,0.0,0.0,0.0,0.0,0.0,0.0,0.0,0.0,0.0,0.0,0.0,0.0,0.0,0.0,0.0,0.0,-0.0219,-0.0365,-0.0365,-0.0365,-0.0365,-0.0365,-0.0144,-0.0072,-0.0286,-0.0282,-0.028,-0.028,-0.0279,-0.0208,0.0,0.0,0.0,0.0,0.0,0.0,0.0,0.0,-0.0202,-0.0605,-0.0605,-0.0605,0.0,0.0,0.0,0.0,0.0,0.0,0.0,0.0,0.0,0.0,0.0,0.0,0.0,0.0,0.0,0.0,0.0,0.0,0.0,-0.0785,-0.2051,-0.4159,-0.3665,-0.3462,-0.4318,-0.5591,-0.6679,-0.7569,-0.7608,-0.7237,-0.6325,-0.7111,-0.6644,-0.4537,-0.3599,-0.2506,-0.1333,-0.0471,0.0,0.0,0.0,-0.0471,-0.1333,-0.1333,-0.2419,-0.4415,-0.4345,-0.4927,-0.6077,-0.7001,-0.7356,-0.7081,-0.5954,-0.6208,-0.6865,-0.4019,-0.2255,-0.109,-0.0312,0.0,0.0,0.0,0.0,0.0,0.0,0.0,0.0,0.0,0.0,0.0,0.0,0.0,0.0,0.0,0.0,0.0,0.0,0.0,0.0,0.0,0.0,0.0,0.0,0.0,0.0,0.0,0.0,0.0,0.0,0.0,0.0,0.0,0.0,0.0,0.0,0.0,0.0,0.0,0.0,0.0,0.0,0.0,0.0,0.0,0.0,0.0,0.0,0.0,0.0,0.0,0.0,0.0,0.0,0.0,0.0,0.0,0.0,0.0,0.0,0.0,0.0,0.0,0.0,0.0,0.0,0.0,0.0,0.0,0.0,0.0,0.0,0.0,-0.0573,-0.2097,-0.225,-0.2483,-0.3021,-0.3988,-0.4774,-0.5416,-0.5406,-0.5202,-0.4608,-0.5148,-0.4444,-0.2349,-0.2271,-0.149,0.0,0.0,0.0,0.0,0.0,0.0,0.0,0.0,-0.0859,-0.2245,-0.2256,-0.3084,-0.4399,-0.5109,-0.5322,-0.5052,-0.3623,-0.3946,-0.4973,-0.3014,-0.1323,0.0,0.0,0.0,0.0,0.0,0.0,0.0,0.0,0.0,0.0,0.0,0.0,0.0,0.0,0.0,0.0,0.0,0.0,0.0,0.0,0.0,0.0,0.0,0.0,0.0,0.0,0.0,0.0,0.0,0.0,0.0,0.0,0.0,0.0,0.0,0.0,0.0,0.0,0.0,0.0,0.0,0.0,0.0,0.0,0.0,0.0,0.0,0.0,0.0,0.0,0.0,0.0,0.0,0.0,0.0,0.0,0.0,0.0,0.0,0.0,0.0,0.0,0.0,0.0,0.0,0.0,0.0,0.0,0.0,0.0,0.0,0.0,0.0,0.0,0.0,0.0,-0.0071,-0.0072,-0.0875,-0.291,-0.1354,-0.1005,-0.3088,-0.3212,-0.2352,-0.0313,-0.2094,-0.2246,-0.0157,-0.0079,-0.0079,0.0,0.0,0.0,0.0,0.0,0.0,0.0,0.0,0.0,-0.0078,-0.0078,-0.0154,-0.0385,-0.2355,-0.3174,-0.3172,-0.3096,-0.3174,-0.2947,-0.0833,-0.0076,0.0,0.0,0.0,0.0,0.0,0.0,0.0,0.0,0.0,0.0,0.0,0.0,0.0,0.0,0.0,0.0,0.0,0.0,0.0,0.0,0.0,0.0,0.0,0.0,0.0,0.0,0.0,0.0,0.0,0.0,0.0,0.0,0.0,0.0,0.0,0.0,0.0,0.0,0.0,0.0,0.0,0.0,0.0,0.0,0.0,0.0,0.0,0.0,0.0,0.0,0.0,0.0,0.0,0.0,0.0,0.0,0.0,0.0,0.0,0.0,0.0,0.0,0.0,0.0,0.0,0.0,0.0,0.0,0.0,0.0,0.0,0.0,0.0,0.0,0.0,0.0,0.0,0.0,-0.0283,-0.0982,-0.0421,-0.0285,-0.1031,-0.1076,-0.0723,0.0,-0.0687,-0.0689,0.0,0.0,0.0,0.0,0.0,0.0,0.0,0.0,0.0,0.0,0.0,0.0,0.0,0.0,0.0,-0.0076,-0.0758,-0.1054,-0.1046,-0.1037,-0.1034,-0.0962,-0.0226,0.0,0.0,0.0,0.0,0.0,0.0,0.0,0.0,0.0,0.0,0.0,0.0,0.0,0.0,0.0,0.0,0.0,0.0,0.0,0.0,0.0,0.0,0.0,0.0,0.0,0.0,0.0,0.0,0.0,0.0,0.0,0.0,0.0,0.0,0.0,0.0,0.0,0.0,0.0,0.0,0.0,0.0,0.0,0.0,0.0,0.0,0.0,0.0,0.0,0.0,0.0,0.0,0.0,0.0,0.0,0.0,-0.1222,-0.1076,-0.0927,-0.0211,0.0,0.0,0.0,0.0,0.0,0.0,0.0,0.0,0.0,0.0,0.0,0.0,0.0,0.0,0.0,0.0,0.0,0.0,0.0,0.0,0.0,0.0,0.0,0.0,0.0,0.0,0.0,0.0,0.0,0.0,0.0,0.0,0.0,0.0,0.0,0.0,0.0,0.0,0.0,0.0,0.0,0.0,0.0,0.0,0.0,0.0,0.0,0.0,0.0,0.0,0.0,0.0,0.0,0.0,0.0,0.0,0.0,0.0,0.0,0.0,0.0,0.0,0.0,0.0,0.0,0.0,0.0,0.0,0.0,0.0,0.0,0.0,0.0,0.0,0.0,0.0,0.0,0.0,0.0,0.0,0.0,0.0,0.0,0.0,0.0,0.0,0.0,0.0,0.0,0.0,0.0,0.0,0.0,0.0,0.0,0.0,0.0,0.0,0.0,0.0,0.0,0.0,0.0,0.0,0.0,0.0,0.0,0.0]},{"header":{"parameterUnit":"m.s-1","parameterCategory":1,"la1":30.6,"la2":29.2853,"lo1":-89.7004,"lo2":-87.6739,"dy":0.0162,"dx":0.0183,"nx":112,"ny":82,"refTime":"2026-04-10T12:00:00:Z","depth":0,"parameterNumber":3,"parameterNumberName":"V-component_of_WINDS"},"data":[0.0,0.0,0.0,0.0,0.0,0.0,0.0,0.0,0.0,0.0,0.0,0.0,0.0,0.0,0.0,0.0,0.0,0.0,0.0,0.0,0.0,0.0,0.0,0.0,0.0,0.0,0.0,0.0,0.0,0.0,0.0,0.0,0.0,0.0,0.0,0.0,0.0,0.0,0.0,0.0,0.0,0.0,0.0,0.0,0.0,0.0,0.0,0.0,0.0,0.0,0.0,0.0,0.0,0.0,0.0,0.0,0.0,0.0,0.0,0.0,0.0,0.0,0.0,0.0,0.0,0.0,0.0,0.0,0.0,0.0,0.0,0.0,0.0,0.0,0.0,0.0,0.0,0.0,0.0,0.0,0.0,0.0,0.0,0.0,0.0,0.0,0.0,0.0,0.0,0.0,0.9255,0.7923,0.693,0.6232,0.6032,0.4839,0.4073,0.3849,0.0,0.0,0.0,0.0,0.0,0.0,0.0,0.0,0.0,0.0,0.0,0.0,0.0,0.0,0.0,0.0,0.0,0.0,0.0,0.0,0.0,0.0,0.0,0.0,0.0,0.0,0.0,0.0,0.0,0.0,0.0,0.0,0.0,0.0,0.0,0.0,0.0,0.0,0.0,0.0,0.0,0.0,0.0,0.0,0.0,0.0,0.0,0.0,0.0,0.0,0.0,0.0,0.0,0.0,0.0,0.0,0.0,0.0,0.0,0.0,0.0,0.0,0.0,0.0,0.0,0.0,0.0,0.0,0.0,0.0,0.0,0.0,0.0,0.0,0.0,0.0,0.0,0.0,0.0,0.0,0.0,0.0,0.0,0.0,0.0,0.0,0.0,0.0,0.0,0.0,0.0,0.0,0.0,0.0,0.0,0.0,0.0,0.0,0.0,0.0,0.0,0.0,0.0,0.0,1.1127,0.9759,0.8484,0.7235,0.6082,0.5777,0.5422,0.4905,0.0,0.0,0.0,0.0,0.0,0.0,0.0,0.0,0.0,0.0,0.0,0.0,0.0,0.0,0.0,0.0,0.0,0.0,0.0,0.0,0.0,0.0,0.0,0.0,0.0,0.0,0.0,0.0,0.0,0.0,0.0,0.0,0.0,0.0,0.0,0.0,0.0,0.0,0.0,0.0,0.0,0.0,0.0,0.0,0.0,0.0,0.0,0.0,0.0,0.0,0.0,0.0,0.0,0.0,0.0,0.0,0.0,0.0,0.0,0.0,0.0,0.0,0.0,0.0,0.0,0.0,0.0,0.0,0.0,0.0,0.0,0.0,0.0,0.0,0.0,0.0,0.0,0.0,0.0,0.0,0.0,0.0,0.0,0.0,0.0,0.0,0.0,0.0,0.0,0.0,0.0,0.0,0.0,0.0,0.0,0.0,0.0,0.0,0.0,0.0,0.0,0.0,0.0,1.151,1.1316,1.1046,0.9854,0.8817,0.8216,0.7443,0.6762,0.6225,0.706,0.0,0.0,0.0,0.0,0.0,0.0,0.0,0.0,0.0,0.0,0.0,0.0,0.0,0.0,0.0,0.0,0.0,0.0,0.0,0.0,0.0,0.0,0.0,0.0,0.0,0.0,0.0,0.0,0.0,0.0,0.0,0.0,0.0,0.0,0.0,0.0,0.0,0.0,0.0,0.0,0.0,0.0,0.0,0.0,0.0,0.0,0.0,0.0,0.0,0.0,0.0,0.0,0.0,0.0,0.0,0.0,0.0,0.0,0.0,0.0,0.0,0.0,0.0,0.0,0.0,0.0,0.0,0.0,0.0,0.0,0.0,0.0,0.0,0.0,0.0,0.0,0.0,0.0,0.0,0.0,0.0,0.0,0.0,0.0,0.0,0.0,0.0,0.0,0.0,0.0,0.0,0.0,0.0,0.0,0.0,0.0,0.0,0.0,0.0,0.0,0.0,0.0,1.1977,1.1374,1.2276,1.1219,1.0435,1.0435,0.9067,0.8045,0.7606,0.8559,0.0,0.0,0.0,0.0,0.0,0.0,0.0,0.0,0.0,0.0,0.0,0.0,0.0,0.0,0.0,0.0,0.0,0.0,0.0,0.0,0.0,0.0,0.0,0.0,0.0,0.0,0.0,0.0,0.0,0.0,0.0,0.0,0.0,0.0,0.0,0.0,0.0,0.0,0.0,0.0,0.0,0.0,0.0,0.0,0.0,0.0,0.0,0.0,0.0,0.0,0.0,0.0,0.0,0.0,0.0,0.0,0.0,0.0,0.0,0.0,0.0,0.0,0.0,0.0,0.0,0.0,0.0,0.0,0.0,0.0,0.0,0.0,0.0,0.0,0.0,0.0,0.0,0.0,0.0,0.0,0.0,0.0,0.0,0.0,0.0,0.0,0.0,0.0,0.0,0.0,0.0,0.0,0.0,0.0,0.0,0.0,0.0,0.0,0.0,0.0,0.0,0.0,1.2722,1.2325,1.3632,1.2571,1.1755,1.1755,1.0319,0.9238,0.899,0.9173,0.0,0.0,0.0,0.0,0.0,0.0,0.0,0.0,0.0,0.0,0.0,0.0,0.0,0.0,0.0,0.0,0.0,0.0,0.0,0.0,0.0,0.0,0.0,0.0,0.0,0.0,0.0,0.0,0.0,0.0,0.0,0.0,0.0,0.0,0.0,0.0,0.0,0.0,0.0,0.0,0.0,0.0,0.0,0.0,0.0,0.0,0.0,0.0,0.0,0.0,0.0,0.0,0.0,0.0,0.0,0.0,0.0,0.0,0.0,0.0,0.0,0.0,0.0,0.0,0.0,0.0,0.0,0.0,0.0,0.0,0.0,0.0,0.0,0.0,0.0,0.0,0.0,0.0,0.0,0.0,0.0,0.0,0.0,0.0,0.0,0.0,0.0,0.0,0.0,0.0,0.0,0.0,0.0,0.0,0.0,0.0,0.0,0.0,0.0,0.0,0.0,0.0,1.3932,1.4151,1.5007,1.3932,1.3151,1.3151,1.1647,1.0535,1.0081,0.0,0.0,0.0,0.0,0.0,0.0,0.0,0.0,0.0,0.0,0.0,0.0,0.0,0.0,0.0,0.0,0.0,0.0,0.0,0.0,0.0,0.0,0.0,0.0,0.0,0.0,0.0,0.0,0.0,0.0,0.0,0.0,0.0,0.0,0.0,0.0,0.0,0.0,0.0,0.0,0.0,0.0,0.0,0.0,0.0,0.0,0.0,0.0,0.0,0.0,0.0,0.0,0.0,0.0,0.0,0.0,0.0,0.0,0.0,0.0,0.0,0.0,0.0,0.0,0.0,0.0,0.0,0.0,0.0,0.0,0.0,0.0,0.0,0.0,0.0,0.0,0.0,0.0,0.0,0.0,0.0,0.0,0.0,0.0,0.0,0.0,0.0,0.0,0.0,0.0,0.0,0.0,0.0,0.0,0.0,0.0,0.0,0.0,0.0,0.0,0.0,0.0,1.4615,1.5575,1.6395,1.6926,1.6189,1.5515,1.5162,1.3543,1.2103,1.1145,0.0,0.0,0.0,0.0,0.0,0.0,0.0,0.0,0.0,0.0,0.0,0.0,0.0,0.0,0.0,0.0,0.0,0.0,0.0,0.0,0.0,0.0,0.0,0.0,0.0,0.0,0.0,0.0,0.0,0.0,0.0,0.0,0.0,0.0,0.0,0.0,0.0,0.0,0.0,0.0,0.0,0.0,0.0,0.0,0.0,0.0,0.0,0.0,0.0,0.0,0.0,0.0,0.0,0.0,0.0,0.0,0.0,0.0,0.0,0.0,0.0,0.0,0.0,0.0,0.0,0.0,0.0,0.0,0.0,0.0,0.0,0.0,0.0,0.0,0.0,0.0,0.0,0.0,0.0,0.0,0.0,0.0,0.0,0.0,0.0,0.0,0.0,0.0,0.0,0.0,0.0,0.0,0.0,0.0,0.0,0.0,0.0,0.0,0.0,0.0,0.0,0.0,1.5934,1.7588,1.8994,1.9447,1.9497,1.8993,1.7824,1.5961,1.4077,0.0,0.0,0.0,0.0,0.0,0.0,0.0,0.0,0.0,0.0,0.0,0.0,0.0,0.0,0.0,0.0,0.0,0.0,0.0,0.0,0.0,0.0,0.0,0.0,0.0,0.0,0.0,0.0,0.0,0.0,0.0,0.0,0.0,0.0,0.0,0.0,0.0,0.0,0.0,0.0,0.0,0.0,0.0,0.0,0.0,0.0,0.0,0.0,0.0,0.0,0.0,0.0,0.0,0.0,0.0,0.0,0.0,0.0,0.0,0.0,0.0,0.0,0.0,0.0,0.0,0.0,0.0,0.0,0.0,0.0,0.0,0.0,0.0,0.0,0.0,0.0,0.0,0.0,0.0,0.0,0.0,0.0,0.0,0.0,0.0,0.0,0.0,0.0,0.0,0.0,0.0,0.0,0.0,0.0,0.0,0.0,0.0,0.0,0.0,0.0,0.0,0.0,0.0,1.679,1.8077,1.9056,1.9447,1.9497,1.9261,1.8611,1.7787,1.6614,1.4982,0.0,0.0,0.0,0.0,0.0,0.0,0.0,0.0,0.0,0.0,0.0,0.0,0.0,0.0,0.0,0.0,0.0,0.0,0.0,0.0,0.0,0.0,0.0,0.0,0.0,0.0,0.0,0.0,0.0,0.0,0.0,0.0,0.0,0.0,0.0,0.0,0.0,0.0,0.0,0.0,0.0,0.0,0.0,0.0,0.0,0.0,0.0,0.0,0.0,0.0,0.0,0.0,0.0,0.0,0.0,0.0,0.0,0.0,0.0,0.0,0.0,0.0,0.0,0.0,0.0,0.0,0.0,0.0,0.0,0.0,0.0,0.0,0.0,0.0,0.0,0.0,0.0,0.0,0.0,0.0,0.0,0.0,0.0,0.0,0.0,0.0,0.0,0.0,0.0,0.0,0.0,0.0,0.0,0.0,0.0,0.0,0.0,0.0,0.0,0.0,0.0,0.0,1.7923,1.9274,2.0315,2.0891,2.0944,2.0632,1.9898,1.9401,1.8345,1.6486,0.0,0.0,0.0,0.0,0.0,0.0,0.0,0.0,0.0,0.0,0.0,0.0,0.0,0.0,0.0,0.0,0.0,0.0,0.0,0.0,0.0,0.0,0.0,0.0,0.0,0.0,0.0,0.0,0.0,0.0,0.0,0.0,0.0,0.0,0.0,0.0,0.0,0.0,0.0,0.0,0.0,0.0,0.0,0.0,0.0,0.0,0.0,0.0,0.0,0.0,0.0,0.0,0.0,0.0,0.0,0.0,0.0,0.0,0.0,0.0,0.0,0.0,0.0,0.0,0.0,0.0,0.0,0.0,0.0,0.0,0.0,0.0,0.0,0.0,0.0,0.0,0.0,0.0,0.0,0.0,0.0,0.0,0.0,0.0,0.0,0.0,0.0,0.0,0.0,0.0,0.0,0.0,0.0,0.0,0.0,0.0,0.0,0.0,0.0,0.0,0.0,0.0,1.9134,2.0824,2.2187,2.2945,2.3081,2.2668,2.1514,2.0777,1.9424,1.7259,0.0,0.0,0.0,0.0,0.0,0.0,0.0,0.0,0.0,0.0,0.0,0.0,0.0,0.0,0.0,0.0,0.0,0.0,0.0,0.0,0.0,0.0,0.0,0.0,0.0,0.0,0.0,0.0,0.0,0.0,0.0,0.0,0.0,0.0,0.0,0.0,0.0,0.0,0.0,0.0,0.0,0.0,0.0,0.0,0.0,0.0,0.0,0.0,0.0,0.0,0.0,0.0,0.0,0.0,0.0,0.0,0.0,0.0,0.0,0.0,3.2973,3.2672,0.0,0.0,0.0,0.0,0.0,0.0,0.0,0.0,0.0,0.0,0.0,0.0,0.0,0.0,0.0,0.0,0.0,0.0,0.0,0.0,0.0,0.0,0.0,0.0,0.0,0.0,0.0,0.0,0.0,0.0,0.0,0.0,0.0,0.0,0.0,0.0,0.0,0.0,0.0,0.0,1.96,2.0993,2.209,2.2598,2.2906,2.2877,2.2313,2.1813,2.0751,1.89,1.7331,0.0,0.0,0.0,0.0,0.0,0.0,0.0,0.0,0.0,0.0,0.0,0.0,0.0,0.0,0.0,0.0,0.0,0.0,0.0,0.0,0.0,0.0,0.0,0.0,0.0,0.0,0.0,0.0,0.0,0.0,0.0,0.0,0.0,0.0,0.0,0.0,0.0,0.0,0.0,0.0,0.0,0.0,0.0,0.0,0.0,0.0,0.0,0.0,0.0,0.0,0.0,0.0,0.0,0.0,0.0,0.0,0.0,0.0,0.0,3.5394,3.4553,0.0,0.0,0.0,0.0,0.0,0.0,0.0,0.0,0.0,0.0,0.0,0.0,0.0,0.0,0.0,0.0,0.0,0.0,0.0,0.0,0.0,0.0,0.0,0.0,0.0,0.0,0.0,0.0,0.0,0.0,0.0,0.0,0.0,0.0,0.0,0.0,0.0,0.0,0.0,0.0,2.0467,2.1583,2.2514,2.3138,2.2995,2.2906,2.3177,2.2837,2.2028,2.069,1.9222,0.0,0.0,0.0,0.0,0.0,0.0,0.0,0.0,0.0,0.0,0.0,0.0,0.0,0.0,0.0,0.0,0.0,0.0,0.0,0.0,0.0,0.0,0.0,0.0,0.0,0.0,0.0,0.0,0.0,0.0,0.0,0.0,0.0,0.0,0.0,0.0,0.0,0.0,0.0,0.0,0.0,0.0,0.0,0.0,0.0,0.0,0.0,0.0,0.0,0.0,0.0,0.0,0.0,4.0001,4.0061,4.0061,4.0061,4.0061,3.9964,3.7996,3.6939,3.6554,3.6002,0.0,0.0,0.0,0.0,0.0,0.0,0.0,0.0,0.0,0.0,0.0,0.0,0.0,0.0,0.0,0.0,0.0,0.0,0.0,0.0,0.0,0.0,3.1427,3.1119,3.1218,3.029,2.6297,0.0,0.0,0.0,0.0,0.0,0.0,0.0,0.0,0.0,0.0,0.0,2.1165,2.2273,2.3221,2.3985,2.337,2.3245,2.4052,2.3731,2.3115,2.2306,2.114,1.9505,0.0,0.0,0.0,0.0,0.0,0.0,0.0,0.0,0.0,0.0,0.0,0.0,0.0,0.0,0.0,0.0,0.0,0.0,0.0,0.0,0.0,0.0,0.0,0.0,0.0,0.0,0.0,0.0,0.0,0.0,0.0,0.0,3.6604,3.8941,0.0,0.0,0.0,0.0,0.0,0.0,0.0,0.0,0.0,0.0,0.0,0.0,0.0,4.1996,4.1361,4.2438,4.2677,4.2021,4.2551,4.2781,4.2781,4.2781,4.2781,4.2722,4.1897,0.0,3.896,3.8871,0.0,0.0,0.0,0.0,0.0,0.0,0.0,0.0,0.0,0.0,0.0,0.0,0.0,0.0,0.0,0.0,0.0,0.0,0.0,0.0,0.0,0.0,3.3787,3.4584,3.3813,3.2762,3.2127,2.8437,2.5099,2.4564,2.248,2.0579,0.0,0.0,0.0,0.0,0.0,0.0,2.0907,2.2694,2.4044,2.4177,2.4359,2.4544,2.4679,2.4338,2.3844,2.3327,2.2434,2.1621,2.0941,1.8963,0.0,0.0,0.0,0.0,0.0,0.0,0.0,0.0,0.0,0.0,0.0,0.0,0.0,0.0,0.0,0.0,0.0,0.0,0.0,0.0,0.0,0.0,0.0,0.0,0.0,0.0,0.0,0.0,0.0,3.7132,3.8805,3.9632,3.9347,3.9195,0.0,0.0,0.0,0.0,0.0,0.0,0.0,0.0,0.0,4.3524,4.4201,4.4641,4.4918,4.5008,4.4977,4.4947,4.5183,4.5336,4.5336,4.5897,4.6202,4.6133,4.5311,4.4213,4.289,4.0805,3.9589,3.8865,0.0,0.0,0.0,0.0,3.4945,3.4981,3.5094,3.5511,3.5915,3.5537,0.0,0.0,0.0,0.0,0.0,0.0,0.0,3.2156,3.2992,3.4014,3.4938,3.5392,3.499,3.4493,3.4493,3.2103,2.9553,2.8174,2.6486,2.4631,2.2776,2.1834,0.0,0.0,0.0,2.2724,2.2765,2.3856,2.4752,2.4955,2.4672,2.4693,2.5187,2.5093,2.4807,2.4371,2.3735,2.3052,2.2365,2.0906,2.0003,0.0,0.0,0.0,0.0,0.0,0.0,0.0,0.0,0.0,0.0,0.0,0.0,0.0,0.0,0.0,0.0,0.0,0.0,0.0,0.0,0.0,0.0,0.0,0.0,0.0,0.0,0.0,0.0,3.96,4.098,4.0836,4.1472,4.1717,0.0,0.0,0.0,0.0,0.0,0.0,4.4464,4.5082,4.5963,4.7173,4.7565,4.8113,4.8832,4.8254,4.8009,4.8083,4.8083,4.7989,4.7832,4.8567,4.8909,4.8871,4.7959,4.7268,4.6504,4.2713,4.0756,4.0098,3.9409,3.8417,3.7368,3.7193,3.7285,3.7529,3.7817,3.8571,3.9245,3.8723,3.7798,3.6471,3.4658,0.0,0.0,0.0,0.0,3.3454,3.3714,3.4617,3.5519,3.5519,3.5519,3.5519,3.5519,3.4617,3.3202,3.1269,2.991,2.8338,2.5932,2.4671,0.0,2.2051,2.3182,2.4193,2.4284,2.4939,2.548,2.5793,2.5198,2.5088,2.5768,2.5841,2.5709,2.5394,2.5054,2.4571,2.3839,2.2821,2.2161,2.1836,0.0,0.0,0.0,0.0,0.0,0.0,0.0,0.0,0.0,0.0,0.0,0.0,0.0,0.0,0.0,0.0,0.0,0.0,0.0,0.0,0.0,0.0,0.0,0.0,0.0,0.0,0.0,0.0,0.0,4.3797,4.5216,0.0,0.0,0.0,0.0,4.3331,4.5242,4.6778,4.7637,4.9687,5.1155,5.193,5.3382,5.3675,5.2708,5.3362,5.2872,5.1261,5.1261,5.087,5.0224,5.0262,5.0301,5.0269,4.9565,4.9245,4.8903,4.4839,4.2791,4.2201,4.1542,4.1205,4.1047,4.0382,4.0734,4.1395,4.0742,4.1135,4.1917,4.1789,3.9913,3.7498,3.6816,3.4895,0.0,0.0,3.4152,3.4187,3.5136,3.5457,3.5519,3.5519,3.5519,3.5519,3.5519,3.5457,3.4928,3.3347,3.1415,2.9794,2.8983,0.0,2.6358,2.4823,2.5134,2.5202,2.44,2.5551,2.643,2.6455,2.6421,2.6386,2.6455,2.6455,2.6455,2.643,2.6405,2.638,2.6311,2.4939,2.428,2.4571,2.2732,0.0,0.0,0.0,0.0,0.0,0.0,0.0,0.0,0.0,0.0,0.0,0.0,0.0,0.0,0.0,0.0,0.0,0.0,0.0,0.0,0.0,0.0,0.0,0.0,0.0,0.0,0.0,0.0,4.769,4.8573,0.0,4.8149,4.8001,4.81,4.8395,4.9588,5.0859,5.2135,5.2944,5.3721,5.4465,5.504,5.5102,5.4749,5.4299,5.378,5.3177,5.3177,5.2785,5.21,5.2792,5.2848,5.2312,5.1408,5.0761,5.0203,4.8066,4.6304,4.483,4.4141,4.3216,4.2339,4.2704,4.2681,4.2509,4.2816,4.2872,4.2591,4.1629,4.0641,3.9597,3.8403,3.7396,3.6663,3.6457,3.6004,3.5688,3.6052,3.5818,3.5519,3.5519,3.5519,3.5519,3.5519,3.5519,3.5332,3.4804,3.3296,3.1907,3.1343,2.9987,2.8454,2.7026,2.6869,2.6652,2.5806,2.6177,2.6499,2.6499,2.6499,2.6499,2.6499,2.6499,2.6499,2.6499,2.6499,2.6499,2.6499,2.5999,2.5592,2.5335,2.4293,2.2898,0.0,0.0,0.0,0.0,0.0,0.0,0.0,0.0,0.0,0.0,0.0,0.0,0.0,0.0,0.0,0.0,0.0,0.0,0.0,0.0,0.0,0.0,0.0,0.0,0.0,4.7113,4.9512,5.0109,5.1448,5.1933,5.0951,5.1464,5.1999,5.2334,5.3044,5.3991,5.5277,5.5344,5.5683,5.6427,5.6461,5.6461,5.6461,5.5746,5.5247,5.5015,5.5015,5.4616,5.3953,5.439,5.4329,5.3822,5.2866,5.2187,5.1688,5.0758,4.9559,4.8117,4.6205,4.4625,4.349,4.3783,4.3742,4.3603,4.4643,4.4529,4.3838,4.289,4.2055,4.1263,4.0227,3.9377,3.8611,3.8016,3.7191,3.6477,3.6477,3.5998,3.5519,3.5519,3.5519,3.5519,3.5519,3.5519,3.5519,3.5519,3.442,3.3372,3.315,3.1724,3.0334,2.9465,2.9056,2.8539,2.7785,2.7412,2.7156,2.6918,2.6645,2.6499,2.6499,2.6499,2.6499,2.6499,2.6323,2.6197,2.6197,2.6047,2.5737,2.5335,2.46,2.3351,2.1521,0.0,0.0,0.0,0.0,0.0,0.0,0.0,0.0,0.0,0.0,0.0,0.0,0.0,0.0,0.0,0.0,0.0,0.0,0.0,0.0,0.0,0.0,0.0,4.6689,4.927,5.1177,5.1074,5.3878,5.4905,5.2672,5.4465,5.548,5.4702,5.5378,5.6122,5.6799,5.6867,5.7171,5.7881,5.7881,5.7881,5.7881,5.7881,5.7543,5.6833,5.6833,5.6461,5.5716,5.4972,5.46,5.4566,5.3822,5.3518,5.345,5.2672,5.2334,5.1899,4.7663,4.559,4.4805,4.3849,4.409,4.5096,4.6155,4.6193,4.5737,4.5703,4.4164,4.2381,4.2352,4.0662,3.8804,3.8772,3.7689,3.6507,3.6507,3.5998,3.5519,3.5519,3.5519,3.5519,3.5519,3.5519,3.5519,3.5519,3.4706,3.4109,3.4465,3.3058,3.196,3.2191,3.1556,0.0,3.0127,2.9315,2.8497,2.7848,2.7053,2.6602,2.6602,2.6602,2.6602,2.6602,2.6013,2.5678,2.5711,2.5174,2.4897,2.4897,2.3759,2.2652,2.1574,0.0,0.0,0.0,0.0,0.0,0.0,0.0,0.0,0.0,0.0,0.0,0.0,0.0,0.0,0.0,0.0,0.0,0.0,0.0,0.0,0.0,4.8265,5.0116,4.9838,5.2457,5.4624,5.5093,5.6419,5.6833,5.5683,5.6596,5.7002,5.6258,5.7374,5.7949,5.7611,5.8118,5.8254,5.7915,5.7881,5.7881,5.7881,5.7881,5.778,5.7577,5.7577,5.7205,5.6461,5.575,5.5108,5.4566,5.3822,5.3518,5.3484,5.3281,5.2841,5.2099,4.9826,4.8392,4.7615,4.7469,4.7638,4.7801,4.7582,4.7049,4.6413,4.5872,4.4913,4.3848,4.3234,4.213,4.0958,4.0333,3.8693,3.7165,3.7165,3.6327,3.5519,3.5519,3.5519,3.5519,3.5519,3.5519,3.5519,3.5519,3.4706,3.4254,3.5058,3.4419,3.3586,3.3024,3.2331,3.1569,3.0809,3.0516,3.0129,2.946,2.9176,2.8822,2.8325,2.8298,2.8298,2.8298,2.77,2.7566,2.8029,2.7458,2.7131,2.7131,2.5467,2.4044,0.0,0.0,0.0,0.0,0.0,0.0,0.0,0.0,0.0,0.0,0.0,0.0,0.0,0.0,0.0,0.0,0.0,0.0,0.0,0.0,0.0,0.0,5.1529,5.3601,5.3902,5.5232,5.6562,5.7611,5.8118,5.8321,5.8186,5.8558,5.8626,5.822,5.8998,5.9268,5.8829,5.9235,5.9133,5.8389,5.8355,5.822,5.7881,5.7881,5.7881,5.7881,5.7881,5.7679,5.7239,5.6494,5.5784,5.5006,5.4296,5.3788,5.3518,5.3518,5.3213,5.2605,0.0,0.0,0.0,0.0,4.8096,4.8351,4.7916,4.753,4.7158,4.6413,4.5669,4.4936,4.4106,4.3229,4.2458,4.1917,4.038,3.882,3.8542,3.7679,3.6847,3.6538,3.6227,3.5943,3.5943,3.5718,3.5519,3.5519,3.5034,0.0,3.5392,3.4839,3.425,3.4182,3.3827,3.3313,3.2573,3.2155,3.1665,3.1011,3.0601,3.0155,2.9481,2.9421,0.0,0.0,0.0,2.8146,2.829,2.7928,0.0,0.0,0.0,0.0,0.0,0.0,0.0,0.0,2.1733,2.1238,0.0,0.0,0.0,0.0,0.0,0.0,0.0,0.0,0.0,0.0,0.0,0.0,0.0,0.0,0.0,0.0,5.5074,5.7205,5.8017,5.7577,5.7679,5.8998,5.9133,5.9404,6.0047,6.0114,6.0114,6.0114,6.0182,6.0216,6.0114,6.0182,0.0,0.0,0.0,5.866,5.7881,5.7881,5.7881,5.7881,5.7881,5.7881,5.7848,5.7137,5.6393,5.5683,5.4905,5.416,5.3518,5.3518,5.345,5.3146,5.0858,4.9523,4.8661,4.7059,4.7036,4.777,4.777,0.0,0.0,4.7022,4.6312,4.5568,4.4818,4.4006,4.3323,4.3323,4.2187,4.086,4.0092,3.9388,3.8713,3.7982,3.7233,3.6691,3.66,3.6071,3.5587,3.5519,3.5519,3.5519,3.5519,3.4773,3.4476,3.5359,3.5519,3.528,3.4713,3.3924,3.3206,3.2507,3.1805,0.0,3.0443,3.0331,3.0019,2.9425,2.8873,2.8318,2.7703,2.7731,2.7731,2.7675,2.7587,2.7501,2.7417,2.661,2.6179,2.603,2.3189,2.2397,0.0,0.0,0.0,0.0,0.0,0.0,0.0,0.0,0.0,0.0,0.0,0.0,0.0,0.0,0.0,5.4702,5.6528,5.8152,5.9471,5.9539,5.9573,5.9844,5.9877,5.9945,6.008,6.0114,6.0114,6.0114,6.0689,6.0791,6.0148,6.0723,6.0452,5.9066,5.9032,5.866,5.7881,5.7881,5.7881,5.7881,5.7881,0.0,5.7848,5.7137,5.6393,5.5683,5.4905,5.416,5.3518,5.3518,5.3112,5.2402,5.1326,5.0452,4.9712,4.8813,4.8576,4.8736,4.8736,4.8357,4.78,4.7022,4.6312,4.5568,4.4818,4.4006,0.0,4.3323,4.2187,4.086,4.0092,3.9388,3.8713,3.7982,3.7706,3.7381,3.6722,3.6508,3.6228,3.5619,3.5519,3.5519,3.5519,3.5359,3.5294,3.5457,3.5519,3.5459,3.531,3.515,3.4785,3.4131,3.3915,3.3524,3.2874,3.2312,3.1958,3.181,3.122,3.0571,2.9921,3.0394,3.0423,2.9891,2.932,2.8713,2.8197,2.7417,2.6731,2.6056,2.4765,2.4249,0.0,0.0,0.0,0.0,0.0,0.0,0.0,0.0,0.0,0.0,0.0,5.1589,5.2706,0.0,5.5615,5.7137,5.8626,5.9844,6.0588,6.1028,6.1095,6.0757,6.0689,6.0858,6.1197,6.1231,6.1231,6.1231,6.1603,6.167,6.1264,6.1637,6.1332,6.0182,5.9776,5.9201,5.8457,5.8084,5.7881,5.7881,5.7881,5.7881,5.7881,5.7509,5.6765,5.5647,5.531,5.4532,5.3518,5.3518,5.3281,5.2841,5.2063,5.1082,5.0067,4.9695,4.9323,4.9018,4.9018,4.8781,4.8342,4.7597,4.6853,4.6109,4.5365,4.4601,4.3948,4.3948,4.3385,4.2624,4.1869,4.1111,4.0446,3.9693,3.893,3.8246,3.7844,3.7469,3.7115,3.6723,3.6321,3.607,3.607,3.575,3.5519,3.5519,3.5519,3.5519,3.5519,3.5519,3.537,3.504,3.4981,3.4711,3.4053,3.3395,3.2856,3.2497,3.2168,3.169,3.1032,3.1331,3.1331,3.1002,3.0658,3.0308,2.9955,2.9172,2.8607,2.8183,2.731,2.6285,0.0,0.0,0.0,0.0,0.0,0.0,0.0,5.0439,5.142,5.2334,5.3484,5.4769,5.6122,5.7306,5.8423,5.9302,6.0486,6.1366,6.1501,6.2009,6.2178,6.1569,6.1501,6.1738,6.2347,6.2381,6.2381,6.2381,6.2381,6.2381,6.2381,6.2381,6.2042,6.1332,6.0655,5.9911,5.9032,5.8423,5.8017,5.7881,5.7881,5.7881,5.7881,5.7881,5.7103,5.5647,5.5412,5.46,5.3518,5.3518,5.3518,5.345,5.2807,5.1725,5.0473,5.0202,4.9729,4.9187,4.9052,4.9018,4.8883,4.8142,4.7496,4.6853,4.5974,4.5297,4.4784,4.4649,4.4615,4.4384,4.3606,4.2861,4.2117,4.1373,4.0146,3.9069,3.8935,3.8442,3.7994,3.7822,3.7263,3.6813,3.6813,3.6352,3.5846,3.5552,3.5519,3.5519,3.5519,3.5519,3.5519,3.5519,3.5519,3.522,3.4563,3.3993,3.3335,3.2557,3.2527,3.2198,3.154,3.1511,3.1511,3.1511,3.1511,3.1511,3.1511,3.0837,3.045,3.0269,2.9566,2.8189,5.2458,5.1064,5.0201,5.0697,5.0881,5.1826,0.0,5.5446,5.548,5.6867,5.7273,5.7645,5.849,5.8795,5.937,6.0825,6.1197,6.1535,6.2178,6.2347,6.2347,6.2279,6.2279,6.2313,6.2381,6.2381,6.2381,6.2381,6.2381,6.2381,6.2381,6.2381,6.2042,6.1332,6.1231,6.0486,5.9032,5.893,5.8558,5.7881,5.7881,5.7881,5.7881,5.7881,5.7103,5.5614,5.4329,5.3653,5.3518,5.3518,5.3518,5.3484,5.3416,5.2841,5.1894,5.0574,5.0033,4.9864,4.9221,4.9018,4.8883,4.8142,4.7838,4.753,4.6143,4.5635,4.5432,4.4784,4.4615,4.4384,4.3606,4.2861,4.2117,4.1373,4.0577,3.9765,3.9043,3.8827,3.858,3.7937,3.7735,3.7677,3.7677,3.7618,3.7055,3.5716,3.5519,3.5519,3.5519,3.5519,3.5519,3.5519,3.5519,3.522,3.4563,3.4444,3.3844,3.2587,3.2527,3.2198,3.154,3.1511,3.1511,3.1511,3.1511,3.1511,3.1511,3.1424,3.0984,3.0299,3.0208,2.96,5.5323,5.4543,5.3993,5.3845,5.4482,5.5446,5.6568,5.7239,5.7814,5.8423,5.9235,5.9979,6.0283,6.0689,6.1197,6.1839,6.1941,6.2042,6.2347,6.2381,6.2381,6.2381,6.2381,6.2381,6.2381,6.2381,6.2381,6.2381,6.2381,6.2381,6.2381,6.2381,6.2484,6.2716,6.2307,6.177,6.1153,6.0735,6.0109,5.9346,5.884,5.8599,5.8599,5.8101,5.7321,5.6267,5.479,5.4391,5.4761,5.4328,5.4139,5.4106,5.3685,5.3281,5.2807,5.1319,5.0473,4.9965,4.9255,4.9018,4.8951,4.8646,4.8274,4.7703,4.665,4.6041,4.5534,4.4818,4.4615,4.4513,4.4181,4.3538,4.276,4.2016,4.1271,4.0518,3.9763,3.961,3.9506,3.9183,3.8778,3.8442,3.8442,3.8076,3.7589,3.6966,3.6446,3.6134,3.6134,3.575,3.5519,3.5519,3.5519,3.54,3.51,3.507,3.4681,3.3724,3.3664,3.3185,3.2108,3.2079,3.1899,3.1511,3.1511,3.1511,3.1511,3.1511,3.1307,3.0984,3.0984,3.0807,5.7116,5.7254,5.7419,5.6865,5.7869,5.8896,5.8492,5.9234,5.9976,5.9949,6.0825,6.1603,6.1603,6.2042,6.2381,6.2381,6.2381,6.2381,6.2381,6.2381,6.2381,6.2381,6.2212,6.2261,6.2702,6.2537,6.2381,6.2381,6.2381,6.2498,6.2774,6.274,6.3162,6.4042,6.3555,6.3095,6.2698,6.2163,6.1419,6.0366,5.9768,5.9476,5.9443,5.8634,5.7874,5.7108,5.578,5.5413,5.5667,5.5114,5.4909,5.4848,5.4328,5.4106,5.3969,5.2598,5.1393,5.0304,4.956,4.9187,4.9018,4.9018,4.8646,4.8071,4.7327,4.6583,4.5838,4.5094,4.4784,4.4615,4.4615,4.4012,4.3267,4.2726,4.188,4.1068,4.0493,4.0248,4.0113,4.0113,3.9636,3.9236,3.9236,3.8805,3.8446,3.8446,3.7761,3.7142,3.6964,3.6259,3.591,3.6101,3.5748,3.5587,3.5782,3.5619,3.522,3.4563,3.4503,3.3963,3.2826,3.2796,3.2557,3.2049,3.1869,3.178,3.178,3.178,3.178,3.178,3.1959,3.2049,5.7191,5.8109,5.9231,5.9277,6.0453,6.1725,6.2301,6.2472,6.2427,6.2343,6.2313,6.2347,6.2347,6.2381,6.2381,6.2381,6.2381,6.2381,6.2381,6.2381,6.2381,6.2381,6.1772,6.1953,6.3505,6.2893,6.2381,6.2381,6.2381,6.274,6.361,6.3647,6.4078,6.4933,6.4931,6.4188,6.2698,6.2663,6.1884,6.0397,6.0366,6.0335,6.0335,5.9588,5.8809,5.8031,5.7175,5.6396,5.5724,5.5695,5.5695,5.5667,5.5667,5.5638,5.5532,5.4775,5.3088,5.1082,5.0304,4.9593,4.9018,4.9018,4.8984,4.8849,4.8075,4.7361,4.6616,4.5872,4.5128,4.4615,4.4615,4.4012,4.3375,4.3375,4.2252,4.1204,4.117,4.0595,4.0113,4.0113,4.0087,4.0054,4.0054,4.0062,4.0003,4.0003,3.9342,3.858,3.7879,3.7054,3.6873,3.7648,3.6414,3.5782,3.6508,3.5911,3.522,3.4563,3.4503,3.4204,3.3484,3.3455,3.3455,3.3425,3.2796,3.2467,3.2467,3.2467,3.2467,3.2497,3.3155,3.3425,5.9298,6.082,6.2599,6.3084,6.4022,6.4961,6.5645,6.5371,6.4813,6.4191,6.2867,6.1615,6.0973,6.0858,6.0858,6.0858,6.1738,6.2581,6.3199,6.324,6.3464,6.4043,6.3904,6.3973,6.4529,6.2793,6.211,6.3168,6.324,6.3388,6.3683,6.4253,6.5001,6.5904,6.5366,6.4884,6.4428,6.3883,6.3085,6.1969,6.1464,6.0909,6.0397,5.9648,5.9128,5.8805,5.8007,5.752,5.7216,5.6721,5.651,5.6421,5.592,5.5724,5.5688,5.5405,5.4556,5.3195,5.1514,5.0346,4.9576,4.9138,4.9018,4.8849,4.8108,4.7394,4.665,4.5906,4.5162,4.4615,4.4615,4.4412,4.4045,4.3538,4.3003,4.2388,4.1407,4.1001,4.0696,4.018,4.0113,4.0113,4.0113,4.0113,4.0113,4.0113,3.9394,3.8635,3.7876,3.7589,3.7499,3.7764,3.7324,3.7115,3.7383,3.7175,3.6931,3.6681,3.6681,3.6397,3.5705,3.5674,3.5483,3.5043,3.4342,3.3959,3.3959,3.3427,3.3155,3.3185,3.3395,3.3484,6.1117,6.3062,6.5124,6.5868,6.6881,6.7692,6.7497,6.7088,6.6292,6.4813,6.3101,6.1639,6.0735,6.0318,6.0318,6.0869,6.1798,6.2843,6.4008,6.4148,6.4392,6.4933,6.4751,6.4847,6.5422,6.352,6.2779,6.4078,6.3864,6.3971,6.4633,6.5199,6.5935,6.6852,6.6017,6.5478,6.5275,6.4494,6.3649,6.278,6.2271,6.1742,6.1229,6.0783,6.0214,5.9626,5.9143,5.8567,5.7973,5.7474,5.7302,5.7216,5.6711,5.6491,5.6491,5.6491,5.6051,5.5085,5.2838,5.15,5.069,4.9965,4.9751,4.9682,4.92,4.8512,4.7782,4.6997,4.6301,4.5593,4.5056,4.4934,4.4749,4.3999,4.3606,4.3071,4.1847,4.1407,4.0967,4.0248,4.0113,4.0113,4.0113,4.0113,4.0113,4.0113,3.9662,3.9156,3.8695,3.8358,3.8302,3.8613,3.8137,3.7908,3.8161,3.7966,3.7793,3.7793,3.7793,3.7598,3.7206,3.7174,3.695,3.6529,3.583,3.5448,3.5448,3.4634,3.4243,3.4243,3.4238,3.4203,6.2548,6.4787,6.6843,6.765,6.9009,6.9685,6.8156,6.7686,6.6901,6.4447,6.3158,6.2241,6.1439,6.0701,6.0737,6.2248,6.2634,6.3268,6.4852,6.5065,6.5098,6.5131,6.4525,6.4702,6.6332,6.5006,6.435,6.506,6.4323,6.4599,6.6313,6.6434,6.6852,6.7687,6.688,6.6072,6.5301,6.4457,6.3613,6.278,6.278,6.278,6.278,6.278,6.1924,6.0419,6.0419,5.9501,5.7997,5.7997,5.7997,5.7997,5.7997,5.7997,5.7997,5.7997,5.7519,5.6553,5.4327,5.3034,5.2227,5.136,5.1086,5.1086,5.1086,5.0581,4.9862,4.9093,4.8303,4.7378,4.5968,4.558,4.5399,4.4824,4.4122,4.3349,4.2569,4.1831,4.1086,4.0316,4.0146,4.0113,4.0113,4.0113,4.0113,4.0113,4.0113,4.0113,4.0113,3.942,3.9262,4.0003,3.8805,3.8189,3.8908,3.8302,3.7937,3.7937,3.7937,3.7937,3.7937,3.7937,3.7937,3.7937,3.7231,3.6906,3.6906,3.6079,3.5698,3.5729,3.567,3.5587,6.5118,6.688,6.8641,7.0036,7.0257,7.0127,7.0323,6.895,6.7328,6.6001,6.3226,6.0791,5.9927,6.0088,6.0477,6.0897,6.2878,6.4802,6.5899,6.6028,6.6277,6.6931,6.6842,6.6891,6.7341,6.6401,6.6121,6.6959,6.6217,6.594,6.6374,6.7032,6.746,6.7687,6.6329,6.5521,6.5301,6.387,6.3025,6.278,6.278,6.278,6.278,6.278,6.1924,6.0419,6.0419,5.9501,5.7997,5.7997,5.7997,5.7997,5.7997,5.7997,5.7997,5.7997,5.7886,5.751,5.6366,5.4665,5.283,5.1515,5.1086,5.1086,5.1086,5.0581,4.9968,4.973,4.8728,4.7605,4.7234,4.6667,4.6136,4.5989,4.5765,4.5291,4.4146,4.3285,4.2412,4.1138,4.0485,4.0113,4.0113,4.0113,4.0113,4.0113,4.0113,4.0113,4.0113,3.9927,3.9876,4.0087,3.9747,3.9584,3.9799,3.961,3.9506,3.9506,3.9506,3.9506,3.9506,3.9506,3.9506,3.9506,3.877,3.8368,3.8341,3.762,3.7245,3.7245,3.72,3.6874,6.6696,6.8458,7.0183,7.1073,7.0954,7.0477,6.9853,6.8385,6.6626,6.4694,6.2275,6.0181,5.9358,5.9852,6.0644,6.1356,6.3523,6.5574,6.6801,6.6967,6.7146,6.766,6.7687,6.7687,6.7687,6.7258,6.7174,6.766,6.6881,6.6553,6.6939,6.7433,6.7687,6.7687,6.6145,6.4971,6.4237,6.3257,6.278,6.278,6.278,6.278,6.278,6.278,6.2108,6.0896,6.0566,5.9685,5.851,5.8143,5.7997,5.7997,5.7997,5.7997,5.7997,5.7997,5.7997,5.7886,5.7079,5.5702,5.4117,5.293,5.2306,5.203,5.203,5.173,5.1333,5.0973,5.024,4.9365,4.835,4.7722,4.7201,4.6566,4.6389,4.6082,4.5032,4.4458,4.3672,4.195,4.1311,4.0827,4.0197,4.0113,4.0113,4.0113,4.0113,4.0113,4.0113,4.0113,4.0113,4.0113,4.0113,4.0113,4.0113,4.0113,4.0113,4.0113,4.0113,4.0113,4.0113,4.0113,4.0113,4.0113,3.9662,3.942,3.942,3.8635,3.8274,3.8274,3.7966,3.7589,6.7907,6.9706,7.1293,7.1293,7.1109,7.0403,6.8054,6.6733,6.5154,6.2218,6.0896,6.0052,5.9331,5.9942,6.1043,6.256,6.431,6.5999,6.7467,6.7687,6.7687,6.7687,6.7687,6.7687,6.7687,6.7687,6.7687,6.7687,6.6996,6.691,6.766,6.7687,6.7577,6.7393,6.6035,6.4494,6.2817,6.278,6.278,6.278,6.278,6.278,6.278,6.278,6.2365,6.1557,6.086,6.0052,5.9148,5.8437,5.8107,5.7997,5.7997,5.7997,5.7997,5.7997,5.7997,5.7886,5.7189,5.6418,5.5611,5.4693,5.3849,5.3203,5.3203,5.3203,5.3078,5.2344,5.2087,5.1506,4.9415,4.8815,4.8395,4.6998,4.6646,4.6445,4.5747,4.543,4.4763,4.2824,4.2358,4.1914,4.069,4.0421,4.0328,4.0328,4.0254,4.0204,4.0204,4.0129,4.0113,4.0113,4.0113,4.0113,4.0113,4.0113,4.0113,4.0113,4.0113,4.0113,4.0113,4.0113,4.0113,4.0113,4.0113,4.0113,4.0113,3.9394,3.9043,3.9043,3.8386,3.8051,7.0293,7.0962,7.1293,7.1293,7.033,6.8862,6.71,6.5007,6.3099,6.1851,6.0419,5.9368,5.9221,6.0419,6.1704,6.2658,6.4751,6.6623,6.7577,6.7687,6.7687,6.7687,6.7687,6.7687,6.7687,6.7687,6.7687,6.7687,6.7542,6.7515,6.7687,6.7687,6.71,6.5778,6.5448,6.4494,6.2817,6.278,6.278,6.278,6.278,6.278,6.278,6.278,6.2365,6.1594,6.1447,6.0566,5.9184,5.9038,5.8621,5.7997,5.7997,5.7997,5.7997,5.7997,5.7997,5.796,5.785,5.7262,5.6345,5.4876,5.3849,5.3203,5.3203,5.3203,5.3167,5.3041,5.2527,5.1736,5.068,4.9948,4.9175,4.8198,4.7959,4.7802,4.7183,4.6128,4.502,4.4044,4.3315,4.2776,4.2546,4.1952,4.1508,4.1508,4.1082,4.0756,4.0756,4.0368,4.0113,4.0113,4.0113,4.0113,4.0113,4.0113,4.0113,4.0113,4.0113,4.0113,4.0113,4.0113,4.0113,4.0113,4.0113,4.0113,4.0113,3.9952,3.9901,3.9901,3.9773,3.9342,7.0991,7.1615,7.1945,7.1945,7.0403,6.8385,6.6329,6.398,6.1704,6.0052,5.9098,5.8584,5.8584,5.9905,6.1117,6.1484,6.3246,6.5007,6.6256,6.6439,6.6769,6.7577,6.7687,6.7687,6.7687,6.7687,6.7687,6.7687,6.7687,6.7687,6.7687,6.7687,6.7136,6.5962,6.5521,6.4714,6.3503,6.3025,6.278,6.278,6.278,6.278,6.278,6.278,6.2585,6.2218,6.1777,6.0933,5.9771,5.9368,5.8731,5.7997,5.7997,5.7997,5.7997,5.7997,5.7997,5.7997,5.7997,5.7483,5.6602,5.539,5.4473,5.3739,5.3335,5.3203,5.3203,5.3203,5.2931,5.2454,5.1646,5.0839,4.9994,4.9187,4.8636,4.8229,4.7955,4.7347,4.6534,4.5487,4.4957,4.4478,4.3748,4.2951,4.2398,4.2398,4.1842,4.1362,4.1362,4.115,4.0744,4.0154,4.0113,4.0113,4.0113,4.0113,4.0113,4.0113,4.0113,4.0113,4.0113,4.0113,4.0113,4.0113,4.0113,4.0113,4.0113,4.0113,4.0113,4.0113,4.0113,3.9901,7.1284,7.2018,7.2459,7.2312,7.044,6.8017,6.5595,6.3135,6.0713,5.8474,5.7997,5.7997,5.7997,5.9171,6.0199,6.0382,6.163,6.3209,6.5044,6.5301,6.5888,6.7504,6.7687,6.7687,6.7687,6.7687,6.7687,6.7687,6.7687,6.7687,6.7687,6.7687,6.732,6.6512,6.5742,6.4897,6.409,6.3246,6.278,6.278,6.278,6.278,6.278,6.278,6.278,6.2743,6.2144,6.141,6.0603,5.9771,5.8988,5.8253,5.807,5.7997,5.7997,5.7997,5.7997,5.7997,5.7997,5.7593,5.6932,5.6124,5.5207,5.4252,5.3445,5.3203,5.3203,5.3203,5.3203,5.3004,5.2197,5.1536,5.0802,4.9831,4.893,4.8306,4.8306,4.8306,4.8007,4.6937,4.6601,4.6096,4.5029,4.4157,4.362,4.362,4.2852,4.2249,4.2249,4.2002,4.1464,4.0563,4.0466,4.0392,4.0303,4.0279,4.0229,4.0113,4.0113,4.0113,4.0113,4.0113,4.0113,4.0113,4.0113,4.0113,4.0113,4.0113,4.0113,4.0113,4.0113,4.0113,7.1982,7.2459,7.2312,7.1615,6.9596,6.7173,6.4751,6.2291,6.0015,5.8364,5.7997,5.7997,5.7997,5.8731,5.9551,6.0272,6.1153,6.2548,6.4971,6.5301,6.5888,6.7504,6.7687,6.7687,6.7687,6.7687,6.7687,6.7687,6.7687,6.7687,6.7687,6.7687,6.732,6.6512,6.5742,6.4897,6.409,6.3246,6.278,6.278,6.278,6.278,6.278,6.278,6.278,6.278,6.2707,6.2254,6.141,6.0639,5.9832,5.9001,5.829,5.7997,5.7997,5.7997,5.7997,5.7997,5.7997,5.796,5.7776,5.6969,5.5647,5.4252,5.3445,5.3203,5.3203,5.3203,5.3203,5.3004,5.2197,5.194,5.1499,4.9978,4.893,4.8306,4.8306,4.8306,4.825,4.8138,4.7532,4.7,4.6853,4.6157,4.5608,4.5608,4.4537,4.37,4.37,4.2608,4.1768,4.166,4.166,4.1442,4.0874,4.0827,4.0625,4.0104,4.0113,4.0113,4.0113,4.0113,4.0113,4.0113,4.0113,4.0113,4.0113,4.0113,4.0113,4.0113,4.0113,4.0113,7.1211,7.2129,7.2422,7.2092,6.9853,6.7173,6.5264,6.2548,5.9942,5.8327,5.7997,5.7997,5.7997,5.8253,5.8584,5.8914,5.9208,6.0272,6.2732,6.3062,6.4053,6.6659,6.699,6.7173,6.7677,6.7687,6.7687,6.7687,6.7687,6.7687,6.7687,6.7687,6.754,6.721,6.6439,6.5632,6.4824,6.4016,6.3319,6.278,6.278,6.278,6.278,6.278,6.278,6.278,6.278,6.2365,6.1557,6.1263,6.0382,5.9148,5.8877,5.8437,5.7997,5.7997,5.7997,5.7997,5.7997,5.7997,5.7886,5.7079,5.6051,5.495,5.4179,5.3592,5.3203,5.3203,5.3203,5.3151,5.2821,5.2344,5.1573,4.9978,4.9353,4.893,4.8416,4.8306,4.8306,4.8306,4.8049,4.781,4.781,4.7149,4.6599,4.6599,4.5754,4.4947,4.4418,4.3885,4.3353,4.2865,4.2206,4.1725,4.1451,4.1429,4.1353,4.1127,4.1105,4.1105,4.1105,4.1105,4.1105,4.1105,4.1105,4.1105,4.1105,4.0767,4.0577,4.0577,4.0254,4.0113,7.022,7.1541,7.2165,7.2165,6.9743,6.6916,6.5301,6.2401,5.9648,5.829,5.7997,5.7997,5.7997,5.7997,5.7997,5.7997,5.8217,5.9024,6.097,6.1447,6.2548,6.5118,6.5632,6.6109,6.6916,6.7542,6.793,6.793,6.8072,6.8161,6.8161,6.8161,6.8021,6.7714,6.6916,6.6109,6.5301,6.4494,6.3649,6.278,6.278,6.278,6.278,6.278,6.278,6.2805,6.2965,6.2647,6.1949,6.2022,6.1121,5.9743,5.9664,5.9159,5.8418,5.8418,5.8418,5.8418,5.8418,5.8348,5.812,5.7567,5.6721,5.5794,5.4987,5.4032,5.3203,5.3203,5.3203,5.3203,5.3203,5.2601,5.1683,5.0602,4.9941,4.9427,4.882,4.8489,4.8306,4.8306,4.8306,4.8306,4.8306,4.781,4.7443,4.7443,4.6764,4.6067,4.5461,4.4984,4.4488,4.3901,4.2936,4.2226,4.2062,4.2062,4.1979,4.181,4.181,4.181,4.181,4.181,4.181,4.181,4.181,4.181,4.181,4.1362,4.1161,4.1138,4.0791,4.0514,6.9229,7.0697,7.1293,7.1293,6.8898,6.6072,6.4457,6.1557,5.8964,5.818,5.7997,5.7997,5.7997,5.7997,5.7997,5.7997,5.8694,5.9478,6.0309,6.108,6.1924,6.2768,6.3613,6.442,6.5264,6.7235,6.8511,6.8511,6.8978,6.9292,6.9292,6.9292,6.8818,6.7741,6.6916,6.6109,6.5301,6.4494,6.3649,6.278,6.278,6.278,6.278,6.278,6.278,6.283,6.334,6.3308,6.2794,6.3,6.2294,6.1044,6.0792,6.0161,5.9372,5.9372,5.9372,5.9372,5.9372,5.9065,5.8713,5.8676,5.782,5.6638,5.5831,5.4473,5.3203,5.3203,5.3203,5.3203,5.3203,5.2601,5.1977,5.1977,5.0749,4.961,4.961,4.8893,4.8306,4.8306,4.8306,4.8306,4.8306,4.8306,4.8306,4.8306,4.759,4.7076,4.7076,4.5682,4.4691,4.4691,4.3975,4.3268,4.2732,4.2674,4.2422,4.1853,4.181,4.181,4.181,4.181,4.181,4.181,4.181,4.181,4.181,4.181,4.1789,4.1789,4.1789,4.1451,6.5411,6.6586,6.721,6.721,6.5595,6.3686,6.2622,6.075,5.8964,5.818,5.7997,5.7997,5.7997,5.7997,5.818,5.8731,5.9038,5.9478,6.0309,6.108,6.2108,6.3503,6.5375,6.6659,6.6916,6.7864,6.8511,6.8511,6.8999,6.9313,6.9313,6.9313,6.9148,6.8818,6.8556,6.7732,6.6325,6.6085,6.5261,6.3876,6.3876,6.3876,6.3876,6.3876,6.3876,6.3876,6.4059,6.385,6.3408,6.3798,6.3215,6.1981,6.1657,6.1029,6.0217,5.9633,5.9389,5.9389,5.9389,5.9302,5.9176,5.9176,5.854,5.7585,5.6762,5.5332,5.3922,5.3371,5.3203,5.3203,5.3203,5.3004,5.2674,5.2123,5.1169,5.0251,4.9721,4.893,4.8306,4.8306,4.8306,4.8306,4.8306,4.8306,4.8306,4.8306,4.8067,4.77,4.7186,4.6672,4.6122,4.559,4.5296,4.4619,4.3359,4.325,4.3178,4.2995,4.2941,4.2941,4.2941,4.2941,4.2941,4.2941,4.2941,4.2941,4.2941,4.258,4.2221,4.181,4.181,4.1703,6.2989,6.4237,6.4861,6.4861,6.3613,6.2144,6.1337,5.9905,5.8621,5.8107,5.7997,5.7997,5.7997,5.7997,5.8143,5.8694,5.9281,5.9612,5.9501,6.0713,6.2169,6.3761,6.5628,6.7053,6.7802,6.8404,6.8869,6.9106,6.9607,6.9883,6.9883,6.9883,6.9883,6.9883,6.9511,6.852,6.6822,6.6785,6.5992,6.4389,6.4389,6.4389,6.4389,6.4389,6.4389,6.4389,6.4572,6.437,0.0,6.4681,6.4151,6.2881,6.2551,6.1948,6.1126,6.0236,5.9916,5.9916,5.9916,5.9823,5.9642,5.9642,5.9013,5.8048,5.7163,5.5731,5.435,5.383,5.3682,5.3682,5.3682,5.3682,5.357,5.3069,5.2176,5.1339,5.0822,4.9709,4.8783,4.8783,4.8526,4.8306,4.8306,4.8306,4.8306,4.8306,4.8306,4.8122,4.7626,4.7296,4.6892,4.6434,4.6067,4.548,4.4488,4.4121,4.3828,4.3515,4.3515,4.3515,4.3515,4.3515,4.3515,4.3515,4.3515,4.3515,4.3515,4.316,4.2827,4.2426,4.2426,4.2327,0.0,6.3062,6.3649,6.3649,6.2475,6.1153,6.0419,5.9061,0.0,5.7997,5.7997,5.7997,5.7997,5.8042,5.8042,5.807,5.9415,5.9903,5.8359,6.0244,6.2345,6.3802,6.494,6.6283,6.8007,6.89,6.9569,7.0078,7.0608,7.0898,7.0898,7.0898,7.0898,7.0898,6.9939,6.8619,6.6938,6.69,6.6107,6.4519,6.4519,6.4519,6.4519,6.4519,6.4519,6.4518,6.4987,6.4904,6.4556,6.5499,6.5109,6.3833,6.345,6.2858,6.2062,6.1127,6.0781,6.0781,6.0781,6.0508,6.0146,6.0146,5.93,5.8148,5.7321,5.5929,5.456,5.4522,5.4484,5.4484,5.4484,5.4484,5.4484,5.4484,5.3549,5.2638,5.2638,5.1139,4.9745,4.9743,4.9025,4.8418,4.8416,4.8343,4.8306,4.8306,4.8306,4.8306,4.8306,4.7626,4.7186,4.7186,4.6544,4.6067,4.5993,4.5259,4.4488,4.3735,4.3662,4.3662,4.3662,4.3662,4.3662,4.3662,4.3608,4.3551,4.3515,4.3515,4.3515,4.3515,4.3515,4.3232,5.8914,0.0,5.9428,5.9428,5.9134,5.8804,0.0,5.8253,5.7997,5.7997,5.7997,5.7997,5.7997,5.8304,5.864,5.8874,6.0055,6.0602,5.9584,6.1919,6.4441,6.6232,6.7576,6.8532,6.8991,6.9569,6.9954,7.0095,7.0608,7.0898,7.0898,7.0898,7.0898,7.0898,7.0652,6.9704,6.8057,6.8018,6.7175,6.5542,6.5542,6.5542,6.5542,6.5542,6.5542,6.5542,6.5663,6.5417,6.5003,6.5649,6.5454,6.4688,6.368,6.3166,6.2858,6.1358,6.0781,6.0781,6.0781,6.0734,6.0634,6.0634,5.9971,5.9166,5.8936,5.7273,5.5293,5.4673,5.4484,5.4484,5.4484,5.4484,5.4484,5.4484,5.3779,5.3075,5.3075,5.2183,5.1345,5.1042,5.0302,4.9675,4.9338,4.8746,4.8306,4.8306,4.8306,4.8306,4.8306,4.8122,4.7993,4.7993,4.7865,4.7498,4.6856,4.6104,4.5553,4.5333,4.5333,4.5333,4.5333,4.5333,4.5333,4.5333,4.4745,4.4121,4.3515,4.3515,4.3515,4.3515,4.3515,4.3445,5.7997,5.8253,5.8547,5.8547,5.8547,5.8547,5.8547,5.8253,5.7997,5.7997,5.7997,5.8088,5.8282,5.8508,5.8842,5.9227,6.016,6.1144,6.1839,6.369,6.5728,6.7801,6.8764,6.9492,6.9992,7.0078,7.0195,7.0463,7.0748,7.0898,7.0898,7.0898,7.0898,7.0898,7.0898,7.009,6.8436,6.8385,6.7552,6.5897,6.5897,6.5897,6.5897,6.5897,6.5897,6.5897,6.5897,6.5755,6.5475,6.5781,6.5717,6.536,6.4321,6.3666,6.3166,6.1858,6.1127,6.0781,6.0781,6.0781,6.0781,6.0781,6.0473,6.0012,5.9627,5.8553,5.7177,5.5995,5.5372,5.5067,5.5067,5.5067,5.5067,5.5067,5.4562,5.4054,5.4054,5.3293,5.2491,5.229,5.1581,5.0954,5.0738,5.0313,4.9867,4.9514,4.944,4.9311,4.8885,4.8847,4.8847,4.8847,4.8693,4.8383,4.794,4.7371,4.6691,4.5957,4.5883,4.5883,4.5883,4.5883,4.5883,4.5883,4.548,4.4856,4.4048,4.4048,4.3864,4.3515,4.3515,4.3515,5.8143,5.8837,5.9435,5.9098,5.9145,5.9251,5.9141,5.8643,5.8194,5.8194,5.8194,5.8348,5.8716,5.8986,5.9272,5.9731,6.0649,6.214,6.4615,6.5577,6.6797,6.8836,6.9357,6.9921,7.0805,7.0494,7.0394,7.0871,7.0898,7.0898,7.0898,7.0898,7.0898,7.0898,7.0783,6.9975,6.8436,6.8385,6.7552,6.5897,6.5897,6.5897,6.5897,6.5897,6.5897,6.5897,6.5897,6.5897,6.5897,6.5897,6.5897,6.582,6.4936,6.4089,6.3192,6.2397,6.155,6.0781,6.0781,6.0781,6.0781,6.0781,6.0781,6.0666,5.9935,5.9627,5.9204,5.778,5.6676,5.5857,5.5742,5.5703,5.5703,5.5703,5.5435,5.5186,5.5186,5.4348,5.3573,5.3513,5.2847,5.2265,5.2205,5.2092,5.179,5.108,5.0967,5.0741,4.9994,4.9881,4.9843,4.973,4.939,4.9144,4.8978,4.8693,4.7905,4.6558,4.6342,4.6287,4.6287,4.6287,4.6214,4.6104,4.6067,4.57,4.4892,4.4892,4.4525,4.3882,4.3882,4.3882,5.8817,5.993,6.0454,5.8649,5.8984,5.9611,5.8925,5.8968,5.9176,5.9176,5.9176,5.9194,5.9266,6.0215,6.1099,6.144,6.3209,6.5209,6.7259,6.7769,6.844,6.9764,7.0371,7.0734,7.0885,7.0843,7.0805,7.0898,7.0898,7.0898,7.0898,7.0898,7.0898,7.0898,7.0244,6.9398,6.8398,6.8385,6.7552,6.5897,6.5897,6.5897,6.5897,6.5897,6.5897,6.5897,6.5897,6.5897,6.5897,6.5897,6.5897,6.582,6.4936,6.4089,6.3192,6.2397,6.155,6.0781,6.0781,6.0781,6.0781,6.0781,6.0781,6.0781,6.0627,6.0089,5.9435,5.9204,5.8011,5.6637,5.5895,5.5703,5.5703,5.5703,5.5632,5.5599,5.5599,5.545,5.5231,5.4865,5.4177,5.3473,5.3089,5.2455,5.1979,5.1827,5.1827,5.179,5.1624,5.1624,5.1359,5.0665,5.053,5.0222,4.9491,4.9356,4.9198,4.895,4.8323,4.7939,4.7939,4.7939,4.759,4.6929,4.6929,4.6544,4.5736,4.5736,4.5663,4.5516,4.5516,4.5516,5.9221,6.0073,6.0752,6.0255,6.086,6.1542,6.1148,6.0566,6.0086,6.0086,5.9746,5.9475,5.9744,6.1028,6.2498,6.384,6.5264,6.6686,6.8079,6.8752,6.9446,7.0424,7.0762,7.0898,7.0898,7.0898,7.0898,7.0898,7.0898,7.0898,7.0898,7.0898,7.0898,7.0898,7.0129,6.9283,6.8398,6.7936,6.709,6.5897,6.5897,6.5897,6.5897,6.5897,6.5897,6.5897,6.5897,6.5897,6.5897,6.5897,6.5897,6.5859,6.5474,6.4474,6.3166,6.1858,6.1127,6.0781,6.0781,6.0781,6.0781,6.0781,6.0781,6.0781,6.0781,6.0512,6.0089,5.9627,5.8627,5.7511,5.6637,5.6406,5.6291,5.5818,5.5703,5.5703,5.5703,5.5703,5.5671,5.5446,5.5128,5.4812,5.4575,5.4218,5.3849,5.3429,5.3353,5.3188,5.2729,5.2653,5.25,5.2157,5.1916,5.1619,5.1188,5.0591,4.9994,4.9541,4.8965,4.864,4.864,4.8402,4.8122,4.7736,4.7736,4.7333,4.6544,4.6544,4.6324,4.5883,4.5883,4.5883,5.9653,6.0214,6.1001,6.183,6.2359,6.2851,6.3437,6.2425,6.1408,6.1826,6.1218,6.0729,6.1067,6.25,6.4283,6.6167,6.7321,6.8205,6.8898,6.9552,7.0206,7.0821,7.0898,7.0898,7.0898,7.0898,7.0898,7.0898,7.0898,7.0898,7.0898,7.0898,7.0898,7.0898,6.9937,6.909,6.8398,6.7359,6.6513,6.5897,6.5897,6.5897,6.5897,6.5897,6.5897,6.5897,6.5897,6.5897,6.5897,6.5897,6.5897,6.5897,6.5897,6.482,6.3128,6.1666,6.0973,6.0781,6.0781,6.0781,6.0781,6.0781,6.0781,6.0781,6.0781,6.0781,6.0666,5.9973,5.9358,5.8627,5.7588,5.7291,5.7099,5.6203,5.6011,5.5934,5.5742,5.5703,5.5703,5.5703,5.5703,5.5703,5.5703,5.5703,5.5472,5.4857,5.478,5.4549,5.3857,5.378,5.3703,5.351,5.3249,5.2968,5.2765,5.1877,5.0995,5.0109,4.9439,4.9027,4.9027,4.8727,4.8568,4.8568,4.8568,4.8272,4.7644,4.7644,4.7295,4.6616,4.6616,4.6544,6.0297,6.0904,6.1522,6.233,6.1972,6.2064,6.4489,6.4015,6.3553,6.518,6.4834,6.4257,6.4283,6.5641,6.7102,6.8038,6.959,7.0667,7.0706,7.0783,7.0821,7.0898,7.0898,7.0898,7.0898,7.0898,7.0898,7.0898,7.0898,7.0898,7.0898,7.0898,7.0898,7.0898,6.9321,6.8462,6.8385,6.6782,6.5974,6.5897,6.5897,6.5897,6.5897,6.5897,6.5897,6.5897,6.5897,6.5897,6.5897,6.5897,6.5897,6.5897,6.5897,6.482,6.3205,6.232,6.1473,6.0781,6.0781,6.0781,6.0781,6.0781,6.0781,6.0781,6.0781,6.0781,6.0781,6.0704,6.0666,6.0242,5.8627,5.8204,5.7973,5.7099,5.6907,5.6676,5.5857,5.5703,5.5703,5.5703,5.5703,5.5703,5.5703,5.5703,5.5665,5.5626,5.5588,5.5588,5.5511,5.5511,5.5241,5.4472,5.4385,5.4017,5.321,5.3074,5.2641,5.1795,5.0316,4.946,4.946,4.9431,4.9416,4.9416,4.9416,4.9378,4.934,4.934,4.9106,4.8695,4.8695,4.849,6.0651,6.1259,6.2145,6.3512,6.3614,6.3729,6.529,6.5269,6.5243,6.6397,6.5974,6.5551,6.6051,6.6667,6.7552,6.8975,7.0167,7.0898,7.0898,7.0898,7.0898,7.0898,7.0898,7.0898,7.0898,7.0898,7.0898,7.0898,7.0898,7.0898,7.0898,7.0898,7.0898,7.0898,6.9821,6.8936,6.8398,6.7244,6.6397,6.5897,6.5897,6.5897,6.5897,6.5897,6.5897,6.5897,6.5897,6.5897,6.5897,6.5897,6.5897,6.5859,6.5282,6.4705,6.4012,6.3166,6.232,6.1601,6.1601,6.1243,6.0781,6.0781,6.0781,6.0781,6.0781,6.0781,6.0781,6.0781,6.0781,6.0512,5.9358,5.905,5.8858,5.8011,5.7396,5.6907,5.6599,5.6088,5.5703,5.5703,5.5703,5.5703,5.5703,5.5703,5.5703,5.5703,5.5703,5.5703,5.5703,5.5703,5.5588,5.528,5.5241,5.4895,5.4087,5.401,5.3626,5.2769,5.1405,5.0379,4.9885,4.9617,4.9489,4.9489,4.9489,4.9489,4.9489,4.9489,4.9416,4.928,4.928,4.9187,6.0781,6.1243,6.1947,6.3128,6.4012,6.482,6.5705,6.632,6.7013,6.809,6.7667,6.7167,6.7475,6.7744,6.8321,6.9513,7.0398,7.0898,7.0898,7.0898,7.0898,7.0898,7.0898,7.0898,7.0898,7.0898,7.0898,7.0898,7.0898,7.0898,7.0898,7.0898,7.0898,7.0898,7.0129,6.9398,6.8821,6.7936,6.709,6.6282,6.6282,6.6128,6.5897,6.5897,6.5897,6.5897,6.5897,6.5897,6.5897,6.5897,6.5897,6.582,6.5243,6.4859,6.4551,6.3935,6.3205,6.2474,6.2474,6.1897,6.1204,6.1204,6.1012,6.0781,6.0781,6.0781,6.0781,6.0781,6.0781,6.0666,6.0089,5.9896,5.9704,5.8896,5.8204,5.7703,5.7484,5.6934,5.6511,5.6511,5.628,5.6088,5.6088,5.5857,5.5703,5.5703,5.5703,5.5703,5.5703,5.5703,5.5703,5.5703,5.5703,5.5472,5.4934,5.4895,5.4511,5.3664,5.2801,5.1806,5.0723,5.0393,5.0151,4.9885,4.9885,4.9885,4.9885,4.9885,4.9832,4.9673,4.9673,4.9617,6.0781,6.0819,6.0819,6.0819,6.2743,6.4859,6.5743,6.7205,6.8898,7.0552,7.0244,6.9436,6.8577,6.9129,6.9706,6.9706,7.0398,7.0898,7.0898,7.0898,7.0898,7.0898,7.0898,7.0898,7.0898,7.0898,7.0898,7.0898,7.0898,7.0898,7.0898,7.0898,7.0898,7.0898,7.0129,6.9706,6.9706,6.8859,6.7975,6.709,6.709,6.6667,6.5897,6.5897,6.5897,6.5897,6.5897,6.5897,6.5897,6.5897,6.5897,6.5897,6.5897,6.5359,6.4628,6.4628,6.4051,6.3308,6.3308,6.2781,6.2101,6.2101,6.1524,6.0819,6.0781,6.0781,6.0781,6.0781,6.0781,6.0781,6.0781,6.0781,6.0589,5.9704,5.9511,5.9281,5.8473,5.8319,5.8319,5.8319,5.7588,5.7022,5.7022,5.6291,5.5703,5.5703,5.5703,5.5703,5.5703,5.5703,5.5703,5.5703,5.5703,5.5703,5.5703,5.5703,5.5357,5.4549,5.4511,5.3741,5.1962,5.1923,5.1548,5.075,5.0712,5.0712,5.0712,5.0712,5.0493,5.0123,5.0123,4.9898,6.0781,6.1666,6.2704,6.332,6.5397,6.7513,6.8359,6.8975,6.9629,7.0667,7.0244,6.9629,6.936,6.9513,6.9706,6.9706,7.0398,7.0898,7.0898,7.0898,7.0898,7.0898,7.0898,7.0898,7.0898,7.0898,7.0898,7.0898,7.0898,7.0898,7.0898,7.0898,7.0898,7.0898,7.0667,7.0283,6.9706,6.9436,6.8898,6.8013,6.7398,6.6667,6.5897,6.5897,6.5897,6.5897,6.5897,6.5897,6.5897,6.5897,6.5897,6.5897,6.5897,6.5743,6.5513,6.5513,6.4974,6.4205,6.4205,6.3666,6.2858,6.2281,6.1947,6.1601,6.0973,6.0781,6.0781,6.0781,6.0781,6.0781,6.0781,6.0781,6.0742,6.0473,5.9935,5.9435,5.9204,5.8704,5.8319,5.8319,5.8088,5.7896,5.7896,5.7203,5.6599,5.6599,5.6088,5.5703,5.5703,5.5703,5.5703,5.5703,5.5703,5.5703,5.5703,5.5703,5.5588,5.5357,5.5318,5.4587,5.2895,5.2818,5.2433,5.1548,5.1548,5.1279,5.0712,5.0712,5.0634,5.0514,5.0514,5.0462,6.132,6.2551,6.3935,6.4474,6.6513,6.8706,6.9898,7.0167,7.0321,7.0783,7.0514,7.0167,7.0167,7.0167,7.0167,7.0167,7.0591,7.0898,7.0898,7.0898,7.0898,7.0898,7.0898,7.0898,7.0898,7.0898,7.0898,7.0898,7.0898,7.0898,7.0898,7.0898,7.0898,7.0898,7.0898,7.0667,7.0167,7.0167,6.9744,6.8898,6.8013,6.7167,6.6359,6.6051,6.5897,6.5897,6.5897,6.5897,6.5897,6.5897,6.5897,6.5897,6.5897,6.5897,6.5897,6.5897,6.5551,6.5128,6.5128,6.4551,6.3666,6.2858,6.2358,6.1947,6.105,6.0781,6.0781,6.0781,6.0781,6.0781,6.0781,6.0781,6.0781,6.0781,6.0396,6.0012,6.0012,5.9627,5.9281,5.9281,5.9011,5.8781,5.8781,5.8088,5.7511,5.7511,5.678,5.6088,5.5742,5.5703,5.5703,5.5703,5.5703,5.5703,5.5703,5.5703,5.5703,5.5703,5.5703,5.5241,5.4241,5.3895,5.3318,5.2423,5.2077,5.1654,5.1164,5.0866,5.0712,5.0712,5.0712,5.0856,6.2178,6.3435,6.4743,6.4897,6.6821,6.9052,7.0552,7.0898,7.0898,7.0898,7.0898,7.0898,7.0898,7.0898,7.0898,7.0898,7.0898,7.0898,7.0898,7.0898,7.0898,7.0898,7.0898,7.0898,7.0898,7.0898,7.0898,7.0898,7.0898,7.0898,7.0898,7.0898,7.0898,7.0898,7.0898,7.0898,7.0898,7.0898,7.0514,6.9821,6.8859,6.7975,6.7167,6.6282,6.5897,6.5897,6.5897,6.5897,6.5897,6.5897,6.5897,6.5897,6.5897,6.5897,6.5897,6.5897,6.5897,6.5897,6.5897,6.5397,6.4551,6.3628,6.282,6.2024,6.1089,6.0781,6.0781,6.0781,6.0781,6.0781,6.0781,6.0781,6.0781,6.0781,6.0781,6.0781,6.0781,6.0781,6.0781,6.0781,6.0165,5.9627,5.9627,5.8934,5.8396,5.8319,5.7627,5.683,5.6049,5.5934,5.5895,5.5818,5.5818,5.578,5.5703,5.5703,5.5703,5.5703,5.5703,5.5703,5.5703,5.5011,5.4203,5.3356,5.2538,5.2115,5.2,5.1279,5.0943,5.0943,5.0943,5.1318,6.2858,6.4282,6.5936,6.7244,6.8975,7.0475,7.0821,7.0898,7.0898,7.0898,7.0898,7.0898,7.0898,7.0898,7.0898,7.0898,7.0898,7.0898,7.0898,7.0898,7.0898,7.0898,7.0898,7.0898,7.0898,7.0898,7.0898,7.0898,7.0898,7.0898,7.0898,7.0898,7.0898,7.0898,7.0898,7.0898,7.0898,7.0898,7.0821,7.0629,6.9129,6.8321,6.809,6.659,6.5897,6.5897,6.5897,6.5897,6.5897,6.5897,6.5897,6.5897,6.5897,6.5897,6.5897,6.5897,6.5897,6.5897,6.5897,6.5782,6.5359,6.382,6.3166,6.2781,6.1243,6.0781,6.0781,6.0781,6.0781,6.0781,6.0781,6.0781,6.0781,6.0781,6.0781,6.0781,6.0781,6.0781,6.0781,6.0781,6.0666,6.0512,6.0512,5.9819,5.905,5.8396,5.8127,5.7934,5.778,5.7742,5.7473,5.6791,5.6714,5.6445,5.5742,5.5703,5.5703,5.5703,5.5703,5.5703,5.5703,5.5511,5.5049,5.4241,5.4049,5.3587,5.2933,5.2741,5.2664,5.2664,5.2664,5.2779,6.2589,6.4551,6.6974,6.909,7.0244,7.0898,7.0898,7.0898,7.0898,7.0898,7.0898,7.0898,7.0898,7.0898,7.0898,7.0898,7.0898,7.0898,7.0898,7.0898,7.0898,7.0898,7.0898,7.0898,7.0898,7.0898,7.0898,7.0898,7.0898,7.0898,7.0898,7.0898,7.0898,7.0898,7.0898,7.0898,7.0898,7.0898,7.0706,7.0321,6.9013,6.7975,6.7167,6.6282,6.5897,6.5897,6.5897,6.5897,6.5897,6.5897,6.5897,6.5897,6.5897,6.5897,6.5897,6.5897,6.5897,6.5897,6.5897,6.5897,6.5667,6.4359,6.3628,6.3089,6.1781,6.1127,6.0781,6.0781,6.0781,6.0781,6.0781,6.0781,6.0781,6.0781,6.0781,6.0781,6.0781,6.0781,6.0781,6.0781,6.0781,6.0781,6.0781,6.0435,5.9858,5.9011,5.8858,5.8742,5.8357,5.8319,5.8127,5.7665,5.7253,5.683,5.6368,5.5934,5.5703,5.5703,5.5703,5.5703,5.5703,5.5703,5.5511,5.5088,5.4703,5.428,5.3818,5.3395,5.3203,5.3203,5.3203,5.3433,6.1851,6.4446,6.7705,7.0244,7.0898,7.0898,7.0898,7.0898,7.0898,7.0898,7.0898,7.0898,7.0898,7.0898,7.0898,7.0898,7.0898,7.0898,7.0898,7.0898,7.0898,7.0898,7.0898,7.0898,7.0898,7.0898,7.0898,7.0898,7.0898,7.0898,7.0898,7.0898,7.0898,7.0898,7.0898,7.0898,7.0898,7.0744,7.036,6.9706,6.8667,6.7398,6.5897,6.5897,6.5897,6.5897,6.5897,6.5897,6.5897,6.5897,6.5897,6.5897,6.5897,6.5897,6.5897,6.5897,6.5897,6.5897,6.5897,6.5897,6.5743,6.4897,6.4128,6.3358,6.2583,6.1828,6.1216,6.1081,6.102,6.0973,6.0819,6.0781,6.0781,6.0781,6.0781,6.0781,6.0781,6.0781,6.0781,6.0781,6.0781,6.0781,6.0781,6.0781,6.055,5.9819,5.9704,5.9473,5.8819,5.8742,5.8665,5.8511,5.7857,5.7368,5.7253,5.6445,5.5934,5.5934,5.578,5.5703,5.5703,5.5703,5.5703,5.5703,5.5049,5.4703,5.4703,5.3972,5.3626,5.3626,5.3626,5.401,6.0906,6.4073,6.7705,7.0244,7.0898,7.0898,7.0898,7.0898,7.0898,7.0898,7.0898,7.0898,7.0898,7.0898,7.0898,7.0898,7.0898,7.0898,7.0898,7.0898,7.0898,7.0898,7.0898,7.0898,7.0898,7.0898,7.0898,7.0898,7.0898,7.0898,7.0898,7.0898,7.0898,7.0898,7.0898,7.0898,7.0898,7.0206,6.9821,6.9667,6.8052,6.6782,6.5897,6.5897,6.5897,6.5897,6.5897,6.5897,6.5897,6.5897,6.5897,6.5897,6.5897,6.5897,6.5897,6.5897,6.5897,6.5897,6.5897,6.5897,6.5743,6.4897,6.4512,6.4292,6.3593,6.319,6.2841,6.2259,6.2043,6.1755,6.1012,6.0781,6.0781,6.0781,6.0781,6.0781,6.0781,6.0781,6.0781,6.0781,6.0781,6.0781,6.0781,6.0781,6.0742,6.0627,6.0627,6.0589,6.0473,6.0473,6.0165,5.9435,5.9242,5.8896,5.8204,5.7319,5.683,5.683,5.6126,5.5703,5.5703,5.5703,5.5703,5.5703,5.5588,5.5549,5.5549,5.5434,5.5357,5.5357,5.5357,5.5434,6.2403,6.4762,6.7128,7.0167,7.0898,7.0898,7.0898,7.0898,7.0898,7.0898,7.0898,7.0898,7.0898,7.0898,7.0898,7.0898,7.0898,7.0898,7.0898,7.0898,7.0898,7.0898,7.0898,7.0898,7.0898,7.0898,7.0898,7.0898,7.0898,7.0898,7.0898,7.0898,7.0898,7.0898,7.0898,7.0898,7.0898,7.009,6.9206,6.8244,6.7013,6.6244,6.5897,6.5897,6.5897,6.5897,6.5897,6.5897,6.5897,6.5897,6.5931,6.6014,6.6014,6.6069,6.6194,6.6194,6.6194,6.6194,6.6194,6.6194,6.6117,6.5729,6.5264,6.4826,6.4536,6.4031,6.3516,6.3231,6.3107,6.2956,6.2568,6.2491,6.2491,6.2491,6.2142,6.1823,6.1823,6.1291,6.0781,6.0781,6.0839,6.0902,6.0816,6.0781,6.0781,6.0781,6.0781,6.0781,6.0781,6.0781,6.0666,6.0281,5.9781,5.9386,5.9167,5.8336,5.786,5.7955,5.7141,5.6621,5.653,5.6086,5.5779,5.5714,5.5703,5.5703,5.5703,5.5703,5.5703,5.5703,5.5703,5.5703,6.2563,6.4124,6.5469,6.8847,6.999,7.0321,7.0552,7.0744,7.0898,7.0898,7.0898,7.0898,7.0898,7.0898,7.0898,7.0898,7.0898,7.0898,7.0898,7.0898,7.0898,7.0898,7.0898,7.0898,7.0898,7.0898,7.0898,7.0898,7.0898,7.0898,7.0898,7.0898,7.0898,7.0898,7.0898,7.0783,7.0591,6.9552,6.8282,6.6782,6.6205,6.5897,6.5897,6.5897,6.5897,6.5897,6.5897,6.5897,6.5897,6.5897,6.5967,6.6059,6.608,6.6179,6.6327,6.6374,6.6387,6.6387,6.6387,6.6387,6.6387,6.6387,6.5965,6.5426,6.5467,6.4989,6.442,6.427,6.4176,6.4064,6.3875,6.3798,6.3798,6.3798,6.3333,6.2763,6.2334,6.1535,6.0867,6.0867,6.0895,6.0925,6.0827,6.0781,6.0781,6.0781,6.0781,6.0781,6.0781,6.0781,6.0816,6.0856,6.0278,5.9968,6.0181,5.939,5.8912,5.9004,5.8192,5.7669,5.7582,5.6932,5.6429,5.6087,5.6053,5.5934,5.5703,5.5703,5.5703,5.5703,5.5703,5.5703,5.9577,6.0756,6.2065,6.5489,6.7467,6.8744,6.959,7.036,7.0898,7.0898,7.0898,7.0898,7.0898,7.0898,7.0898,7.0898,7.0898,7.0898,7.0898,7.0898,7.0898,7.0898,7.0898,7.0898,7.0898,7.0898,7.0898,7.0898,7.0898,7.0898,7.0898,7.0898,7.0898,7.0898,7.0898,7.0514,6.9783,6.809,6.6821,6.5974,6.5897,6.5897,6.5897,6.5897,6.5897,6.5897,6.5897,6.5897,6.5897,6.5897,6.591,6.5921,6.6049,6.6119,6.6156,6.6327,6.6387,6.6387,6.6387,6.6387,6.6387,6.6387,6.6387,6.6379,6.6463,6.6381,6.6112,6.55,6.5177,6.4843,6.4025,6.3798,6.3798,6.3798,6.3658,6.3136,6.1681,6.1182,6.0979,6.0979,6.0874,6.0804,6.0793,6.0781,6.0781,6.0781,6.0781,6.0781,6.0781,6.0781,6.0856,6.1,6.0941,6.0995,6.1181,6.0427,5.9933,5.9938,5.9127,5.8621,5.8615,5.845,5.7984,5.7124,5.7004,5.6522,5.5703,5.5703,5.5703,5.5703,5.5703,5.5703,5.9455,6.0633,6.1825,6.4676,6.6644,6.8121,6.8974,6.9748,7.0429,7.0981,7.0979,7.0898,7.0898,7.0898,7.0898,7.0898,7.0898,7.0898,7.0898,7.0898,7.0898,7.0898,7.0898,7.0898,7.0898,7.0898,7.0898,7.0898,7.0898,7.0898,7.0898,7.0898,7.0898,7.0898,7.0898,7.0244,6.8898,6.7705,6.6705,6.5897,6.5897,6.5897,6.5897,6.5897,6.5897,6.5897,6.5897,6.5897,6.5897,6.5897,6.5943,6.6018,6.607,6.617,6.6312,6.6478,6.6473,6.6406,6.6498,6.6473,6.6406,6.6498,6.6525,6.6545,6.6738,6.6779,6.6653,6.6435,6.6312,6.618,6.587,6.5792,6.5626,6.4946,6.4666,6.4245,6.3132,6.2766,6.2646,6.2513,6.2081,6.1734,6.1663,6.1166,6.0781,6.0781,6.0781,6.0823,6.0925,6.0945,6.1,6.1179,6.1193,6.1265,6.1404,6.1144,6.1017,6.1102,6.0286,5.9763,5.9673,5.9083,5.8548,5.8031,5.7443,5.6657,5.5703,5.5703,5.5703,5.5703,5.5703,5.5703,5.8521,5.9478,6.0599,6.3197,6.4869,6.6432,6.8429,6.922,6.9893,7.1075,7.1137,7.0991,7.0991,7.094,7.0898,7.0898,7.0898,7.0898,7.0898,7.0898,7.0898,7.0898,7.0898,7.0898,7.0898,7.0898,7.0898,7.0898,7.0898,7.0898,7.0898,7.0898,7.0898,7.0898,7.036,6.9552,6.8398,6.7282,6.6551,6.6282,6.6282,6.6474,6.6744,6.6436,6.6282,6.6282,6.6013,6.5897,6.5897,6.5897,6.5955,6.6028,6.608,6.617,6.632,6.6483,6.6473,6.6406,6.6503,6.6503,6.6478,6.6557,6.6634,6.6737,6.6874,6.6914,6.6914,6.6914,6.6914,6.6875,6.6831,6.6781,6.6556,6.5752,6.5486,6.5258,6.4635,6.4015,6.3565,6.3428,6.2997,6.2622,6.2509,6.1781,6.1243,6.1243,6.0973,6.0856,6.097,6.0997,6.1074,6.1339,6.1359,6.1409,6.1571,6.1517,6.1571,6.1679,6.1091,6.0726,6.0651,6.0063,5.9521,5.8993,5.8374,5.7607,5.6628,5.6025,5.5703,5.5703,5.5703,5.5703,0.0,0.0,0.0,6.0756,6.1924,6.354,6.7762,6.8722,6.9253,7.105,7.1275,7.1144,7.1182,7.1053,7.0898,7.0912,7.0912,7.0898,7.0898,7.0898,7.0898,7.0898,7.0898,7.0898,7.0898,7.0898,7.0898,7.0898,7.0898,7.0898,7.0898,7.0898,7.0898,7.0898,6.9321,6.8423,6.8423,6.6782,6.6359,6.7128,6.7128,6.759,6.8359,6.7513,6.7128,6.7051,6.6282,6.5897,6.5897,6.5897,6.5897,6.5897,6.6039,6.61,6.6128,6.6312,6.6374,6.6374,6.6381,6.6478,6.661,6.6574,6.6737,6.6875,6.6914,6.6914,6.6914,6.6914,6.6914,6.6873,6.6678,6.6503,6.6354,6.6153,6.6128,6.6051,6.5919,6.4728,6.3699,6.368,6.3477,6.3346,6.3346,6.2666,6.2139,6.2151,6.1408,6.0905,6.1066,6.1044,6.1126,6.1527,6.1504,6.1568,6.1679,6.1579,6.1532,6.1679,6.1577,6.1504,6.1504,6.1504,6.1034,6.0061,5.9878,5.9379,5.8518,5.6695,5.5742,5.5742,5.5703,5.5703,5.6601,0.0,0.0,0.0,0.0,0.0,6.4079,6.5016,6.6181,6.904,6.9464,6.968,7.0979,7.1053,7.094,7.1108,7.0991,7.0898,7.0898,7.0898,7.0898,7.0898,7.0898,7.0898,7.0898,7.0898,7.0898,7.0898,7.0898,7.0898,7.0898,7.0898,7.0898,7.0898,6.9898,6.936,6.936,6.8282,6.7821,6.8052,6.8052,6.8167,6.8385,6.8167,6.7705,6.709,6.6859,6.6436,6.5897,6.5897,6.5897,6.591,6.5919,6.5955,6.5951,6.6119,6.6138,6.6035,6.6146,6.6212,6.6244,6.6418,6.6576,6.6694,6.6873,6.6914,6.6914,6.6914,6.6914,6.6875,6.6833,6.668,6.6529,6.6459,6.6406,6.6298,6.6283,6.5926,6.556,6.5302,6.4728,6.4243,6.4243,6.3551,6.3018,6.3157,6.2354,6.2094,6.3102,6.1931,6.1415,6.2486,6.1924,6.1512,6.1568,6.1515,6.1488,6.1404,6.1481,6.1504,6.1504,6.1504,6.1304,6.0945,6.0189,5.96,5.9209,5.8132,5.7242,5.6637,5.5972,5.5703,5.6601,5.6953,5.7539,5.8242,0.0,0.0,6.289,6.3822,6.5082,6.8468,6.8972,6.9359,7.1085,7.098,7.0764,7.124,7.1213,7.1097,7.09,7.0898,7.0898,7.0898,7.0898,7.0898,7.0898,7.0898,7.0898,7.0898,7.0898,7.0898,7.0898,7.0898,7.0898,7.0898,7.0157,6.9771,6.9706,6.8923,6.8653,6.8936,6.8936,6.9129,6.9436,6.909,6.8667,6.8129,6.7398,6.6821,6.6359,6.6051,6.5897,6.5897,6.5897,6.5897,6.5923,6.5997,6.5992,6.6008,6.6061,6.6204,6.6322,6.6457,6.6599,6.6742,6.6874,6.6914,6.6914,6.6914,6.6833,6.6785,6.6785,6.6667,6.6512,6.6512,6.6457,6.6387,6.6387,6.6387,6.6327,6.6148,6.5702,6.5354,6.5354,6.4619,6.4086,6.4194,6.3352,6.304,6.3872,6.2905,6.249,6.3378,6.2679,6.208,6.2053,6.1666,6.1396,6.1378,6.1392,6.1424,6.1501,6.1532,6.1515,6.1378,6.0795,6.0427,6.0237,5.8939,5.805,5.7511,5.7011,5.678,5.664,5.668,0.0,5.8555,5.8476,0.0,6.2734,6.3711,6.4804,6.8085,6.8687,6.9149,7.0831,7.038,7.0038,7.0843,7.1102,7.1154,7.0966,7.0953,7.0953,7.0912,7.0939,7.09,7.0898,7.0898,7.0898,7.0898,7.0898,7.0898,7.0898,7.0898,7.0898,7.0898,7.0335,6.9971,6.9887,6.9319,6.9291,6.99,6.99,7.026,7.0914,7.0182,6.9823,6.9629,6.7975,6.7167,6.7051,6.6244,6.5897,6.5897,6.5897,6.5897,6.591,6.6024,6.6135,6.6235,6.6263,6.6491,6.6733,6.6616,6.6738,6.6914,6.6914,6.6914,6.6914,6.6914,6.6785,6.6631,6.6631,6.6529,6.6441,6.6441,6.6441,6.6441,6.6441,6.6441,6.6441,6.6441,6.6412,6.6387,6.6387,6.577,6.5232,6.525,6.4403,6.3845,6.4121,6.3959,6.392,6.4236,6.3505,6.2922,6.28,6.1889,6.1359,6.1485,6.1373,6.1369,6.1501,6.1591,6.1631,6.1504,6.1495,6.1404,6.1283,5.9425,5.8494,5.8494,5.8379,5.834,5.6797,5.7109,5.7578,5.7187,5.8047,0.0,5.9101,6.0195,6.1717,6.3635,6.4548,6.5553,6.7273,6.7286,6.7178,6.75,6.8594,6.9826,7.0986,7.128,7.1262,7.0927,7.1026,7.1085,7.0925,7.0898,7.0898,7.0898,7.0898,7.0898,7.0898,7.0898,7.0898,7.0898,7.0915,7.0919,7.0905,7.0934,7.1023,7.1131,7.1131,7.1153,7.1137,7.0982,7.0459,6.9629,6.859,6.7744,6.7051,6.6244,6.5897,6.5897,6.5897,6.5897,6.6012,6.6819,6.7125,6.7163,6.734,6.7481,6.7517,6.6811,6.6738,6.6914,6.6914,6.6914,6.6914,6.6914,6.6874,6.6833,6.6833,6.683,6.6787,6.6787,6.6787,6.6787,6.6787,6.6787,6.6787,6.6787,6.658,6.6387,6.6387,6.627,6.6162,6.6303,6.5439,6.5166,6.6154,6.4821,6.4198,6.5189,6.3849,6.2847,6.2795,6.1995,6.1413,6.1334,6.1404,6.1485,6.1504,6.1517,6.1517,6.1504,6.1383,6.1318,6.1283,6.0184,5.9685,5.9646,5.8953,5.8603,5.6836,5.6914,5.7265,5.7265,5.7578,0.0,0.0,5.9219,6.039,6.2446,6.2832,6.3536,6.5684,6.5658,6.5487,6.5993,6.7807,6.9229,6.9513,7.0573,7.128,7.1074,7.1137,7.1104,7.0939,7.0979,7.1004,7.0912,7.0898,7.0898,7.0898,7.0898,7.094,7.1065,7.1242,7.1361,7.1361,7.1524,7.1566,7.1478,7.1478,7.1427,7.1361,7.1361,7.1,7.0421,6.9533,6.8627,6.7705,6.7321,6.6898,6.6513,6.6513,6.6548,6.6747,6.7706,6.8139,6.8319,6.8393,6.8252,6.7991,6.7523,6.7183,6.6914,6.6914,6.6914,6.6914,6.6914,6.6914,6.6914,6.6914,6.6914,6.6914,6.6914,6.6914,6.6914,6.6914,6.6914,6.6914,6.6914,6.6777,6.6655,6.6655,6.6655,6.667,6.6738,6.6258,6.6073,6.6659,6.5829,6.5418,6.6034,6.4945,6.4156,6.4088,6.2912,6.2109,6.2059,6.1712,6.152,6.1585,6.1587,6.1587,6.1587,6.1522,6.1504,6.1504,6.1077,6.0797,6.0633,6.0205,6.0016,5.7344,5.7226,5.7422,5.7812,5.7617,5.7578,0.0,0.0,0.0,6.164,6.1601,6.1875,6.3984,6.3789,6.3594,6.4453,6.6601,6.7927,6.7305,6.9013,7.0484,7.0942,7.1183,7.1233,7.1014,7.0849,7.0831,7.0953,7.0645,7.0632,7.1016,7.0992,7.1038,7.1242,7.1435,7.153,7.153,7.1667,7.1718,7.1616,7.1616,7.156,7.153,7.153,7.1435,7.1213,7.0331,6.9515,6.874,6.8525,6.8038,6.7434,6.7434,6.7509,6.7764,6.8718,6.9221,6.9432,6.9486,6.9129,6.8633,6.8476,6.7851,6.7109,6.6953,6.6914,6.6914,6.6914,6.6914,6.6953,6.7109,6.7031,6.6953,6.7109,6.7031,6.6914,6.6914,6.6914,6.6914,6.6914,6.6914,6.6914,6.6914,6.6914,6.6914,6.6914,6.6745,6.6678,6.6678,6.6678,6.6678,6.6678,6.6009,6.5544,6.5436,6.3987,6.3086,6.3086,6.2423,6.2012,6.1953,6.1797,6.1719,6.1719,6.1719,6.1719,6.1719,6.1719,6.1584,6.1369,6.1369,6.1369,5.914,5.9414,5.9648,5.8242,5.8945,5.9414,5.7383,0.0,5.9062,5.8594,0.0,5.957,5.9883,0.0,0.0,6.0859,6.2539,6.3945,6.4608,6.609,6.7935,7.0056,7.1115,7.1604,7.1435,7.0059,6.9717,7.1074,6.9716,6.9624,7.1327,7.1262,7.1252,7.1442,7.1609,7.1675,7.1675,7.1861,7.1951,7.1949,7.1949,7.1856,7.1675,7.1675,7.1609,7.1411,7.0523,7.0088,6.9942,6.9042,6.8596,6.8519,6.8519,6.8539,6.8703,6.9868,7.0313,7.0378,7.0502,7.0468,7.0273,6.9492,6.8711,6.789,6.7148,6.6914,6.6914,6.6914,6.6914,6.707,6.7851,6.7461,6.7109,6.7851,6.7461,6.6914,6.6914,6.6914,6.6914,6.6914,6.6914,6.6914,6.6914,6.6914,6.6914,6.6914,6.6874,6.6874,6.6874,6.6874,6.6874,6.6874,6.6093,6.5586,6.5585,6.4687,6.414,6.414,6.4023,6.3632,6.289,6.2109,6.1719,6.1719,6.1719,6.1719,6.1719,6.1719,6.1679,6.1638,6.1638,6.1638,5.9414,5.9453,5.9531,5.8828,5.8789,5.8672,5.7617,5.7539,5.7734,5.7851,0.0,0.0,0.0,0.0,0.0,0.0,6.1992,6.3711,6.3555,6.5425,6.7117,6.7998,6.8496,6.8936,6.9358,6.911,6.9367,7.0532,6.9467,6.9585,7.14,7.1404,7.1449,7.1614,7.1667,7.1753,7.1862,7.1951,7.1992,7.1992,7.1992,7.1951,7.1862,7.1862,7.1521,7.0917,7.1039,7.0453,6.9461,6.9531,6.9259,6.8816,6.8923,6.9214,6.9702,7.0784,7.1253,7.1398,7.1444,7.1133,7.0547,6.9687,6.918,6.8828,6.8515,6.8398,6.8359,6.8398,6.8398,6.8437,6.8867,6.8672,6.8476,6.8828,6.8242,6.7656,6.7656,6.7265,6.6914,6.6914,6.6914,6.6914,6.6914,6.6914,6.6914,6.6914,6.6914,6.6914,6.6914,6.6914,6.6914,6.6914,6.6562,6.6367,6.6367,6.5547,6.5039,6.5039,6.457,6.414,6.3789,6.3398,6.3203,6.3203,6.2695,6.2461,6.2461,6.1953,6.1719,6.1719,6.1719,6.1719,6.0469,6.0234,6.0117,5.9648,5.8906,5.8125,5.7656,5.7422,5.7422,5.7812,5.7773,0.0,0.0,0.0,5.9258,0.0,0.0,6.3086,6.2695,6.4297,6.57,6.6256,6.6524,6.6907,6.751,6.7617,6.8271,6.979,6.8694,6.8984,7.1492,7.1377,7.1385,7.1758,7.1761,7.1859,7.1992,7.1992,7.1992,7.1992,7.1992,7.1992,7.1992,7.1992,7.1596,7.0941,7.1292,7.0636,6.9431,6.9774,6.9562,6.8995,6.9124,6.9497,7.0019,7.0795,7.1316,7.164,7.164,7.1406,7.0898,7.0039,6.9765,6.9726,6.9531,6.9453,6.9414,6.9492,6.9453,6.9453,6.9765,6.9687,6.9531,6.9726,6.8945,6.8203,6.8203,6.7539,6.6914,6.6914,6.6914,6.6914,6.6914,6.6914,6.6914,6.6914,6.6914,6.6914,6.6914,6.6914,6.6914,6.6914,6.6914,6.6914,6.6914,6.6328,6.5976,6.5976,6.5156,6.4648,6.4648,6.4414,6.4297,6.4297,6.3672,6.3359,6.3359,6.2734,6.2422,6.2383,6.1914,6.1719,6.3125,6.289,6.2461,6.0781,5.9765,5.8711,5.7031,5.793,5.8906,5.8086,5.918,6.0039,5.9297,0.0,0.0,0.0,0.0,0.0,0.0,6.1797,6.2812,6.5312,6.6367,6.683,6.6655,6.5298,6.5773,6.8993,6.6876,6.7342,7.1757,7.1063,7.098,7.1953,7.1992,7.1992,7.1992,7.1992,7.1992,7.1992,7.1992,7.1992,7.1992,7.1992,7.1992,7.1914,7.1094,7.0703,7.0585,6.9608,6.9224,6.9185,6.9188,6.9224,6.9234,6.9409,7.0,7.0742,7.0742,7.1289,7.1797,7.0937,7.0664,7.0508,6.9726,6.9453,6.9414,6.9492,6.9453,6.9609,7.043,7.0078,6.9687,7.0469,6.9414,6.8203,6.8203,6.7539,6.6914,6.6914,6.6914,6.6914,6.6914,6.6914,6.6914,6.6914,6.6914,6.6914,6.6914,6.6914,6.6914,6.6914,6.6914,6.6914,6.6914,6.6875,6.6875,6.6875,6.6055,6.5547,6.5547,6.4765,6.4297,6.4297,6.4258,6.4258,6.4258,6.4219,6.4219,6.418,6.25,6.1719,6.4648,6.4297,6.3594,6.2422,6.1055,5.9531,5.7851,5.8359,5.9101,5.8828,5.9648,6.0312,6.0039,0.0,0.0,0.0,0.0,0.0,0.0,6.1211,6.1367,6.2851,6.4297,6.4921,6.4289,6.4256,6.5234,6.7492,6.5772,6.6285,7.0078,6.9957,7.0192,7.1094,7.1719,7.1992,7.1992,7.1992,7.1992,7.1992,7.1992,7.1992,7.1992,7.1992,7.168,7.1172,7.1445,7.0937,6.9883,6.9488,6.9015,6.8468,6.7883,6.7687,6.7806,6.8984,6.9609,6.9844,6.9883,7.0078,7.0234,6.9922,6.9883,6.9961,7.0234,7.0273,7.039,7.0976,7.1133,7.1172,7.1484,7.1367,7.1211,7.1484,7.0703,6.9687,6.9101,6.8359,6.7578,6.6992,6.6914,6.6914,6.6914,6.6914,6.6914,6.6914,6.6914,6.6914,6.6914,6.6914,6.6914,6.6914,6.6914,6.6914,6.6914,6.6914,6.6914,6.6914,6.6601,6.6445,6.6445,6.6172,6.6015,6.6015,6.5469,6.5156,6.5156,6.457,6.4297,6.4297,6.3711,6.3437,6.5887,6.5772,6.5384,6.4609,6.332,6.1797,6.0117,6.0625,6.1406,6.1094,6.1445,6.1875,6.2187,0.0,0.0,0.0,0.0,0.0,0.0,6.1015,6.0976,6.1211,6.2226,6.293,6.3008,6.3242,6.4219,6.6289,6.4805,6.5195,6.8359,6.8789,6.9375,7.0234,7.1406,7.1992,7.1992,7.1992,7.1992,7.1992,7.1992,7.1992,7.1992,7.1992,7.168,7.1172,7.1445,7.0937,6.9883,6.9258,6.8672,6.8125,6.7226,6.6914,6.7031,6.8125,6.8711,6.9023,6.9375,6.9453,6.9414,6.9414,6.9414,6.957,7.0078,7.0469,7.082,7.1367,7.1758,7.1992,7.1992,7.1992,7.1992,7.1992,7.1328,7.0469,6.9609,6.8789,6.793,6.707,6.6914,6.6914,6.6914,6.6914,6.6914,6.6914,6.6914,6.6914,6.6914,6.6914,6.6914,6.6914,6.6914,6.6914,6.6914,6.6914,6.6914,6.6914,6.6914,6.6914,6.6914,6.6914,6.6914,6.6914,6.6367,6.6055,6.6055,6.5508,6.5234,6.5234,6.5234,6.5234]}]]